.

MPMG - Transparência

Contracheque - Verbas indenizatórias e outras remunerações temporárias - Tabela III (Resolução nº 200/2019) - Pós Resolução CNMP 200/2019

Período: 2020 - Julho

Ordem Matrícula Nome Cargo Lotação Verbas Indenizatórias *1 Outras Remunerações Temporárias *2 Data de Referência
Auxílio Alimentação Auxílio Creche Auxílio Saúde Auxílio Transporte Estagiário Indenizações Indenizações e Diligênias Adicionais de Periculosidade e Insalubridade Gratificações Outras Remunerações
1 498900 ABDON MARCIO BARBOSA DA SILVA OFICIAL DO MP ABRE CAMPO - COMARCA; ABRE CAMPO-PJ-01PJ 1.100,00 0,00 450,00 0,00 0,00 0,00 0,00 0,00 0,00 31/07/2020
2 293600 ABELARDO GUIMARAES CASTRO PROMOT.ENTRANC.ESPECIAL BELO HORIZONTE - COMARCA; BH-06PJ JUIZO CIVEL 1.100,00 0,00 2.601,04 0,00 5.614,85 0,00 0,00 0,00 514,69 31/07/2020
3 99200 ADALBERTO DE PAULA CHRISTO LEITE PROMOT.ENTRANC.ESPECIAL SÃO JOÃO DEL REI - COMARCA; SAO JOAO DEL REI-PJ-02PJ 1.100,00 0,00 2.153,31 0,00 12.352,67 0,00 0,00 0,00 514,69 31/07/2020
4 177800 ADALBERTO MENEZES FARIA SAMORA OFICIAL DO MP BELO HORIZONTE - COMARCA; DIR ESTRUTURA E PROCESSOS ORGANIZACIONAIS 1.100,00 0,00 450,00 0,00 0,00 0,00 0,00 0,00 0,00 31/07/2020
5 306400 ADALBERTO MOREIRA GONCALVES ANALISTA DO MP BELO HORIZONTE - COMARCA; BH-24PJ JUIZO REG BARREIRO-SECRETARIA 1.100,00 0,00 450,00 0,00 0,00 0,00 0,00 0,00 0,00 31/07/2020
6 1150100 ADAO ABADE DE BARROS JUNIOR ESTAGIARIO OLIVEIRA; OLIVEIRA-PJ-01PJ 0,00 0,00 0,00 36,00 0,00 0,00 0,00 0,00 0,00 31/07/2020
7 100400 ADELAIDE CRISTINA DE CARVALHO MACHADO PROCURADOR DE JUSTICA BELO HORIZONTE - COMARCA; GABINETE DE PROCURADOR DE JUSTIÇA - SALA 708 1.100,00 0,00 980,72 0,00 5.910,37 0,00 0,00 0,00 541,78 31/07/2020
8 96500 ADELIA LAGE DE OLIVEIRA PROCURADOR DE JUSTICA BELO HORIZONTE - COMARCA; GABINETE DE PROCURADOR DE JUSTIÇA - SALA 403 1.100,00 0,00 1.279,19 0,00 13.002,81 0,00 0,00 0,00 541,78 31/07/2020
9 1121100 ADELIA NATALI CHURATA URBANO ESTAGIARIO BETIM; BETIM-PJ-04PJ 0,00 0,00 0,00 27,00 0,00 0,00 0,00 0,00 0,00 31/07/2020
10 49200 ADEMAR PEREIRA PROMOTOR 2A ENTRANCIA MACHADO - COMARCA; MACHADO-PJ-01PJ 1.100,00 0,00 2.984,79 0,00 11.735,04 0,00 0,00 0,00 488,96 31/07/2020
11 179300 ADENISE AUXILIADORA SOUZA SAD OFICIAL DO MP BARBACENA - COMARCA; BARBACENA-PJ-06PJ 1.100,00 0,00 450,00 0,00 0,00 0,00 0,00 0,00 0,00 31/07/2020
12 272200 ADILSON BATISTA ORNELAS OFICIAL DO MP LAVRAS - COMARCA; LAVRAS-PJ-SECRETARIA 1.100,00 0,00 450,00 0,00 0,00 0,00 0,00 0,00 0,00 31/07/2020
13 143000 ADILSON DE OLIVEIRA NASCIMENTO PROCURADOR DE JUSTICA BELO HORIZONTE - COMARCA; PROC. JUSTICA CRIMINAL 1.100,00 0,00 2.728,96 0,00 5.910,37 0,00 0,00 0,00 541,78 31/07/2020
14 380100 ADILSON GONCALVES DE MELO JUNIOR ANALISTA DO MP ARAXÁ - COMARCA; ARAXA-PJ-05PJ 1.100,00 769,39 450,00 0,00 0,00 0,00 0,00 0,00 0,00 31/07/2020
15 148800 ADILSON JANUARIO OFICIAL DO MP BELO HORIZONTE - COMARCA; BH-22PJ PES COM DEF E IDOSOS-SECRETARIA 1.100,00 0,00 450,00 0,00 0,00 0,00 0,00 0,00 0,00 31/07/2020
16 322601 ADMILSON SILVEIRA ANALISTA DO MP SAO JOAO DO PARAISO COMARCA; SAO JOAO DO PARAISO-PJ-UNPJ 1.100,00 0,00 450,00 0,00 0,00 0,00 0,00 0,00 0,00 31/07/2020
17 1067600 ADNEIA CARVALHO NUNES ESTAGIARIO JANUARIA; JANUARIA-PJ-01PJ 0,00 0,00 0,00 135,00 0,00 0,00 0,00 0,00 0,00 31/07/2020
18 333700 ADRIANA ABRITTA TEIXEIRA OFICIAL DO MP BELO HORIZONTE - COMARCA; DIRET DE PESSOAL DO MINISTERIO PUBLICO - DPMP 1.100,00 0,00 450,00 0,00 0,00 0,00 0,00 0,00 0,00 31/07/2020
19 468500 ADRIANA APARECIDA FIRMINO ANALISTA DO MP CARATINGA - COMARCA; CARATINGA-PJ-04PJ 1.100,00 769,39 450,00 0,00 0,00 0,00 0,00 0,00 0,00 31/07/2020
20 326100 ADRIANA AUGUSTA AMARAL BELO OFICIAL DO MP BARBACENA - COMARCA; BARBACENA-PJ-08PJ 1.100,00 0,00 450,00 0,00 0,00 0,00 0,00 0,00 0,00 31/07/2020
21 363000 ADRIANA CARVALHO PEREIRA E SILVA COSTA PROMOTOR 2A ENTRANCIA ALÉM PARAÍBA - COMARCA; ALEM PARAIBA-PJ-02PJ 1.100,00 0,00 2.494,43 0,00 5.334,11 0,00 0,00 0,00 488,96 31/07/2020
22 605700 ADRIANA COSTA LIRA ASSESSOR/OFICIAL BELO HORIZONTE - COMARCA; COORD ESTADUAL DE DEFESA DA EDUCACAO 1.100,00 0,00 450,00 0,00 0,00 0,00 0,00 0,00 0,00 31/07/2020
23 541100 ADRIANA CRISTINA DE OLIVEIRA OFICIAL DO MP GUAPÉ - COMARCA; GUAPE-PJ-UNPJ 1.100,00 769,39 450,00 0,00 0,00 0,00 0,00 0,00 0,00 31/07/2020
24 254800 ADRIANA DAS GRACAS FERNANDES ANALISTA DO MP UBERABA - COMARCA; UBERABA-PJ-07PJ 1.100,00 0,00 450,00 0,00 0,00 0,00 0,00 0,00 0,00 31/07/2020
25 217400 ADRIANA DE CARVALHO CATAO BRAGA ASSESSOR BELO HORIZONTE - COMARCA; DIV FISCAL ADM CONT TERCEIRIZACAO 1.100,00 0,00 450,00 0,00 0,00 0,00 0,00 0,00 0,00 31/07/2020
26 434600 ADRIANA FERREIRA DA SILVA ANALISTA DO MP BELO HORIZONTE - COMARCA; BH-14PJ DEFESA CONSUMIDOR-GAB 112PJ 1.100,00 0,00 450,00 0,00 0,00 0,00 0,00 0,00 0,00 31/07/2020
27 499800 ADRIANA FERREIRA TIAGO OFICIAL DO MP SALINAS - COMARCA; SALINAS-PJ-02PJ 1.100,00 0,00 450,00 0,00 0,00 0,00 0,00 0,00 0,00 31/07/2020
28 543400 ADRIANA GUIMARAES NUNES DE PAULA ANALISTA DO MP PATROCÍNIO - COMARCA; PATROCINIO-PJ-01PJ 1.100,00 0,00 450,00 0,00 0,00 0,00 0,00 0,00 0,00 31/07/2020
29 471500 ADRIANA HORTA DE CARVALHO RODRIGUES DE SOUSA ANALISTA DO MP BELO HORIZONTE - COMARCA; GRUPO ESP PROM JUST DEF PROB ADM PAT PUB 1.100,00 0,00 450,00 0,00 0,00 0,00 0,00 0,00 0,00 31/07/2020
30 314300 ADRIANA JULIA DE SOUZA PROMOT.ENTRANC.ESPECIAL BELO HORIZONTE - COMARCA; BH-10PJ EXECUÇÃO PENAL-GAB 078PJ 1.100,00 0,00 2.558,40 0,00 0,00 0,00 0,00 0,00 0,00 31/07/2020
31 1148500 ADRIANA LACERDA SOARES ESTAGIARIO RAUL SOARES; RAUL SOARES-PJ-UNPJ
32 1042600 ADRIANA LELLIS DOS SANTOS RESENDE ESTAGIARIO BELO HORIZONTE; CAO-FUNDACOES
33 86400 ADRIANA MOREIRA CALDEIRA BRANT OFICIAL DO MP BELO HORIZONTE - COMARCA; BH-21PJ TUTELA FUNDACOES-SECRETARIA 1.100,00 0,00 450,00 0,00 0,00 0,00 0,00 0,00 0,00 31/07/2020
34 480700 ADRIANA MOREIRA DE AVELLAR CEZILIO OFICIAL DO MP BELO HORIZONTE - COMARCA; BH-18PJ VIOLENCIA DOMESTICA-SECRETARIA 1.100,00 0,00 450,00 0,00 0,00 0,00 0,00 0,00 0,00 31/07/2020
35 326000 ADRIANA PEREIRA CARNEIRO RESENDE OFICIAL DO MP BELO HORIZONTE - COMARCA; BH-25PJ DEFESA DA EDUCACAO-SECRETARIA 1.100,00 0,00 450,00 0,00 0,00 0,00 0,00 0,00 0,00 31/07/2020
36 502200 ADRIANA PETRUCCI DAVINA OFICIAL DO MP PATROCÍNIO - COMARCA; PATROCINIO-PJ-01PJ 1.100,00 769,39 450,00 0,00 0,00 0,00 0,00 0,00 0,00 31/07/2020
37 201900 ADRIANA REIS PIMENTA OFICIAL DO MP TEÓFILO OTONI - COMARCA; TEOFILO OTONI-PJ-03PJ 1.100,00 0,00 450,00 0,00 0,00 0,00 0,00 0,00 0,00 31/07/2020
38 278700 ADRIANA RODRIGUES PINTO COELHO AMARAL ANALISTA DO MP BELO HORIZONTE - COMARCA; CGMP-ASSESSORIA JURIDICA 1.100,00 0,00 450,00 0,00 0,00 0,00 0,00 0,00 0,00 31/07/2020
39 468000 ADRIANA SANTOS DE SANTANA MOREIRA ANALISTA DO MP ARAÇUAÍ - COMARCA; ARACUAI-PJ-02PJ 1.100,00 0,00 450,00 0,00 0,00 0,00 0,00 0,00 0,00 31/07/2020
40 290900 ADRIANA TORRES BECK PROMOT.ENTRANC.ESPECIAL BELO HORIZONTE - COMARCA; CRIANCAS E ADOLESCENTES-23PJ-CRIMES 1.100,00 0,00 3.070,08 0,00 0,00 0,00 0,00 0,00 0,00 31/07/2020
41 194700 ADRIANA TSUKIDE OFICIAL DO MP UBERABA - COMARCA; COORD REG BACIAS PARANAIBA BAIXO RIO GRANDE 1.100,00 0,00 450,00 0,00 0,00 0,00 0,00 0,00 0,00 31/07/2020
42 291500 ADRIANA VITAL DO VALLE PROMOT.ENTRANC.ESPECIAL SÃO JOÃO DEL REI - COMARCA; SAO JOAO DEL REI-PJ-06PJ 1.100,00 0,00 2.217,28 0,00 12.352,67 0,00 0,00 0,00 514,69 31/07/2020
43 1088700 ADRIANE SILVA ESTAGIARIO BETIM; BETIM-PJ-05PJ
44 212900 ADRIANO ARANTES BOZOLA PROMOT.ENTRANC.ESPECIAL UBERLÂNDIA - COMARCA; UBERLANDIA-PJ-21PJ 1.100,00 0,00 2.174,64 0,00 12.352,67 0,00 0,00 0,00 514,69 31/07/2020
45 174200 ADRIANO BOTELHO ESTRELA PROMOT.ENTRANC.ESPECIAL BELO HORIZONTE - COMARCA; BH-12PJ JUIZO CRIMINAL-GAB 095PJ 1.100,00 0,00 1.918,80 0,00 7.860,79 0,00 0,00 0,00 514,69 31/07/2020
46 465500 ADRIANO CASSIANO MATOS ANALISTA DO MP ARAXÁ - COMARCA; ARAXA-PJ-02PJ 1.100,00 0,00 450,00 0,00 0,00 0,00 0,00 0,00 0,00 31/07/2020
47 500500 ADRIANO DE ALMEIDA SILVA OFICIAL DO MP UBERABA - COMARCA; UBERABA-PJ-12PJ 1.100,00 769,39 450,00 0,00 0,00 0,00 0,00 0,00 0,00 31/07/2020
48 187200 ADRIANO DE FREITAS MARON OFICIAL DO MP PONTE NOVA - COMARCA; PONTE NOVA-PJ-03PJ 1.100,00 0,00 450,00 0,00 0,00 0,00 0,00 0,00 0,00 31/07/2020
49 344000 ADRIANO DUTRA GOMES DE FARIA PROMOT.ENTRANC.ESPECIAL VESPASIANO - COMARCA; VESPASIANO-PJ-04PJ 1.100,00 0,00 2.567,56 0,00 12.352,67 0,00 0,00 0,00 514,69 31/07/2020
50 477900 ADRIANO FERREIRA DE ALMEIDA OFICIAL DO MP TAIOBEIRAS - COMARCA; TAIOBEIRAS-PJ-UNPJ 1.100,00 0,00 450,00 0,00 0,00 0,00 0,00 0,00 0,00 31/07/2020
51 658300 ADRIANO NEPOMUCENO DE CARVALHO TENENTE CORONEL BELO HORIZONTE - COMARCA; GAECO - SECRETARIA 1.100,00 0,00 0,00 0,00 0,00 0,00 0,00 0,00 0,00 31/07/2020
52 269101 ADRIANO PEREIRA SILVA ANALISTA DO MP UBERABA - COMARCA; UBERABA-PJ-02PJ 1.100,00 769,39 450,00 0,00 0,00 0,00 0,00 0,00 0,00 31/07/2020
53 414200 ADRIANO RODRIGUES FERNANDES ANALISTA DO MP CARANDAÍ - COMARCA; CARANDAI-PJ-UNPJ 1.100,00 0,00 450,00 0,00 0,00 0,00 0,00 0,00 0,00 31/07/2020
54 1042000 ADRIANO SOARES LOES ESTAGIARIO UBERABA; UBERABA-PJ-01PJ 0,00 0,00 0,00 189,00 0,00 0,00 0,00 0,00 0,00 31/07/2020
55 536700 ADRIELLE COSTA MARIA MOURAO FIGUEIREDO OFICIAL DO MP SERRO - COMARCA; SERRO-PJ-SECRETARIA 1.100,00 769,39 450,00 0,00 0,00 0,00 0,00 0,00 0,00 31/07/2020
56 514300 ADRIENE DAMASCENO BRAGA ANALISTA DO MP ALFENAS - COMARCA; ALFENAS-PJ-03PJ 1.100,00 769,39 450,00 0,00 0,00 0,00 0,00 0,00 0,00 31/07/2020
57 254600 ADRIENE DOMINGUES COSTA ANALISTA DO MP BELO HORIZONTE - COMARCA; SUPERINTENDENCIA GESTÃO DE PESSOAS
58 252001 ADRIENE GOMES BARRETO ANALISTA DO MP BELO HORIZONTE - COMARCA; BH-19PJ SAUDE-SECRETARIA 150PJ 1.100,00 0,00 450,00 0,00 0,00 0,00 0,00 0,00 0,00 31/07/2020
59 84100 ADROALDO JUNQUEIRA AYRES NETO PROMOT.ENTRANC.ESPECIAL UBERABA - COMARCA; UBERABA-PJ-12PJ 1.100,00 0,00 3.006,11 0,00 5.614,85 0,00 0,00 0,00 514,69 31/07/2020
60 162700 AECIO RABELO PROMOTOR 2A ENTRANCIA LAVRAS - COMARCA; LAVRAS-PJ-04PJ 1.100,00 0,00 2.387,84 0,00 6.400,93 0,00 0,00 0,00 0,00 31/07/2020
61 645000 AFONSO CELSO GUIMARAES JUNIOR OFICIAL DO MP PIRAPORA - COMARCA; PIRAPORA-PJ-01PJ 1.100,00 0,00 450,00 0,00 0,00 0,00 0,00 0,00 0,00 31/07/2020
62 97600 AFONSO HENRIQUE DE MIRANDA TEIXEIRA PROCURADOR DE JUSTICA BELO HORIZONTE - COMARCA; CAO-CONFLITOS AGRARIOS 1.100,00 0,00 3.176,67 0,00 13.002,81 0,00 0,00 0,00 541,78 31/07/2020
63 610000 AGENOR ANDRADE LEAO PROMOT.ENTRANC.ESPECIAL TEÓFILO OTONI - COMARCA; TEOFILO OTONI-PJ-02PJ 1.100,00 0,00 1.719,75 0,00 12.352,67 0,00 0,00 0,00 514,69 31/07/2020
64 302500 AGENOR JOSE DA SILVA JUNIOR ANALISTA DO MP JUIZ DE FORA - COMARCA; JUIZ DE FORA-PJ-14PJ 1.100,00 0,00 450,00 0,00 0,00 0,00 0,00 0,00 0,00 31/07/2020
65 344100 AGNALDO LUCAS COTRIM PROMOT.ENTRANC.ESPECIAL POUSO ALEGRE - COMARCA; POUSO ALEGRE-PJ-05PJ 1.100,00 0,00 2.174,64 0,00 5.614,85 0,00 0,00 0,00 514,69 31/07/2020
66 67400 AIDA FERNANDES LISBOA MARINHO PROCURADOR DE JUSTICA BELO HORIZONTE - COMARCA; GABINETE DE PROCURADOR DE JUSTIÇA - SALA 604 1.100,00 0,00 2.856,86 0,00 13.002,81 0,00 0,00 0,00 541,78 31/07/2020
67 357500 AILSON WAGNER DE ALENCAR SILVA OFICIAL DO MP BELO HORIZONTE - COMARCA; BH-12PJ JUIZO CRIMINAL-SECRETARIA 1.100,00 0,00 450,00 0,00 0,00 0,00 0,00 0,00 0,00 31/07/2020
68 366400 AILTON ALEXSSANDRO ALVES OFICIAL DO MP PARÁ DE MINAS - COMARCA; PARA DE MINAS-PJ-05PJ 1.100,00 0,00 450,00 0,00 0,00 0,00 0,00 0,00 0,00 31/07/2020
69 318900 AILTON DE CASTRO RIBEIRO JUNIOR OFICIAL DO MP ITAJUBA - COMARCA; ITAJUBA-PJ-01PJ 1.100,00 769,39 450,00 0,00 0,00 0,00 0,00 0,00 0,00 31/07/2020
70 533100 AIMARA DE BRITTO DIAS LEITE PROMOTOR SUBSTITUTO LAGOA SANTA - COMARCA; LAGOA SANTA-PJ-01PJ 1.100,00 0,00 1.492,40 0,00 5.067,40 0,00 0,00 0,00 464,51 31/07/2020
71 439100 AIRTON BATISTA COSTA NETO NEPOMUCENO PROMOTOR 2A ENTRANCIA ITUIUTABA - COMARCA; ITUIUTABA-PJ-04PJ 1.100,00 0,00 2.805,40 0,00 11.735,04 0,00 0,00 0,00 488,96 31/07/2020
72 341600 ALAM BAENA BERTOLLA DOS SANTOS PROMOTOR 2A ENTRANCIA ARAGUARI - COMARCA; ARAGUARI-PJ-05PJ 1.100,00 0,00 2.558,40 0,00 5.334,11 0,00 0,00 0,00 488,96 31/07/2020
73 175700 ALAN CARRIJO RAMOS PROMOTOR 1A ENTRANCIA PRATÁPOLIS - COMARCA; PRATAPOLIS-PJ-UNPJ 1.100,00 0,00 3.040,44 0,00 11.148,28 0,00 0,00 0,00 464,51 31/07/2020
74 1099500 ALAN GOMES BARBOSA JUNIOR ESTAGIARIO JOAO PINHEIRO; JOAO PINHEIRO-PJ-02PJ
75 464400 ALAN MONTEIRO GASPAR ANALISTA DO MP SETE LAGOAS - COMARCA; SETE LAGOAS-PJ-03PJ 1.100,00 0,00 450,00 0,00 0,00 0,00 0,00 0,00 0,00 31/07/2020
76 670200 ALANA ARAUJO AGUIAR ASSESSOR BELO HORIZONTE - COMARCA; ASSESS EXECUTIVA DO CONSELHO SUPERIOR DO MP 1.100,00 0,00 450,00 0,00 0,00 0,00 0,00 0,00 0,00 31/07/2020
77 492000 ALANA DE CASTRO FREITAS OFICIAL DO MP ITUMIRIM - COMARCA; ITUMIRIM-PJ-SECRETARIA 1.100,00 0,00 450,00 0,00 0,00 0,00 0,00 0,00 0,00 31/07/2020
78 306700 ALANA MARCIA DE OLIVEIRA OFICIAL DO MP BELO HORIZONTE - COMARCA; DIRETORIA DE ADMINISTRACAO FINANCEIRA 1.100,00 0,00 450,00 0,00 0,00 0,00 0,00 0,00 0,00 31/07/2020
79 324500 ALANMAR COUTINHO COSTA OFICIAL DO MP LEOPOLDINA - COMARCA; LEOPOLDINA-PJ-02PJ 1.100,00 0,00 450,00 0,00 0,00 0,00 0,00 0,00 0,00 31/07/2020
80 1124700 ALANNA CARDOSO LINHARES RIBEIRO AMORIM ESTAGIARIO
81 170800 ALBERTO BOGLIOLO SIRIHAL PROMOT.ENTRANC.ESPECIAL BELO HORIZONTE - COMARCA; BH-05PJ JUIZO SUCESSÕES-GAB CARGO 045PJ 1.100,00 0,00 1.536,84 0,00 12.352,67 0,00 0,00 0,00 514,69 31/07/2020
82 407300 ALBERTO LUIZ SOARES DE OLIVEIRA ANALISTA DO MP BELO HORIZONTE - COMARCA; DIRETORIA DE PROJETOS DE EDIFICACOES 1.100,00 0,00 450,00 0,00 0,00 0,00 0,00 0,00 0,00 31/07/2020
83 118200 ALBERTO PEREIRA DA COSTA OFICIAL DO MP DORES DO INDAIÁ - COMARCA; DORES DO INDAIA-PJ-UNPJ 1.100,00 0,00 450,00 0,00 0,00 0,00 0,00 0,00 0,00 31/07/2020
84 1084700 ALBERTO RISI NETO ESTAGIARIO RIBEIRAO DAS NEVES; RIBEIRAO DAS NEVES-PJ-12PJ
85 72000 ALBINO VITORIO BERNARDO PROCURADOR DE JUSTICA BELO HORIZONTE - COMARCA; GABINETE DE PROCURADOR DE JUSTIÇA - SALA 710 1.100,00 0,00 2.153,31 0,00 13.002,81 0,00 0,00 0,00 541,78 31/07/2020
86 660700 ALCIDEZIO JOSE DE OLIVEIRA BISPO JUNIOR PROMOTOR 2A ENTRANCIA MANTENA - COMARCA; MANTENA-PJ-03PJ 1.100,00 0,00 1.876,16 0,00 5.334,11 0,00 0,00 0,00 488,96 31/07/2020
87 282400 ALCILENE MARISE DE ARAUJO ANALISTA DO MP BELO HORIZONTE - COMARCA; BH-23PJ INF-FISC MED SOC FEC 1.100,00 0,00 450,00 0,00 0,00 0,00 0,00 0,00 0,00 31/07/2020
88 112600 ALCIONE DA MOTA JARDIM OFICIAL DO MP BELO HORIZONTE - COMARCA; CAO-CRIANCAS E ADOLESCENTES-SECRETARIA 1.100,00 0,00 450,00 0,00 0,00 0,00 0,00 0,00 0,00 31/07/2020
89 396400 ALCIONE DE FREITAS E SILVA ANALISTA DO MP BELO HORIZONTE - COMARCA; ASSESS JUR DO CONS SUPERIOR DO MINISTERIO PUB 1.100,00 0,00 450,00 0,00 0,00 0,00 0,00 0,00 0,00 31/07/2020
90 657400 ALCIONE MARIA FERREIRA ASSESSOR BELO HORIZONTE - COMARCA; PROC JUST RECURSOS ESP E EXTRAORD CRIMINAIS 1.100,00 0,00 450,00 0,00 0,00 0,00 0,00 0,00 0,00 31/07/2020
91 161600 ALCIONE NERY SOUZA ASSESSOR BELO HORIZONTE - COMARCA; BH-18PJ DIREITOS HUMANOS-SECRETARIA 1.100,00 0,00 450,00 0,00 0,00 0,00 0,00 0,00 0,00 31/07/2020
92 92000 ALCIR ARANTES PROMOT.ENTRANC.ESPECIAL UBERABA - COMARCA; UBERABA-PJ-03PJ 1.100,00 0,00 2.558,38 0,00 12.352,67 0,00 0,00 0,00 514,69 31/07/2020
93 376000 ALDA GOMES LANA OFICIAL DO MP BELO HORIZONTE - COMARCA; BH-18PJ VIOLENCIA DOMESTICA-SECRETARIA 1.100,00 0,00 450,00 0,00 0,00 0,00 0,00 0,00 0,00 31/07/2020
94 148000 ALDA MARTINS SIMOES OFICIAL DO MP BELO HORIZONTE - COMARCA; BH-23PJ CIVEL- FISC ENT AB POL 1.100,00 0,00 450,00 0,00 0,00 0,00 0,00 0,00 0,00 31/07/2020
95 89200 ALDECIR RESENDE BOLLESI DE PLA E SANT'ANNA PROMOT.ENTRANC.ESPECIAL CONTAGEM - COMARCA; CONTAGEM-PJ-08PJ 1.100,00 0,00 2.153,31 0,00 0,00 0,00 0,00 0,00 0,00 31/07/2020
96 457700 ALDERICO DE CARVALHO JUNIOR PROMOTOR 2A ENTRANCIA NOVA SERRANA - COMARCA; NOVA SERRANA-PJ-03PJ 1.100,00 0,00 2.437,56 0,00 6.400,93 0,00 0,00 0,00 0,00 31/07/2020
97 318400 ALDO CREPALDI JUNIOR OFICIAL DO MP BELO HORIZONTE - COMARCA; DIVISAO DE MATERIAIS 1.100,00 0,00 450,00 0,00 0,00 0,00 0,00 0,00 0,00 31/07/2020
98 604500 ALENIZE APARECIDA RODRIGUES HENRIQUE OFICIAL DO MP RIO NOVO - COMARCA; RIO NOVO-PJ-UNPJ 1.100,00 0,00 450,00 0,00 0,00 0,00 0,00 0,00 0,00 31/07/2020
99 1057900 ALESSA ARAUJO FONSECA ESTAGIARIO BOTELHOS; BOTELHOS-PJ-UNPJ 0,00 0,00 0,00 180,00 0,00 0,00 0,00 0,00 0,00 31/07/2020
100 197900 ALESSA DE SOUSA E SILVA OFICIAL DO MP OLIVEIRA - COMARCA; OLIVEIRA-PJ-02PJ 1.100,00 0,00 450,00 0,00 0,00 150,00 0,00 0,00 0,00 31/07/2020
101 428500 ALESSANDRA ALVES DINIZ OFICIAL DO MP BELO HORIZONTE - COMARCA; CENTRAL DE APOIO TECNICO-SECRETARIA 1.100,00 0,00 450,00 0,00 0,00 0,00 0,00 0,00 0,00 31/07/2020
102 286801 ALESSANDRA BOTELHO JUNQUEIRA DE MENEZES ANALISTA DO MP PASSOS - COMARCA; PASSOS-PJ-05PJ 1.100,00 1.538,78 450,00 0,00 0,00 0,00 0,00 0,00 0,00 31/07/2020
103 1069900 ALESSANDRA CAROLINE PELEGRINO ESTAGIARIO BRASOPOLIS; BRASOPOLIS-PJ-UNPJ 0,00 0,00 0,00 126,00 0,00 0,00 0,00 0,00 0,00 31/07/2020
104 307000 ALESSANDRA CRISTINA SANTOS MENDES ANALISTA DO MP BELO HORIZONTE - COMARCA; BH-18PJ VIOLENCIA DOMESTICA-SECRETARIA 1.100,00 0,00 450,00 0,00 0,00 0,00 0,00 0,00 0,00 31/07/2020
105 989400 ALESSANDRA DE CARVALHO PAULA ESTAGIARIO POCOS DE CALDAS; POCOS DE CALDAS-PJ-07PJ 0,00 0,00 0,00 189,00 0,00 0,00 0,00 0,00 0,00 31/07/2020
106 264400 ALESSANDRA DE SOUZA SANTOS ANALISTA DO MP BELO HORIZONTE - COMARCA; OUVIDORIA DO MPMG 1.100,00 0,00 450,00 0,00 0,00 0,00 0,00 0,00 0,00 31/07/2020
107 441500 ALESSANDRA DRUMMOND DE FIGUEIREDO ROSSI ANALISTA DO MP BELO HORIZONTE - COMARCA; DIRETORIA DE PROJETOS DE EDIFICACOES 1.100,00 0,00 450,00 0,00 0,00 0,00 0,00 0,00 0,00 31/07/2020
108 524000 ALESSANDRA LUCIOLI DE BARROS GUERRA ANALISTA DO MP BELO HORIZONTE - COMARCA; BH-19PJ SAUDE--SECRETARIA 1.100,00 0,00 450,00 0,00 0,00 0,00 0,00 0,00 0,00 31/07/2020
109 479900 ALESSANDRA MARA ANDRADE DE FARIA OFICIAL DO MP UBERABA - COMARCA; UBERABA-PJ-09PJ 1.100,00 0,00 450,00 0,00 0,00 0,00 0,00 0,00 0,00 31/07/2020
110 226700 ALESSANDRA MARA VASCONCELOS REZENDE OFICIAL DO MP CONSELHEIRO LAFAIETE - COMARCA; CONSELHEIRO LAFAIETE-PJ-07PJ 1.100,00 0,00 450,00 0,00 0,00 0,00 0,00 0,00 0,00 31/07/2020
111 112100 ALESSANDRA MARCIA FERREIRA OFICIAL DO MP BELO HORIZONTE - COMARCA; BELO HORIZONTE- SECRETARIA DAS PROMOTORIAS 1.100,00 0,00 450,00 0,00 0,00 0,00 0,00 0,00 0,00 31/07/2020
112 196500 ALESSANDRA MARIA RIBEIRO LUCIANO OFICIAL DO MP RIO PARANAÍBA - COMARCA; RIO PARANAIBA-PJ-UNPJ 1.100,00 0,00 450,00 0,00 0,00 0,00 0,00 0,00 0,00 31/07/2020
113 91400 ALESSANDRA MENDES VASCONCELOS DE SOUZA OFICIAL DO MP BELO HORIZONTE - COMARCA; BH-23PJ INF-FISC MED SOC AB 1.100,00 0,00 450,00 0,00 0,00 0,00 0,00 0,00 0,00 31/07/2020
114 989000 ALESSANDRA NEVES LEMOS ESTAGIARIO JOAO PINHEIRO; JOAO PINHEIRO-PJ-02PJ 0,00 0,00 0,00 0,00 923,83 0,00 0,00 0,00 0,00 31/07/2020
115 290500 ALESSANDRA PINTO CASSIANO PROMOTOR 2A ENTRANCIA BOA ESPERANÇA - COMARCA; BOA ESPERANCA-PJ-02PJ 1.100,00 0,00 1.279,20 0,00 11.735,04 0,00 0,00 0,00 488,96 31/07/2020
116 651700 ALESSANDRA PROFIRIO SOUZA OFICIAL DO MP NOVA ERA - COMARCA; NOVA ERA-PJ-UNPJ 1.100,00 0,00 450,00 0,00 0,00 0,00 0,00 0,00 0,00 31/07/2020
117 384900 ALESSANDRA RODRIGUES ANALISTA DO MP VISCONDE DO RIO BRANCO - COMARCA; VISCONDE DO RIO BRANCO-PJ-03PJ 1.100,00 1.538,78 450,00 0,00 0,00 0,00 0,00 0,00 0,00 31/07/2020
118 390000 ALESSANDRA SPADANO MASSARA VASCONCELOS OFICIAL DO MP BETIM - COMARCA; BETIM-PJ-10PJ 1.100,00 0,00 450,00 0,00 0,00 0,00 0,00 0,00 0,00 31/07/2020
119 426500 ALESSANDRO CAMPOS DE PAIVA ANALISTA DO MP BELO HORIZONTE - COMARCA; DIR CRIACAO E MIDIAS 1.100,00 0,00 450,00 0,00 0,00 0,00 0,00 0,00 0,00 31/07/2020
120 623400 ALESSANDRO DE OLIVEIRA REZENDE ANALISTA DO MP BELO HORIZONTE - COMARCA; DIRET DE INFORMACAO E CONHECIMENTO-DINC/CEAF 1.100,00 0,00 450,00 0,00 0,00 0,00 0,00 0,00 0,00 31/07/2020
121 174100 ALESSANDRO GARCIA SILVA PROMOT.ENTRANC.ESPECIAL DIVINÓPOLIS - COMARCA; DIVINOPOLIS-PJ-12PJ 1.100,00 0,00 2.387,84 0,00 5.614,85 0,00 0,00 0,00 514,69 31/07/2020
122 308201 ALESSANDRO RAMOS MACHADO PROMOTOR 2A ENTRANCIA ALFENAS - COMARCA; ALFENAS-PJ-04PJ 1.100,00 0,00 2.558,40 0,00 5.334,11 0,00 0,00 0,00 488,96 31/07/2020
123 665700 ALESSANDRO ROGERIO DIAS DE OLIVEIRA PROMOTOR 2A ENTRANCIA JANUÁRIA - COMARCA; JANUARIA-PJ-02PJ 1.100,00 0,00 1.193,92 0,00 0,00 0,00 0,00 0,00 0,00 31/07/2020
124 420600 ALESSANDRO SILVA OFICIAL DO MP VISCONDE DO RIO BRANCO - COMARCA; VISCONDE DO RIO BRANCO-PJ-02PJ 1.100,00 0,00 450,00 0,00 0,00 0,00 0,00 0,00 0,00 31/07/2020
125 171100 ALESSIA ALVES DE ALVARENGA SANTA BARBARA PROMOT.ENTRANC.ESPECIAL CONSELHEIRO LAFAIETE - COMARCA; CONSELHEIRO LAFAIETE-PJ-06PJ 1.100,00 0,00 3.368,91 0,00 12.352,67 0,00 0,00 0,00 514,69 31/07/2020
126 57800 ALESSIO GUIMARAES PROCURADOR DE JUSTICA BELO HORIZONTE - COMARCA; GABINETE DE PROCURADOR DE JUSTIÇA - SALA 508 1.100,00 0,00 2.345,18 0,00 5.910,37 0,00 0,00 0,00 541,78 31/07/2020
127 375301 ALETHEIA PATRICIA ASSIS MORAIS MOREIRA ANALISTA DO MP ITABIRA - COMARCA; ITABIRA-PJ-02PJ 1.100,00 1.538,78 450,00 0,00 0,00 0,00 0,00 0,00 0,00 31/07/2020
128 949200 ALEX ALVES DA SILVA ESTAGIARIO ABRE CAMPO; ABRE CAMPO-PJ-01PJ
129 382300 ALEX CARVALHO LIMA ANALISTA DO MP UBERLÂNDIA - COMARCA; UBERLANDIA-PJ-14PJ 1.100,00 0,00 450,00 0,00 0,00 0,00 0,00 0,00 0,00 31/07/2020
130 195201 ALEX DE CASTRO PEREIRA ANALISTA DO MP UBERABA - COMARCA; UBERABA-PJ-09PJ 1.100,00 0,00 450,00 0,00 0,00 0,00 0,00 0,00 0,00 31/07/2020
131 358900 ALEX DE PAULA LANZA ASSESSOR BELO HORIZONTE - COMARCA; DIR CONTEUDO JORNALISTICO 1.100,00 769,39 450,00 0,00 0,00 0,00 0,00 0,00 0,00 31/07/2020
132 935600 ALEX FERNANDES MODESTO ESTAGIARIO RIBEIRAO DAS NEVES; SEC PJ EXECUCAO PENAL RIBEIRAO NEVES
133 171400 ALEX FERNANDES SANTIAGO PROMOT.ENTRANC.ESPECIAL JUIZ DE FORA - COMARCA; JUIZ DE FORA-PJ-08PJ 1.100,00 0,00 1.641,64 0,00 5.614,85 0,00 0,00 0,00 514,69 31/07/2020
134 931200 ALEX LUIGI SANTOS RAJAO ESTAGIARIO BELO HORIZONTE; PROC. JUSTICA CRIMINAL 0,00 0,00 0,00 18,00 0,00 0,00 0,00 0,00 0,00 31/07/2020
135 178400 ALEX RODRIGO SALDANHA GUIMARAES OFICIAL DO MP BELO HORIZONTE - COMARCA; DIRETORIA DE SISTEMAS DE INFORMACAO 1.100,00 0,00 450,00 0,00 0,00 0,00 0,00 0,00 0,00 31/07/2020
136 314100 ALEX SOARES NACIF PROMOT.ENTRANC.ESPECIAL CONTAGEM - COMARCA; CONTAGEM-PJ-15PJ 1.100,00 0,00 895,44 0,00 0,00 0,00 0,00 0,00 0,00 31/07/2020
137 413500 ALEX VILELA OLIVEIRA ANALISTA DO MP GOVERNADOR VALADARES - COMARCA; COORD REG PJ DEF EDU DIR CRIANCA ADOL RIODOCE 1.100,00 0,00 450,00 0,00 0,00 0,00 0,00 0,00 0,00 31/07/2020
138 264300 ALEXANDRA FATIMA SARAIVA SOARES ANALISTA DO MP BELO HORIZONTE - COMARCA; CENTRAL DE APOIO TECN-SETOR DE MEIO AMBIENTE 1.100,00 0,00 450,00 0,00 0,00 0,00 0,00 0,00 0,00 31/07/2020
139 488000 ALEXANDRA LARA PAIS DE CARVALHO ANALISTA DO MP SERRO - COMARCA; SERRO-PJ-UNPJ 1.100,00 0,00 450,00 0,00 0,00 0,00 0,00 0,00 0,00 31/07/2020
140 256300 ALEXANDRA SANTOS GOMES OFICIAL DO MP BELO HORIZONTE - COMARCA; DIRETORIA GESTAO COMPRAS LICITACOES 1.100,00 0,00 450,00 0,00 0,00 0,00 0,00 0,00 0,00 31/07/2020
141 236300 ALEXANDRE ALVES DE OLIVEIRA PROMOT.ENTRANC.ESPECIAL BELO HORIZONTE - COMARCA; BH-12PJ JUIZO CRIMINAL-GAB 108PJ 1.100,00 0,00 980,72 0,00 12.352,67 0,00 0,00 0,00 514,69 31/07/2020
142 403300 ALEXANDRE AUGUSTO RODRIGUES ANALISTA DO MP ÁGUAS FORMOSAS - COMARCA; AGUAS FORMOSAS-PJ-UNPJ 1.100,00 769,39 450,00 0,00 0,00 0,00 0,00 0,00 0,00 31/07/2020
143 640900 ALEXANDRE BARBOSA MASCARENHAS ANALISTA DO MP BETIM - COMARCA; BETIM-PJ-02PJ 1.100,00 0,00 450,00 0,00 0,00 0,00 0,00 0,00 0,00 31/07/2020
144 311700 ALEXANDRE BARCELOS RESENDE OFICIAL DO MP BELO HORIZONTE - COMARCA; BH-19PJ SAUDE-SECRETARIA 047PJ 1.100,00 769,39 450,00 0,00 0,00 0,00 0,00 0,00 0,00 31/07/2020
145 293700 ALEXANDRE BRASILEIRO DE QUEIROZ PROMOT.ENTRANC.ESPECIAL BELO HORIZONTE - COMARCA; BH-12PJ JUIZO CRIMINAL-GAB 092PJ 1.100,00 0,00 2.643,68 0,00 12.352,67 0,00 0,00 0,00 514,69 31/07/2020
146 285600 ALEXANDRE CAMPOS DE OLIVEIRA OFICIAL DO MP UBERABA - COMARCA; COORD REG BACIAS PARANAIBA BAIXO RIO GRANDE 1.100,00 0,00 450,00 0,00 0,00 0,00 0,00 0,00 0,00 31/07/2020
147 509200 ALEXANDRE CAPUANO DE REZENDE ANALISTA DO MP BELO HORIZONTE - COMARCA; GABINETE DE PROCURADOR DE JUSTIÇA - SALA 715 1.100,00 0,00 450,00 0,00 0,00 0,00 0,00 0,00 0,00 31/07/2020
148 229400 ALEXANDRE CARLOS BOTREL DIRETOR/OFICIAL BELO HORIZONTE - COMARCA; SUPERINTENDENCIA DOS ORGAOS COLEGIADOS 1.100,00 0,00 450,00 0,00 0,00 0,00 0,00 0,00 0,00 31/07/2020
149 411900 ALEXANDRE CARVALHO SANTOS RIBEIRO ANALISTA DO MP OLIVEIRA - COMARCA; OLIVEIRA-PJ-02PJ 1.100,00 1.538,78 450,00 0,00 0,00 0,00 0,00 0,00 0,00 31/07/2020
150 641600 ALEXANDRE DA SILVA ASSUNCAO OFICIAL DO MP BELO HORIZONTE - COMARCA; SERVICO MEDICO-DEPTO PERIC MEDICA SAUDE OCUP 1.100,00 0,00 450,00 0,00 0,00 0,00 0,00 0,00 0,00 31/07/2020
151 201200 ALEXANDRE DE ALENCAR CORDEIRO OFICIAL DO MP ÁGUAS FORMOSAS - COMARCA; AGUAS FORMOSAS-PJ-UNPJ 1.100,00 0,00 450,00 0,00 0,00 0,00 0,00 0,00 0,00 31/07/2020
152 288200 ALEXANDRE DE VASCONCELOS COSTA KER ANALISTA DO MP BELO HORIZONTE - COMARCA; BH-03PJ EMPRESARIAL-SECRETARIA 1.100,00 0,00 450,00 0,00 0,00 0,00 0,00 0,00 0,00 31/07/2020
153 445000 ALEXANDRE DIOGENES OLIVEIRA ANALISTA DO MP SALINAS - COMARCA; SALINAS-PJ-02PJ 1.100,00 769,39 450,00 0,00 0,00 0,00 0,00 0,00 0,00 31/07/2020
154 1032000 ALEXANDRE EVARISTO CUNHA BARBOSA ESTAGIARIO CAPELINHA; CAPELINHA-PJ-01PJ
155 665800 ALEXANDRE FIGUEIREDO MORATO PROMOTOR 2A ENTRANCIA GUANHÃES - COMARCA; GUANHAES-PJ-01PJ 1.100,00 0,00 703,56 0,00 5.334,11 0,00 0,00 0,00 488,96 31/07/2020
156 463400 ALEXANDRE LEAL WINKELSTROTER ANALISTA DO MP TEÓFILO OTONI - COMARCA; TEOFILO OTONI-PJ-04PJ 1.100,00 0,00 450,00 0,00 0,00 0,00 0,00 0,00 0,00 31/07/2020
157 96600 ALEXANDRE LIBERO BARONI PROMOT.ENTRANC.ESPECIAL SETE LAGOAS - COMARCA; SETE LAGOAS-PJ-04PJ 1.100,00 0,00 2.579,71 0,00 12.352,67 0,00 0,00 0,00 514,69 31/07/2020
158 615700 ALEXANDRE LUIZ DE CASTRO MACIEL ANALISTA DO MP IBIRITÉ - COMARCA; IBIRITE-PJ-02PJ 1.100,00 0,00 450,00 0,00 0,00 0,00 0,00 0,00 0,00 31/07/2020
159 356900 ALEXANDRE MOISES MENDONCA E ARAUJO OFICIAL DO MP UBERABA - COMARCA; UBERABA-PJ-13PJ 1.100,00 0,00 450,00 0,00 0,00 0,00 0,00 0,00 0,00 31/07/2020
160 232100 ALEXANDRE MOTTA BENEVIDES PROMOT.ENTRANC.ESPECIAL BELO HORIZONTE - COMARCA; BH-12PJ JUIZO CRIMINAL-GAB 094PJ 1.100,00 0,00 2.217,28 0,00 5.614,85 0,00 0,00 0,00 514,69 31/07/2020
161 633300 ALEXANDRE NONATO MARTINS OFICIAL DO MP IGARAPÉ - COMARCA; IGARAPE-PJ-02PJ 1.100,00 0,00 450,00 0,00 0,00 0,00 0,00 0,00 0,00 31/07/2020
162 469900 ALEXANDRE PEREIRA GUEDES ANALISTA DO MP CATAGUASES - COMARCA; CATAGUASES-PJ-03PJ 1.100,00 0,00 450,00 0,00 0,00 0,00 0,00 0,00 0,00 31/07/2020
163 208700 ALEXANDRE RESENDE FRAGA ANALISTA DO MP BELO HORIZONTE - COMARCA; BH-19PJ SAUDE-SECRETARIA 130PJ 1.100,00 0,00 450,00 0,00 0,00 0,00 0,00 0,00 0,00 31/07/2020
164 156900 ALEXANDRE REZENDE GRILLO PROMOTOR 2A ENTRANCIA SÃO GONÇALO DO SAPUCAÍ - COMARCA; SAO GONCALO DO SAPUCAI-PJ-02PJ 1.100,00 0,00 2.686,32 0,00 11.735,04 0,00 0,00 0,00 488,96 31/07/2020
165 216401 ALEXANDRE RIBEIRO DE LIMA MAIORINO ANALISTA DO MP UBERABA - COMARCA; UBERABA-PJ-03PJ 1.100,00 0,00 450,00 0,00 0,00 0,00 0,00 0,00 0,00 31/07/2020
166 475100 ALEXANDRE TEOTONIO COSTA ANALISTA DO MP ARAGUARI - COMARCA; ARAGUARI-PJ-01PJ 1.100,00 0,00 450,00 0,00 0,00 0,00 0,00 0,00 0,00 31/07/2020
167 339000 ALEXANDRE VITOR CARDOSO OFICIAL DO MP BELO HORIZONTE - COMARCA; PROMOT ESTADUAL DE DEF PATRI CULT E TUR DE MG 1.100,00 0,00 450,00 0,00 0,00 0,00 0,00 0,00 0,00 31/07/2020
168 1088900 ALEXANDRE VITOR FONSECA ALVES ESTAGIARIO BELO HORIZONTE; BH-19PJ SAUDE-RECEPCAO 0,00 0,00 0,00 27,00 0,00 0,00 0,00 0,00 0,00 31/07/2020
169 623100 ALEXSANDER BATISTA AGUIAR ANALISTA DO MP BELO HORIZONTE - COMARCA; DIRETORIA DE SUPORTE E MANUTENCAO 1.100,00 769,39 450,00 0,00 0,00 0,00 0,00 0,00 0,00 31/07/2020
170 936600 ALEXSANDER RICARDO DE ALMEIDA FELIX ESTAGIARIO ITABIRA; ITABIRA-PJ-01PJ 0,00 0,00 0,00 81,00 0,00 0,00 0,00 0,00 0,00 31/07/2020
171 513300 ALFSON MIRANDA BRAGA ANALISTA DO MP BELO HORIZONTE - COMARCA; BH-12PJ JUIZO CRIMINAL-GAB 092PJ 1.100,00 0,00 450,00 0,00 0,00 0,00 0,00 0,00 0,00 31/07/2020
172 157000 ALI MAHMOUD FAYEZ AYOUB PROMOTOR 2A ENTRANCIA GUAXUPÉ - COMARCA; GUAXUPE-PJ-02PJ 1.100,00 0,00 2.686,32 0,00 11.735,04 0,00 0,00 0,00 488,96 31/07/2020
173 485300 ALICE DE MELLO VILELA PROMOT.ENTRANC.ESPECIAL CONTAGEM - COMARCA; CONTAGEM-PJ-06PJ 1.100,00 0,00 852,80 0,00 5.614,85 0,00 0,00 0,00 514,69 31/07/2020
174 618400 ALICE MAGALHAES MACEDO DE CARVALHO ANALISTA DO MP IPATINGA - COMARCA; IPATINGA-PJ-10PJ 1.100,00 769,39 450,00 0,00 0,00 0,00 0,00 0,00 0,00 31/07/2020
175 882300 ALICE MARIA RIBEIRO DINIZ ESTAGIARIO BELO HORIZONTE; BH-13PJ JUIZO DE TOXICOS-GAB 149PJ 0,00 0,00 0,00 180,00 0,00 0,00 0,00 0,00 0,00 31/07/2020
176 1128600 ALICE OLIVEIRA BOTTARO ESTAGIARIO BELO HORIZONTE; PROMOT ESTADUAL DE DEF PATRI CULT E TUR DE MG
177 1122700 ALICE OLIVEIRA CAPANEMA ESTAGIARIO BELO HORIZONTE; COORD DE INCLUSAO E MOBILIZACAO SOCIAIS
178 471000 ALICE TITONELI MOREIRA ANALISTA DO MP MIRADOURO - COMARCA; MIRADOURO-PJ-UNPJ 1.100,00 769,39 450,00 0,00 0,00 0,00 0,00 0,00 0,00 31/07/2020
179 1138500 ALINE ARAUJO GONCALVES DE SOUZA ESTAGIARIO BELO HORIZONTE; BH-25PJ DEFESA DA EDUCAÇÃO
180 622400 ALINE BALBINO PORTUGAL LOPES ANALISTA DO MP TRÊS PONTAS - COMARCA; TRES PONTAS-PJ-03PJ 1.100,00 769,39 450,00 0,00 0,00 0,00 0,00 0,00 0,00 31/07/2020
181 373000 ALINE BOTELHO RESENDE OFICIAL DO MP JUIZ DE FORA - COMARCA; JUIZ DE FORA-PJ-22PJ 1.100,00 0,00 450,00 0,00 0,00 0,00 0,00 0,00 0,00 31/07/2020
182 1036800 ALINE CRISTIANE MENDONCA GONCALVES ESTAGIARIO BELO HORIZONTE; PROC. JUSTICA DIR. DIFUSOS E COLETIVOS
183 929900 ALINE CRISTINA DE OLIVEIRA AMARAL BARBOSA ESTAGIARIO BELO HORIZONTE; CONSELHO SUPERIOR DO MINISTERIO PUBLICO
184 407700 ALINE CRISTINA RODRIGUES PEREIRA COORDENADOR/ANALISTA BELO HORIZONTE - COMARCA; DIRETORIA DE PROJETOS DE EDIFICACOES 1.100,00 769,39 450,00 0,00 0,00 0,00 0,00 0,00 0,00 31/07/2020
185 193100 ALINE CRISTINA SENA OLIVEIRA OFICIAL DO MP UBERLÂNDIA - COMARCA; UBERLANDIA-PJ-03PJ 1.100,00 769,39 450,00 0,00 0,00 0,00 0,00 0,00 0,00 31/07/2020
186 554200 ALINE CRISTINA SILVA SOUZA OFICIAL DO MP TIROS - COMARCA; TIROS-PJ-UNPJ 1.100,00 0,00 450,00 0,00 0,00 0,00 0,00 0,00 0,00 31/07/2020
187 505500 ALINE DA CUNHA MARREIROS OLIVEIRA ANALISTA DO MP CARANGOLA - COMARCA; CARANGOLA-PJ-03PJ 1.100,00 769,39 450,00 0,00 0,00 0,00 0,00 0,00 0,00 31/07/2020
188 433500 ALINE DE MELO QUEIROZ ASSESSOR/OFICIAL BELO HORIZONTE - COMARCA; ASSESSORIA TECNICA DO PROCON-MG 1.100,00 769,39 450,00 0,00 0,00 0,00 0,00 0,00 0,00 31/07/2020
189 935200 ALINE DE PAULA BRAGA ESTAGIARIO TRES PONTAS; TRES PONTAS-PJ-03PJ 0,00 0,00 0,00 36,00 0,00 0,00 0,00 0,00 0,00 31/07/2020
190 542700 ALINE DE SOUSA ALBINO ANALISTA DO MP CARMO DO PARANAÍBA - COMARCA; CARMO DO PARANAIBA-PJ-01PJ 1.100,00 0,00 450,00 0,00 0,00 0,00 0,00 0,00 0,00 31/07/2020
191 330000 ALINE DIORIO MAYRINK OFICIAL DO MP BELO HORIZONTE - COMARCA; BH-18PJ DIREITOS HUMANOS-SECRETARIA 1.100,00 0,00 450,00 0,00 0,00 0,00 0,00 0,00 0,00 31/07/2020
192 1113300 ALINE FERREIRA GOMES DE ALMEIDA ESTAGIARIO BELO HORIZONTE; BH-02PJ FAMILIA-GAB 029PJ
193 499000 ALINE FERREIRA LOPES ANALISTA DO MP TEÓFILO OTONI - COMARCA; COORD. DE DEF. DO PAT. PUBLICO-JEQUIT./MUCURI 1.100,00 0,00 450,00 0,00 0,00 0,00 0,00 0,00 0,00 31/07/2020
194 903400 ALINE FERRETI PEREIRA BRUNO MEIRA ESTAGIARIO CARANGOLA; CARANGOLA-PJ-02PJ 0,00 0,00 0,00 81,00 0,00 0,00 0,00 0,00 0,00 31/07/2020
195 925700 ALINE FREITAS FERREIRA ESTAGIARIO GOVERNADOR VALADARES; COORD REG DO MA DA BACIA DO RIO DOCE
196 405300 ALINE LAIA CARDOZO DIRETOR/ANALISTA BELO HORIZONTE - COMARCA; SUPERINTENDENCIA LOGISTICA SERVICOS 1.100,00 0,00 450,00 0,00 0,00 0,00 0,00 0,00 0,00 31/07/2020
197 910500 ALINE LOPES NUNES ESTAGIARIO MANTENA; MANTENA-PJ-02PJ 0,00 0,00 0,00 72,00 0,00 0,00 0,00 0,00 0,00 31/07/2020
198 974900 ALINE LUIZA DE OLIVEIRA LYRIO ESTAGIARIO BELO HORIZONTE; PROC. JUSTICA CRIMINAL
199 278200 ALINE MARCIA FARIA BARBOSA FERNANDES OFICIAL DO MP BARBACENA - COMARCA; BARBACENA-PJ-SECRETARIA 1.100,00 0,00 450,00 0,00 0,00 0,00 0,00 0,00 0,00 31/07/2020
200 1091400 ALINE MARIA MARTINS SILVA ESTAGIARIO FORMIGA; FORMIGA-PJ-01PJ 0,00 0,00 0,00 144,00 0,00 0,00 0,00 0,00 0,00 31/07/2020
201 389000 ALINE NERI NOBRE ANALISTA DO MP MONTES CLAROS - COMARCA; COORD REG PJ DEF EDUC DIR CRIANCA ADOL NORTE 1.100,00 0,00 450,00 0,00 0,00 0,00 0,00 0,00 0,00 31/07/2020
202 1138600 ALINE OLIVEIRA DE FATIMA ESTAGIARIO PARACATU; GAECO REGIONAL DE PARACATU 0,00 0,00 0,00 144,00 0,00 0,00 0,00 0,00 0,00 31/07/2020
203 294600 ALINE PATRICIA SILVA VIEIRA OFICIAL DO MP UBERLÂNDIA - COMARCA; UBERLANDIA-PJ-03PJ 1.100,00 0,00 450,00 0,00 0,00 0,00 1.445,27 0,00 0,00 31/07/2020
204 420000 ALINE RODRIGUES CAMOROPIN ANALISTA DO MP SABARÁ - COMARCA; SABARA-PJ-02PJ 1.100,00 0,00 450,00 0,00 0,00 0,00 0,00 0,00 0,00 31/07/2020
205 408300 ALINE SILVA ARAUJO DE PAULA ANALISTA DO MP SÃO SEBASTIÃO DO PARAÍSO - COMARCA; SAO SEBASTIAO DO PARAISO-PJ-02PJ 1.100,00 769,39 450,00 0,00 0,00 0,00 0,00 0,00 0,00 31/07/2020
206 665900 ALINE SILVA BARROS PROMOTOR SUBSTITUTO OURO PRETO - COMARCA; OURO PRETO-PJ-02PJ 1.100,00 0,00 703,56 0,00 5.067,40 0,00 0,00 0,00 464,51 31/07/2020
207 1138200 ALINE STEFANE DE OLIVEIRA ASSUNCAO ESTAGIARIO BELO HORIZONTE; BH-23PJ INFRACIONAL 0,00 0,00 0,00 36,00 0,00 0,00 0,00 0,00 0,00 31/07/2020
208 425400 ALINE TRINDADE DE FREITAS CAMPOS OFICIAL DO MP BELO HORIZONTE - COMARCA; BH-14PJ DEFESA CONSUMIDOR-SECRETARIA 1.100,00 0,00 450,00 0,00 0,00 0,00 0,00 0,00 0,00 31/07/2020
209 1111700 ALINI PEREIRA DE ALMEIDA ESTAGIARIO VICOSA; VICOSA-PJ-03PJ 0,00 0,00 0,00 90,00 0,00 0,00 0,00 0,00 0,00 31/07/2020
210 1077600 ALINY SANTOS ARRUDA ESTAGIARIO BELO HORIZONTE; BH-13PJ JUIZO DE TOXICOS-GAB 149PJ 0,00 0,00 0,00 9,00 0,00 0,00 0,00 0,00 0,00 31/07/2020
211 517200 ALISSOM PEREIRA DA SILVA ANALISTA DO MP BORDA DA MATA - COMARCA; BORDA DA MATA-PJ-UNPJ 1.100,00 0,00 450,00 0,00 0,00 0,00 0,00 0,00 0,00 31/07/2020
212 442400 ALISSON LABRE ANALISTA DO MP VARGINHA - COMARCA; VARGINHA-PJ-02PJ 1.100,00 769,39 450,00 0,00 0,00 0,00 0,00 0,00 0,00 31/07/2020
213 962100 ALISSON PATROCINIO DE OLIVEIRA ESTAGIARIO VARZEA DA PALMA; VARZEA DA PALMA-PJ-02PJ
214 992500 ALISSON VINICIUS IDELFONSO GOUVEA ESTAGIARIO NOVA LIMA; NOVA LIMA-PJ-04PJ
215 643800 ALLAN PAUL FONSECA DE CASTRO OFICIAL DO MP CONTAGEM - COMARCA; CONTAGEM-PJ-06PJ 1.100,00 1.538,78 450,00 0,00 0,00 0,00 0,00 0,00 0,00 31/07/2020
216 612900 ALLAN VINICIUS VIEIRA ARAUJO COORDENADOR/OFICIAL BELO HORIZONTE - COMARCA; DIVISAO TRANSPORTES 1.100,00 0,00 450,00 0,00 0,00 0,00 0,00 0,00 0,00 31/07/2020
217 1081200 ALLANA RODRIGUES DA CRUZ ESTAGIARIO PEDRA AZUL; PEDRA AZUL-PJ-01PJ 0,00 0,00 0,00 54,00 0,00 0,00 0,00 0,00 0,00 31/07/2020
218 349000 ALLEC RODRIGUES VIEIRA OFICIAL DO MP BELO HORIZONTE - COMARCA; EXTINTA-COORD EST DEF DIR FAM PES DEFIC IDOSO 1.100,00 0,00 450,00 0,00 0,00 0,00 0,00 0,00 0,00 31/07/2020
219 532400 ALLENDER BARRETO LIMA DA SILVA PROMOTOR 1A ENTRANCIA ABAETÉ - COMARCA; ABAETE-PJ-UNPJ 1.100,00 0,00 746,20 0,00 0,00 0,00 0,00 0,00 0,00 31/07/2020
220 297300 ALLYSON SALIBA MONTEIRO LAIZO ANALISTA DO MP CONSELHEIRO LAFAIETE - COMARCA; CONSELHEIRO LAFAIETE-PJ-03PJ 1.100,00 1.538,78 450,00 0,00 0,00 0,00 0,00 0,00 0,00 31/07/2020
221 68900 ALMIR ALVES MOREIRA PROCURADOR DE JUSTICA BELO HORIZONTE - COMARCA; GABINETE DE PROCURADOR DE JUSTIÇA - SALA 1012 1.100,00 0,00 2.451,78 0,00 13.002,81 0,00 0,00 0,00 541,78 31/07/2020
222 226601 ALMIR GERALDO GUIMARAES PROMOTOR 2A ENTRANCIA MATEUS LEME - COMARCA; MATEUS LEME-PJ-02PJ 1.100,00 0,00 2.132,00 0,00 5.334,11 0,00 0,00 0,00 488,96 31/07/2020
223 303700 ALMIR LOPES LOURES ANALISTA DO MP BELO HORIZONTE - COMARCA; CENTRAL DE APOIO TECN-SETOR DE MEIO AMBIENTE 1.100,00 0,00 450,00 0,00 0,00 0,00 0,00 0,00 0,00 31/07/2020
224 440700 ALOISIO CUNHA SOARES JUNIOR PROMOTOR 2A ENTRANCIA PATROCÍNIO - COMARCA; PATROCINIO-PJ-04PJ 1.100,00 0,00 2.141,16 0,00 5.334,11 0,00 0,00 0,00 488,96 31/07/2020
225 90600 ALOISIO RABELO DE REZENDE PROMOT.ENTRANC.ESPECIAL VARGINHA - COMARCA; VARGINHA-PJ-01PJ 1.100,00 0,00 2.473,12 0,00 5.614,85 0,00 0,00 0,00 514,69 31/07/2020
226 515900 ALTAIR NEVES JUNIOR OFICIAL DO MP BELO HORIZONTE - COMARCA; BH-01PJ FAZENDA PUBLICA-SECRETARIA 1.100,00 0,00 450,00 0,00 0,00 0,00 0,00 0,00 0,00 31/07/2020
227 290800 ALUISIA BERALDO RIBEIRO PROMOT.ENTRANC.ESPECIAL UBERLÂNDIA - COMARCA; UBERLANDIA-PJ-14PJ 1.100,00 0,00 1.321,84 0,00 5.614,85 0,00 0,00 0,00 514,69 31/07/2020
228 233300 ALVARINDO BATISTA ANALISTA DO MP BELO HORIZONTE - COMARCA; NUCLEO APOIO TECNICO ESP COMUNICACAO 1.100,00 769,39 450,00 0,00 0,00 0,00 0,00 0,00 0,00 31/07/2020
229 952300 ALVARO EPIFANIO GOMES JUNIOR ESTAGIARIO ITABIRA; ITABIRA-PJ-04PJ 0,00 0,00 0,00 54,00 0,00 0,00 0,00 0,00 0,00 31/07/2020
230 344400 ALYSSON CARDOZO CEMBRANEL PROMOTOR 2A ENTRANCIA UNAÍ - COMARCA; UNAI-PJ-03PJ 1.100,00 0,00 1.556,36 0,00 5.334,11 0,00 0,00 0,00 488,96 31/07/2020
231 274100 ALYSSON CARVALHO VIDAL DE LACERDA OFICIAL DO MP MANHUAÇU - COMARCA; MANHUACU-PJ-01PJ 1.100,00 0,00 450,00 0,00 0,00 0,00 0,00 0,00 0,00 31/07/2020
232 994300 AMALIA GUERRA DELGADO ARMANDO ESTAGIARIO BELO HORIZONTE; CAO-CRIMINAL-GABINETES
233 887000 AMANDA AUGUSTA SILVA DE SOUZA ESTAGIARIO BELO HORIZONTE; BH-02PJ FAMILIA-GAB 015PJ
234 621000 AMANDA BASTOS ALVES ANALISTA DO MP BELO HORIZONTE - COMARCA; ASSESS TECNICO-JUR JUNTO AS PROC. DE JUST 1.100,00 0,00 450,00 0,00 0,00 0,00 0,00 0,00 0,00 31/07/2020
235 868200 AMANDA BRANDAO GILBERD ESTAGIARIO ITAJUBA; ITAJUBA-PJ-02PJ 0,00 0,00 0,00 9,00 602,50 0,00 0,00 0,00 0,00 31/07/2020
236 1021300 AMANDA BRISSA BONILLA ARRUDA ESTAGIARIO BELO HORIZONTE; BH-12PJ JUIZO CRIMINAL-GAB 095PJ
237 1041500 AMANDA CALDEIRA DE OLIVEIRA ESTAGIARIO BELO HORIZONTE; SUPERINTENDÊNCIA DE ENGENHARIA E ARQUITETURA
238 521700 AMANDA CRISTINA AGUIAR MACHADO OFICIAL DO MP CONGONHAS - COMARCA; CONGONHAS-PJ-01PJ 1.100,00 0,00 450,00 0,00 0,00 0,00 0,00 0,00 0,00 31/07/2020
239 1039800 AMANDA CRISTINA ALVES SANTOS ESTAGIARIO JOAO MONLEVADE; JOAO MONLEVADE-PJ-01PJ
240 1086900 AMANDA CRISTINA FERREIRA DE SOUSA ESTAGIARIO VESPASIANO; VESPASIANO-PJ-06PJ
241 613400 AMANDA DE ASSIS IUNES SANTOS ANALISTA DO MP CONGONHAS - COMARCA; CONGONHAS-PJ-01PJ 1.100,00 282,11 450,00 0,00 0,00 0,00 0,00 0,00 0,00 31/07/2020
242 520800 AMANDA DE SOUZA MACHADO ANALISTA DO MP BAEPENDI - COMARCA; BAEPENDI-PJ-UNPJ 1.100,00 0,00 450,00 0,00 0,00 0,00 0,00 0,00 0,00 31/07/2020
243 663900 AMANDA DENISE GONCALVES DA SILVA ASSESSOR BELO HORIZONTE - COMARCA; DIRET DE FORMACAO, APERFEIC. E POS-GRADUACAO 1.100,00 0,00 450,00 0,00 0,00 0,00 0,00 0,00 0,00 31/07/2020
244 1124800 AMANDA DIAS RUAS ESTAGIARIO SAO FRANCISCO; SAO FRANCISCO-PJ-01PJ 0,00 0,00 0,00 0,00 401,67 0,00 0,00 0,00 0,00 31/07/2020
245 1095700 AMANDA DOS SANTOS FERREIRA ESTAGIARIO MONTES CLAROS; MONTES CLAROS-PJ-14PJ 0,00 0,00 0,00 72,00 0,00 0,00 0,00 0,00 0,00 31/07/2020
246 928600 AMANDA DUTRA DE REZENDE ANTUNES ESTAGIARIO BELO HORIZONTE; BH-01PJ FAZENDA PUBLICA-GAB 008PJ
247 1086600 AMANDA EMERICK DA SILVA ESTAGIARIO MANHUMIRIM; MANHUMIRIM-PJ-01PJ 0,00 0,00 0,00 27,00 0,00 0,00 0,00 0,00 0,00 31/07/2020
248 1153000 AMANDA GIL DE SOUZA ESTAGIARIO MONTES CLAROS; MONTES CLAROS-PJ-09PJ 0,00 0,00 0,00 27,00 0,00 0,00 0,00 0,00 0,00 31/07/2020
249 1027600 AMANDA GOMES BARBOSA ESTAGIARIO VARGINHA; VARGINHA-PJ-06PJ 0,00 0,00 0,00 90,00 0,00 0,00 0,00 0,00 0,00 31/07/2020
250 1054100 AMANDA GONCALVES DE ALMEIDA ESTAGIARIO BELO HORIZONTE; COORD DE INCLUSAO E MOBILIZACAO SOCIAIS
251 1109500 AMANDA GONCALVES RIBEIRO DE ASSIS ESTAGIARIO SAO JOAO DEL REI; SAO JOAO DEL REI-PJ-06PJ 0,00 0,00 0,00 27,00 0,00 0,00 0,00 0,00 0,00 31/07/2020
252 1059400 AMANDA GONTIJO DE LACERDA ESTAGIARIO PATOS DE MINAS; PATOS DE MINAS-PJ-06PJ
253 1014500 AMANDA MACHADO SOUZA ESTAGIARIO PASSOS; PASSOS-PJ-06PJ
254 1014600 AMANDA MAGALHAES DE CARVALHO E SILVA ESTAGIARIO BELO HORIZONTE; PROC. JUSTICA CIVEL
255 937900 AMANDA MARIA THOMAZ DE LIMA ESTAGIARIO SETE LAGOAS; SETE LAGOAS-PJ-10PJ 0,00 0,00 0,00 27,00 0,00 0,00 0,00 0,00 0,00 31/07/2020
256 666000 AMANDA MERLINI DUTRA OSIPE PROMOTOR SUBSTITUTO CATAGUASES - COMARCA; CATAGUASES-PJ-01PJ 1.100,00 0,00 1.407,12 0,00 0,00 0,00 0,00 0,00 0,00 31/07/2020
257 1040700 AMANDA PEREIRA DA SILVA ESTAGIARIO BELO HORIZONTE; BH-08PJ JUIZADO ESPECIAL-GAB 168PJ
258 1076900 AMANDA PEREIRA MACEDO ESTAGIARIO UBERLANDIA; UBERLANDIA-PJ-20PJ 0,00 0,00 0,00 18,00 0,00 0,00 0,00 0,00 0,00 31/07/2020
259 1093100 AMANDA REGINA DE ALMEIDA E SILVA ESTAGIARIO JUIZ DE FORA; JUIZ DE FORA-PJ-02PJ
260 964800 AMANDA REIS DA SILVA ESTAGIARIO BELO HORIZONTE; BH-19PJ SAUDE-SECRETARIA 129PJ 0,00 0,00 0,00 9,00 0,00 0,00 0,00 0,00 0,00 31/07/2020
261 903000 AMANDA RESENDE DE SOUSA ESTAGIARIO MONTE SANTO DE MINAS; MONTE SANTO DE MINAS-PJ-UNPJ 0,00 0,00 0,00 162,00 0,00 0,00 0,00 0,00 0,00 31/07/2020
262 1071000 AMANDA SALIS LOTT ESTAGIARIO BELO HORIZONTE; BH-15PJ M AMB PAT HIST CULT-GAB 115PJ
263 1100000 AMANDA SANTOS DIAS ESTAGIARIO ERVALIA; ERVALIA-PJ-UNPJ 0,00 0,00 0,00 99,00 0,00 0,00 0,00 0,00 0,00 31/07/2020
264 932700 AMANDA SILVA MAMEDE ESTAGIARIO UBERLANDIA; UBERLANDIA-PJ-10PJ 0,00 0,00 0,00 45,00 0,00 0,00 0,00 0,00 0,00 31/07/2020
265 951000 AMANDA TEIXEIRA IZIDORIO ESTAGIARIO RIO CASCA; RIO CASCA-PJ-UNPJ 0,00 0,00 0,00 54,00 0,00 0,00 0,00 0,00 0,00 31/07/2020
266 543100 AMANDA VIEIRA FREITAS BRESSANE ANALISTA DO MP PARAGUAÇU - COMARCA; PARAGUACU-PJ-UNPJ 1.100,00 0,00 450,00 0,00 0,00 0,00 0,00 0,00 0,00 31/07/2020
267 1024900 AMANDA XAVIER DA COSTA ESTAGIARIO JEQUERI; JEQUERI-PJ-UNPJ
268 656701 AMARILDO ODILON REZENDE DE AGUIAR INVESTIGADOR DE POLICIA 2 BELO HORIZONTE - COMARCA; CAO-ORDEM ECONOMICA E TRIBUTARIA 1.100,00 0,00 0,00 0,00 0,00 0,00 0,00 0,00 0,00 31/07/2020
269 434400 AMARILIS ASSIS SIMAO CURCIO ANALISTA DO MP MANHUAÇU - COMARCA; MANHUACU-PJ-SECRETARIA 1.100,00 0,00 450,00 0,00 0,00 0,00 0,00 0,00 0,00 31/07/2020
270 74200 AMAURI ARTIMOS DA MATTA PROMOT.ENTRANC.ESPECIAL BELO HORIZONTE - COMARCA; PROCON-MG 1.100,00 0,00 2.345,18 0,00 5.614,85 0,00 0,00 0,00 514,69 31/07/2020
271 652000 AMAURI SILVA ALVES OFICIAL DO MP BELO HORIZONTE - COMARCA; BH-23PJ INFRACIONAL-SEC EXP 1.100,00 0,00 450,00 0,00 0,00 0,00 0,00 0,00 0,00 31/07/2020
272 273700 AMBROLINA CARNEIRO DE VASCONCELOS OFICIAL DO MP FRUTAL - COMARCA; FRUTAL-PJ-01PJ 1.100,00 0,00 450,00 0,00 0,00 0,00 0,00 0,00 0,00 31/07/2020
273 58000 AMELIA GUARIZE DE CASTRO OFICIAL DO MP JUIZ DE FORA - COMARCA; JUIZ DE FORA-PJ-SECRETARIA 1.100,00 0,00 450,00 0,00 0,00 0,00 0,00 0,00 0,00 31/07/2020
274 324301 AMERICA SUELI FERREIRA DA SILVA ANALISTA DO MP MONTE CARMELO - COMARCA; MONTE CARMELO-PJ-02PJ 1.100,00 769,39 450,00 0,00 0,00 0,00 0,00 0,00 0,00 31/07/2020
275 273300 AMUJACY DE BRITO ASSIZ OFICIAL DO MP BELO HORIZONTE - COMARCA; BH-12PJ JUIZO CRIMINAL-SECRETARIA 1.100,00 0,00 450,00 0,00 1.570,86 0,00 0,00 0,00 144,00 31/07/2020
276 482200 ANA ALICE LOPES ACHTSCHIN ANALISTA DO MP BELO HORIZONTE - COMARCA; PROC JUST RECURSOS ESP E EXTRAORD CRIMINAIS 1.100,00 0,00 450,00 0,00 0,00 0,00 0,00 0,00 0,00 31/07/2020
277 490400 ANA AMELIA PAULINO GARCIA OFICIAL DO MP CONTAGEM - COMARCA; CONTAGEM-PJ-13PJ 1.100,00 0,00 450,00 0,00 0,00 0,00 0,00 0,00 0,00 31/07/2020
278 671300 ANA BARBARA CANEDO OLIVEIRA PROMOTOR SUBSTITUTO PARACATU - COMARCA; PARACATU-PJ-02PJ 1.100,00 0,00 703,56 0,00 0,00 0,00 0,00 0,00 0,00 31/07/2020
279 1128400 ANA BEATRIZ DE MELO FERNANDES ESTAGIARIO MESQUITA; MESQUITA-PJ-UNPJ 0,00 0,00 0,00 81,00 0,00 0,00 0,00 0,00 0,00 31/07/2020
280 1126700 ANA BEATRIZ DE SOUZA ARCANJO BASTOS ESTAGIARIO JOAO MONLEVADE; JOAO MONLEVADE-PJ-02PJ
281 1018500 ANA BEATRIZ NAVES REIS ESTAGIARIO TRES CORACOES; TRES CORACOES-PJ-05PJ
282 959600 ANA CARLA RODRIGUES DE SOUZA ESTAGIARIO AIURUOCA; AIURUOCA-PJ-UNPJ
283 1147800 ANA CAROLINA AFONSO OMENA ESTAGIARIO ITUIUTABA; ITUIUTABA-PJ-02PJ
284 279100 ANA CAROLINA ARAUJO PEREIRA ANALISTA DO MP BELO HORIZONTE - COMARCA; DIRETORIA DE PROJETOS DE EDIFICACOES 1.100,00 0,00 450,00 0,00 0,00 0,00 0,00 0,00 0,00 31/07/2020
285 954400 ANA CAROLINA BATISTA PEREIRA ESTAGIARIO PATOS DE MINAS; PATOS DE MINAS-PJ-01PJ 0,00 0,00 0,00 81,00 0,00 0,00 0,00 0,00 0,00 31/07/2020
286 653300 ANA CAROLINA CYRNE DINIZ ASSESSOR BELO HORIZONTE - COMARCA; CENTRAL DE APOIO TECNICO-SETOR CONTABIL 1.100,00 0,00 450,00 0,00 0,00 0,00 0,00 0,00 0,00 31/07/2020
287 1076100 ANA CAROLINA DALDEGAN COUTINHO ESTAGIARIO BELO HORIZONTE; PROC. JUSTICA CRIMINAL
288 359400 ANA CAROLINA DE ABREU FARIA ASSESSOR BELO HORIZONTE - COMARCA; SUPERINTENDÊNCIA DE ENGENHARIA E ARQUITETURA 1.100,00 0,00 450,00 0,00 0,00 0,00 0,00 0,00 0,00 31/07/2020
289 408500 ANA CAROLINA DE CASTRO CARVALHO ANALISTA DO MP BARBACENA - COMARCA; BARBACENA - SECRETARIA DAS PJS CRIMINAIS 1.100,00 0,00 450,00 0,00 0,00 0,00 0,00 0,00 0,00 31/07/2020
290 1032200 ANA CAROLINA DE MEDEIROS CHAVES FERZEM TAVARES ESTAGIARIO BELO HORIZONTE; OUVIDORIA DO MPMG
291 1030900 ANA CAROLINA DE OLIVEIRA PINTO ESTAGIARIO BELO HORIZONTE; PROC. JUSTICA CRIMINAL 0,00 0,00 0,00 45,00 0,00 0,00 0,00 0,00 0,00 31/07/2020
292 598900 ANA CAROLINA DUARTE DA SILVA INVESTIGADOR DE POLICIA 2 BELO HORIZONTE - COMARCA; PROC JUST ESP ACOES COMP ORIG CRIMINAL-SEC 1.100,00 0,00 0,00 0,00 0,00 0,00 0,00 0,00 0,00 31/07/2020
293 420200 ANA CAROLINA FERNANDES SILVA ANALISTA DO MP BELO HORIZONTE - COMARCA; GABINETE DE PROCURADOR DE JUSTIÇA - SALA 704 1.100,00 0,00 450,00 0,00 0,00 0,00 0,00 0,00 0,00 31/07/2020
294 522100 ANA CAROLINA FERNANDINO VIDAL PEREIRA SANTOS OFICIAL DO MP BELO HORIZONTE - COMARCA; SECRETARIA DO PROCON-MG 1.100,00 0,00 450,00 0,00 0,00 0,00 0,00 0,00 0,00 31/07/2020
295 244700 ANA CAROLINA GARCIA COSTA PROMOT.ENTRANC.ESPECIAL BELO HORIZONTE - COMARCA; BH-23PJ INFRACIONAL-GAB 147PJ 1.100,00 0,00 2.983,04 0,00 5.614,85 0,00 0,00 0,00 514,69 31/07/2020
296 502400 ANA CAROLINA GONCALVES FERNANDES ANALISTA DO MP GRAO MOGOL - COMARCA; GRAO MOGOL-PJ-UNPJ 1.100,00 769,39 450,00 0,00 0,00 0,00 0,00 0,00 0,00 31/07/2020
297 529900 ANA CAROLINA GONCALVES PECANHA CHEQUER ANALISTA DO MP MANHUAÇU - COMARCA; MANHUACU-PJ-04PJ 1.100,00 769,39 450,00 0,00 0,00 0,00 0,00 0,00 0,00 31/07/2020
298 1106000 ANA CAROLINA LEITE CHAVES ESTAGIARIO BELO HORIZONTE; BH-18PJ DIREITOS HUMANOS-SECRETARIA
299 957300 ANA CAROLINA MARTINS DA SILVA ESTAGIARIO UBERLANDIA; UBERLANDIA-PJ-18PJ
300 1137800 ANA CAROLINA MIRANDA DE MEIRELES MOUTINHO ESTAGIARIO SETE LAGOAS; SETE LAGOAS-PJ-05PJ 0,00 0,00 0,00 135,00 0,00 0,00 0,00 0,00 0,00 31/07/2020
301 431900 ANA CAROLINA MOTTA GUATIMOSIM ANALISTA DO MP BELO HORIZONTE - COMARCA; GABINETE DE PROCURADOR DE JUSTIÇA - SALA 404 1.100,00 769,39 450,00 0,00 0,00 0,00 0,00 0,00 0,00 31/07/2020
302 880200 ANA CAROLINA NETO RODRIGUES ESTAGIARIO BELO HORIZONTE; BH-23PJ CIVEL
303 969900 ANA CAROLINA SILVA CAMPOS ESTAGIARIO
304 1112100 ANA CAROLINA SILVA DE ASSIS ESTAGIARIO BELO HORIZONTE; BH-07PJ 01 TRIBUNAL JURI-ASS TEC
305 1043500 ANA CAROLINA SILVEIRA PASSOS ESTAGIARIO DIAMANTINA; COORD REG BACIAS RIOS JEQUITINHONHA E MUCURI 0,00 0,00 0,00 81,00 0,00 0,00 0,00 0,00 0,00 31/07/2020
306 1111200 ANA CAROLINA SOARES CUNHA ESTAGIARIO SETE LAGOAS; SETE LAGOAS-PJ-09PJ 0,00 0,00 0,00 117,00 0,00 0,00 0,00 0,00 0,00 31/07/2020
307 490600 ANA CAROLINA XAVIER GODOY ANALISTA DO MP BELO HORIZONTE - COMARCA; ASSESS TECNICO-JUR JUNTO AS PROC. DE JUST 1.100,00 1.538,78 450,00 0,00 0,00 0,00 0,00 0,00 0,00 31/07/2020
308 313700 ANA CAROLINA ZAMBOM PINTO COELHO PROMOTOR 2A ENTRANCIA SABARÁ - COMARCA; SABARA-PJ-01PJ 1.100,00 0,00 1.279,20 0,00 5.334,11 0,00 0,00 0,00 488,96 31/07/2020
309 897000 ANA CAROLINE DA CRUZ SILVA ESTAGIARIO CURVELO; CURVELO-PJ-04PJ 0,00 0,00 0,00 117,00 0,00 0,00 0,00 0,00 0,00 31/07/2020
310 888200 ANA CAROLINE DA SILVA ARAUJO ESTAGIARIO PORTEIRINHA; PORTEIRINHA-PJ-UNPJ 0,00 0,00 0,00 27,00 0,00 0,00 0,00 0,00 0,00 31/07/2020
311 1120600 ANA CAROLINE DE CASSIA COSTA ESTAGIARIO JOAO MONLEVADE; JOAO MONLEVADE-PJ-03PJ 0,00 0,00 0,00 63,00 0,00 0,00 0,00 0,00 0,00 31/07/2020
312 1074500 ANA CAROLINE MONTEIRO DE BARROS ESTAGIARIO IPATINGA; IPATINGA-PJ-10PJ
313 600300 ANA CAROLINE PEREIRA DINIZ ANALISTA DO MP BELO HORIZONTE - COMARCA; PROC JUST ESP ACOES COMP ORIG CRIMINAL-SEC 1.100,00 1.538,78 450,00 0,00 0,00 0,00 0,00 0,00 0,00 31/07/2020
314 615800 ANA CAROLINE PEREIRA OLIVEIRA OFICIAL DO MP ALFENAS - COMARCA; ALFENAS-PJ-06PJ 1.100,00 0,00 450,00 0,00 0,00 0,00 0,00 0,00 0,00 31/07/2020
315 229202 ANA CECILIA JUNQUEIRA GOUVEA PROMOT.ENTRANC.ESPECIAL RIBEIRÃO DAS NEVES - COMARCA; RIBEIRAO DAS NEVES-PJ-08PJ 1.100,00 0,00 2.025,40 0,00 5.614,85 0,00 0,00 0,00 514,69 31/07/2020
316 980200 ANA CECILIA MACHADO FELIPE ESTAGIARIO GOVERNADOR VALADARES; GOVERNADOR VALADARES-PJ-02PJ 0,00 0,00 0,00 18,00 0,00 0,00 0,00 0,00 0,00 31/07/2020
317 324800 ANA CECILIA MENDES DA SILVA OFICIAL DO MP OURO FINO - COMARCA; OURO FINO-PJ-01PJ 1.100,00 0,00 450,00 0,00 0,00 0,00 0,00 0,00 0,00 31/07/2020
318 1092000 ANA CLARA DE SOUZA ESTAGIARIO BELO HORIZONTE; PROC. JUSTICA CIVEL
319 1045800 ANA CLARA GRECO VILLANI MARQUES ESTAGIARIO BELO HORIZONTE; PROC. JUSTICA CRIMINAL 0,00 0,00 0,00 45,00 0,00 0,00 0,00 0,00 0,00 31/07/2020
320 921200 ANA CLARA NAPOLIS DIAS ESTAGIARIO BELO HORIZONTE; CAO-MEIO AMBIENTE
321 1062800 ANA CLARA SANTOS ALMEIDA ESTAGIARIO SABINOPOLIS; SABINOPOLIS-PJ-UNPJ 0,00 0,00 0,00 126,00 0,00 0,00 0,00 0,00 0,00 31/07/2020
322 902700 ANA CLARA SOUSA COSTA ESTAGIARIO BELO HORIZONTE; BH-08PJ JUIZADO ESPECIAL-GAB 051PJ
323 441300 ANA CLAUDIA ALKIMIM MIRANDA BOMTEMPO ANALISTA DO MP MONTES CLAROS - COMARCA; MONTES CLAROS-PJ-11PJ 1.100,00 0,00 450,00 0,00 0,00 0,00 0,00 0,00 0,00 31/07/2020
324 1068500 ANA CLAUDIA ALVES MACHADO ESTAGIARIO ITAUNA; ITAUNA-PJ-01PJ
325 642500 ANA CLAUDIA DA COSTA NAVES OFICIAL DO MP MONTE CARMELO - COMARCA; MONTE CARMELO-PJ-02PJ 1.100,00 769,39 450,00 0,00 0,00 0,00 0,00 0,00 0,00 31/07/2020
326 868900 ANA CLAUDIA DE SOUSA FERREIRA ESTAGIARIO MONTES CLAROS; MONTES CLAROS-PJ-15PJ
327 1028100 ANA CLAUDIA FERNANDES MENDES ESTAGIARIO BRUMADINHO; BRUMADINHO-PJ-02PJ 0,00 0,00 0,00 63,00 0,00 0,00 0,00 0,00 0,00 31/07/2020
328 1110600 ANA CLAUDIA JUSTINO SILVA ESTAGIARIO IBIRITE; IBIRITE-PJ-02PJ
329 341500 ANA CLAUDIA LOPES PROMOT.ENTRANC.ESPECIAL BELO HORIZONTE - COMARCA; BH-07PJ 01 TRIBUNAL DO JURI-GAB 077PJ 1.100,00 0,00 3.127,44 0,00 5.614,85 0,00 0,00 0,00 514,69 31/07/2020
330 604900 ANA CLAUDIA OLIVEIRA DE MIRANDA OFICIAL DO MP PONTE NOVA - COMARCA; PONTE NOVA-PJ-04PJ 1.100,00 0,00 450,00 0,00 0,00 0,00 0,00 0,00 0,00 31/07/2020
331 1131000 ANA CLAUDIA OLIVEIRA PEREIRA ESTAGIARIO BELO HORIZONTE; PROMOT ESTADUAL DE DEF PATRI CULT E TUR DE MG 0,00 0,00 0,00 9,00 0,00 0,00 0,00 0,00 0,00 31/07/2020
332 1085500 ANA CLERIA DE OLIVEIRA SOUZA ESTAGIARIO GOVERNADOR VALADARES; GOVERNADOR VALADARES-PJ-13PJ 0,00 0,00 0,00 153,00 0,00 0,00 0,00 0,00 0,00 31/07/2020
333 379300 ANA CRISTINA ALVES FLAVIO ANALISTA DO MP SÃO GOTARDO - COMARCA; SAO GOTARDO-PJ-01PJ 1.100,00 769,39 450,00 0,00 0,00 0,00 0,00 0,00 0,00 31/07/2020
334 461200 ANA CRISTINA ALVES PASCHOAL ANALISTA DO MP SANTA LUZIA - COMARCA; SANTA LUZIA-PJ-03PJ 1.100,00 0,00 450,00 0,00 0,00 0,00 0,00 0,00 0,00 31/07/2020
335 514100 ANA CRISTINA ARAUJO ASSUNCAO ANALISTA DO MP BELO HORIZONTE - COMARCA; ASSESS JUR DO CONS SUPERIOR DO MINISTERIO PUB 1.100,00 769,39 450,00 0,00 0,00 0,00 0,00 0,00 0,00 31/07/2020
336 113400 ANA CRISTINA BRAGA ALBUQUERQUE ASSESSOR/ANALISTA BELO HORIZONTE - COMARCA; ASSESS ESP ADM E FINANCEIRA DO PGJ ADJ ADM 1.100,00 0,00 450,00 0,00 1.418,49 0,00 0,00 0,00 130,03 31/07/2020
337 233800 ANA CRISTINA BRAGA SOARES RIOS OFICIAL DO MP CONTAGEM - COMARCA; CONTAGEM-PJ-SECRETARIA 1.100,00 0,00 450,00 0,00 0,00 0,00 0,00 0,00 0,00 31/07/2020
338 186400 ANA CRISTINA DE AZEVEDO LOPES OFICIAL DO MP UBÁ - COMARCA; UBA-PJ-01PJ 1.100,00 0,00 450,00 0,00 0,00 0,00 0,00 0,00 0,00 31/07/2020
339 465100 ANA CRISTINA DE OLIVEIRA GUIMARAES ANALISTA DO MP ITAJUBA - COMARCA; ITAJUBA-PJ-05PJ 1.100,00 1.538,78 450,00 0,00 0,00 0,00 0,00 0,00 0,00 31/07/2020
340 1121200 ANA CRISTINA HENRIQUES ALVES ESTAGIARIO IGARAPE; IGARAPE-PJ-04PJ 0,00 0,00 0,00 72,00 0,00 0,00 0,00 0,00 0,00 31/07/2020
341 500600 ANA CRISTINA LATADO SUDARIO ANALISTA DO MP UBERLÂNDIA - COMARCA; UBERLANDIA-PJ-09PJ 1.100,00 0,00 450,00 0,00 0,00 0,00 0,00 0,00 0,00 31/07/2020
342 331400 ANA CRISTINA RIBEIRO ALVES OFICIAL DO MP BAMBUÍ - COMARCA; BAMBUI-PJ-UNPJ 1.100,00 0,00 450,00 0,00 0,00 0,00 0,00 0,00 0,00 31/07/2020
343 1021500 ANA CRISTINA SILVEIRA BATISTA ESTAGIARIO CONTAGEM; CONTAGEM-PJ-23PJ 0,00 0,00 0,00 9,00 0,00 0,00 0,00 0,00 0,00 31/07/2020
344 249300 ANA ELOINA MARTINS OFICIAL DO MP BETIM - COMARCA; BETIM-PJ-02PJ 1.100,00 0,00 450,00 0,00 0,00 0,00 0,00 0,00 0,00 31/07/2020
345 611500 ANA FLAVIA AFONSO DRUMOND AMORIM PROMOTOR 2A ENTRANCIA PIRAPORA - COMARCA; PIRAPORA-PJ-02PJ 1.100,00 0,00 0,00 0,00 1.066,82 0,00 0,00 0,00 97,79 31/07/2020
346 257400 ANA FLAVIA CAMBRAIA ANALISTA DO MP BELO HORIZONTE - COMARCA; BH-19PJ SAUDE-SECRETARIA 150PJ 1.100,00 0,00 450,00 0,00 0,00 0,00 0,00 0,00 0,00 31/07/2020
347 1066000 ANA FLAVIA CARDOSO DE ABREU ESTAGIARIO BELO HORIZONTE; CENTRAL DE APOIO TECNICO-SETOR CONTABIL
348 940300 ANA FLAVIA COUTINHO DE ALMEIDA ESTAGIARIO POUSO ALEGRE; POUSO ALEGRE-PJ-06PJ
349 248201 ANA FLAVIA DE MORAIS SOUZA ANALISTA DO MP DIVINÓPOLIS - COMARCA; DIVINOPOLIS-PJ-01PJ 1.100,00 769,39 450,00 0,00 0,00 0,00 0,00 0,00 0,00 31/07/2020
350 887100 ANA FLAVIA DE PAULA SADDI TAVORA ESTAGIARIO UBERLANDIA; UBERLANDIA-PJ-07PJ 0,00 0,00 0,00 90,00 0,00 0,00 0,00 0,00 0,00 31/07/2020
351 621100 ANA FLAVIA DINIZ TEODORO OFICIAL DO MP SANTA LUZIA - COMARCA; SANTA LUZIA-PJ-06PJ 1.100,00 0,00 450,00 0,00 0,00 0,00 0,00 0,00 0,00 31/07/2020
352 1137900 ANA FLAVIA FIGUEIREDO SALOMAO ESTAGIARIO TEOFILO OTONI; COORD REG APOIO COM INC MOB SOC VALE MUCURI 0,00 0,00 0,00 90,00 0,00 0,00 0,00 0,00 0,00 31/07/2020
353 238600 ANA FLAVIA FRANCO OFICIAL DO MP BELO HORIZONTE - COMARCA; DIRETORIA DE PESSOAL ADMINISTRATIVO - DPAD 1.100,00 0,00 450,00 0,00 0,00 0,00 0,00 0,00 0,00 31/07/2020
354 1123700 ANA FLAVIA GRACIELE GUIMARAES PAIVA ESTAGIARIO SANTA LUZIA; SANTA LUZIA-PJ-01PJ
355 1064100 ANA FLAVIA MARQUES GONCALVES ESTAGIARIO VAZANTE; VAZANTE-PJ-UNPJ 0,00 0,00 0,00 36,00 401,67 0,00 0,00 0,00 0,00 31/07/2020
356 1032100 ANA FLAVIA PEREIRA ESTAGIARIO BELO HORIZONTE; PROC JUST RECURSOS ESP E EXTRAORD CRIMINAIS
357 402900 ANA FLAVIA PORTES DE CARVALHO ANALISTA DO MP BELO HORIZONTE - COMARCA; DIRET DE PLANOS PROJETOS E PROGRAMAS INST 1.100,00 0,00 450,00 0,00 0,00 0,00 0,00 0,00 0,00 31/07/2020
358 1023800 ANA FLAVIA RIBEIRO PEREIRA ESTAGIARIO CURVELO; CURVELO-PJ-02PJ
359 1070200 ANA FLAVIA VALLADAO FERREIRA ESTAGIARIO BELO HORIZONTE; PROC. JUSTICA CRIMINAL
360 526300 ANA GABRIELA BRITO MELO ROCHA PROMOTOR 2A ENTRANCIA TRÊS PONTAS - COMARCA; TRES PONTAS-PJ-03PJ 1.100,00 0,00 1.492,40 0,00 5.334,11 0,00 0,00 0,00 488,96 31/07/2020
361 896200 ANA GRAYCE GUERREIRO PESSOA ESTAGIARIO CONTAGEM; CONTAGEM-PJ-14PJ 0,00 0,00 0,00 18,00 0,00 0,00 0,00 0,00 0,00 31/07/2020
362 927500 ANA JESSICA SILVA ESTAGIARIO UBERABA; UBERABA-PJ-15PJ 0,00 0,00 0,00 63,00 0,00 0,00 0,00 0,00 0,00 31/07/2020
363 382700 ANA KARENINA SALDANHA GONTIJO ANALISTA DO MP BELO HORIZONTE - COMARCA; ASSESS TECNICO-JUR JUNTO AS PROC. DE JUST 1.100,00 769,39 450,00 0,00 0,00 0,00 0,00 0,00 0,00 31/07/2020
364 620500 ANA KARINE DE ANDRADE OLIVEIRA ANALISTA DO MP RIBEIRÃO DAS NEVES - COMARCA; SEC PJ EXECUCAO PENAL RIBEIRAO NEVES 1.100,00 0,00 450,00 0,00 0,00 0,00 0,00 0,00 0,00 31/07/2020
365 1088800 ANA KAROLINE DOS SANTOS ESTAGIARIO JANAUBA; JANAUBA-PJ-03PJ 0,00 0,00 0,00 45,00 0,00 0,00 0,00 0,00 0,00 31/07/2020
366 952400 ANA LARA PEREIRA DAMACENO ESTAGIARIO 0,00 0,00 0,00 54,00 0,00 0,00 0,00 0,00 0,00 31/07/2020
367 905900 ANA LAURA BORGES ARTIAGA ESTAGIARIO IBIRACI; IBIRACI-PJ-UNPJ 0,00 0,00 0,00 162,00 0,00 0,00 0,00 0,00 0,00 31/07/2020
368 1103900 ANA LAURA DE FARIA LIMA ESTAGIARIO PARA DE MINAS; PARA DE MINAS-PJ-04PJ
369 970300 ANA LAURA DRUMOND ESTAGIARIO BELO HORIZONTE; PROC. JUSTICA DIR. DIFUSOS E COLETIVOS
370 1055000 ANA LAURA FREITAS MARTINS ESTAGIARIO SETE LAGOAS; SETE LAGOAS-PJ-01PJ 0,00 0,00 0,00 63,00 0,00 0,00 0,00 0,00 0,00 31/07/2020
371 994400 ANA LAURA NEVES CERQUEIRA ESTAGIARIO BELO HORIZONTE; BH-12PJ JUIZO CRIMINAL-GAB 108PJ
372 57400 ANA LEIA SALOMAO E RIBEIRO PROMOT.ENTRANC.ESPECIAL JUIZ DE FORA - COMARCA; JUIZ DE FORA-PJ-02PJ 1.100,00 0,00 1.279,19 0,00 5.614,85 0,00 0,00 0,00 514,69 31/07/2020
373 224300 ANA LETICIA MARTINS DE SOUZA PROMOT.ENTRANC.ESPECIAL CONTAGEM - COMARCA; CONTAGEM-PJ-13PJ 1.100,00 0,00 0,00 0,00 0,00 0,00 0,00 0,00 0,00 31/07/2020
374 1034000 ANA LIVIA DE FREITAS SILVA ESTAGIARIO PARAOPEBA; PARAOPEBA-PJ-UNPJ 0,00 0,00 0,00 153,00 0,00 0,00 0,00 0,00 0,00 31/07/2020
375 462200 ANA LUCIA ANDRADE TOMICH OTTONI ANALISTA DO MP TEÓFILO OTONI - COMARCA; TEOFILO OTONI-PJ-06PJ 1.100,00 0,00 450,00 0,00 0,00 0,00 0,00 0,00 0,00 31/07/2020
376 504100 ANA LUCIA CATAO DE CARVALHO OFICIAL DO MP BELO HORIZONTE - COMARCA; BH-09PJ AUDITORIA MILITAR-SECRETARIA 1.100,00 769,39 450,00 0,00 0,00 0,00 0,00 0,00 0,00 31/07/2020
377 342700 ANA LUCIA D'AGOSTO OLIVEIRA PROMOTOR 2A ENTRANCIA JOÃO MONLEVADE - COMARCA; JOAO MONLEVADE-PJ-03PJ 1.100,00 0,00 3.028,80 0,00 0,00 0,00 0,00 0,00 0,00 31/07/2020
378 274700 ANA LUCIA DE ALENCAR BRAGATO OFICIAL DO MP UBERABA - COMARCA; UBERABA-PJ-07PJ 1.100,00 0,00 450,00 0,00 0,00 0,00 0,00 0,00 0,00 31/07/2020
379 509400 ANA LUCIA DORNELAS MALLOSTO ANALISTA DO MP JUIZ DE FORA - COMARCA; JUIZ DE FORA-PJ-18PJ 1.100,00 0,00 450,00 0,00 0,00 0,00 0,00 0,00 0,00 31/07/2020
380 114600 ANA LUCIA JUNQUEIRA MUZZI CAVALIERI PROMOT.ENTRANC.ESPECIAL JUIZ DE FORA - COMARCA; JUIZ DE FORA-PJ-12PJ 1.100,00 0,00 2.686,31 0,00 40.426,93 0,00 0,00 0,00 0,00 31/07/2020
381 302600 ANA LUCIA LOPES SANTOS OFICIAL DO MP BELO HORIZONTE - COMARCA; DIVISÃO DE FISCALIZAÇÃO DAS RELAÇÕES DE CONSU 1.100,00 0,00 450,00 0,00 5.814,31 0,00 1.445,27 0,00 532,98 31/07/2020
382 666200 ANA LUCIA SAYURI WATANABE PROMOTOR SUBSTITUTO SANTA RITA DO SAPUCAÍ - COMARCA; SANTA RITA DO SAPUCAI-PJ-01PJ 1.100,00 0,00 1.787,12 0,00 5.067,40 0,00 0,00 0,00 464,51 31/07/2020
383 1030200 ANA LUISA ARAUJO MORAIS ESTAGIARIO CAMPO BELO; CAMPO BELO-PJ-01PJ 0,00 0,00 0,00 81,00 0,00 0,00 0,00 0,00 0,00 31/07/2020
384 1103200 ANA LUISA DE LANA COELHO ESTAGIARIO BELO HORIZONTE; PROC. JUSTICA DE HABEAS CORPUS
385 921300 ANA LUISA GOMES ASSIS ESTAGIARIO VARZEA DA PALMA; VARZEA DA PALMA-PJ-02PJ 0,00 0,00 0,00 144,00 0,00 0,00 0,00 0,00 0,00 31/07/2020
386 493400 ANA LUISA NOGUEIRA MOREIRA ANALISTA DO MP BELO HORIZONTE - COMARCA; BH-19PJ SAUDE-SECRETARIA 130PJ 1.100,00 0,00 450,00 0,00 0,00 0,00 0,00 0,00 0,00 31/07/2020
387 389300 ANA LUISA REUTER LIMA ANALISTA DO MP BELO HORIZONTE - COMARCA; DIRETORIA DE SISTEMAS DE INFORMACAO 1.100,00 0,00 450,00 0,00 0,00 0,00 0,00 0,00 0,00 31/07/2020
388 1112300 ANA LUISA RODRIGUES DUARTE ESTAGIARIO BELO HORIZONTE; EXTINTA-COORD EST DEF DIR FAM PES DEFIC IDOSO
389 1141900 ANA LUISA SOUSA GUIMARAES ESTAGIARIO UBERABA; UBERABA-PJ-10PJ
390 1089000 ANA LUIZA ALESSI FERREIRA DE CARVALHO ESTAGIARIO BELO HORIZONTE; PROC. JUSTICA CRIMINAL 0,00 0,00 0,00 162,00 0,00 0,00 0,00 0,00 0,00 31/07/2020
391 947900 ANA LUIZA BRANDAO DE AGUIAR VILACA ESTAGIARIO DIVINOPOLIS; COORD REG DO MA DA BACIA DO ALTO SAO FRANC 0,00 0,00 0,00 63,00 0,00 0,00 0,00 0,00 0,00 31/07/2020
392 441100 ANA LUIZA DA COSTA E CRUZ PROMOTOR SUBSTITUTO BETIM - COMARCA; BETIM-PJ-08PJ 1.100,00 0,00 1.543,44 0,00 5.067,40 0,00 0,00 0,00 464,51 31/07/2020
393 161000 ANA LUIZA DE ABREU MOREIRA PROMOT.ENTRANC.ESPECIAL BELO HORIZONTE - COMARCA; BH-03PJ EMPRESARIAL-GAB 037PJ 1.100,00 0,00 0,00 0,00 5.614,85 0,00 0,00 0,00 514,69 31/07/2020
394 1108900 ANA LUIZA DE OLIVEIRA REIS ESTAGIARIO SABARA; SABARA-PJ-03PJ
395 480600 ANA LUIZA FERNANDES FRAGA E GRECO OFICIAL DO MP BELO HORIZONTE - COMARCA; BH-23PJ CIVEL-SEC EXP CIVEIS 1.100,00 0,00 450,00 0,00 0,00 0,00 0,00 0,00 0,00 31/07/2020
396 1133300 ANA LUIZA FERREIRA VAZ ESTAGIARIO DIVINOPOLIS; DIVINOPOLIS-PJ-12PJ
397 914300 ANA LUIZA GOMES PEREIRA ESTAGIARIO BELO HORIZONTE; SECRETARIA EXECUTIVA DA OUVIDORIA
398 924200 ANA LUIZA LARES DO MONTE ESTAGIARIO TEOFILO OTONI; TEOFILO OTONI-PJ-02PJ
399 996700 ANA LUIZA MELO MACIEL ESTAGIARIO BELO HORIZONTE; BH-07PJ 01 TRIBUNAL DO JURI-GAB 059PJ
400 1000700 ANA LUIZA MOREIRA ABREU ESTAGIARIO BELO HORIZONTE; BH-12PJ JUIZO CRIMINAL-GAB 087PJ
401 1145200 ANA LUIZA SILVA FIDELIS ESTAGIARIO VISCONDE DO RIO BRANCO; VISCONDE DO RIO BRANCO-PJ-02PJ 0,00 0,00 0,00 90,00 0,00 0,00 0,00 0,00 0,00 31/07/2020
402 1055200 ANA LUIZA SILVA PEREIRA CRUZ ESTAGIARIO 0,00 0,00 0,00 27,00 0,00 0,00 0,00 0,00 0,00 31/07/2020
403 1021000 ANA LUIZA SILVA SANTIAGO ESTAGIARIO BELO HORIZONTE; CAO-CRIMINAL-GABINETES
404 481400 ANA MARCIA CANDIDA FERREIRA OFICIAL DO MP BRUMADINHO - COMARCA; BRUMADINHO-PJ-02PJ 1.100,00 0,00 450,00 0,00 0,00 0,00 0,00 0,00 0,00 31/07/2020
405 114700 ANA MARIA CAMILO DA HORA E ROCHA PROMOT.ENTRANC.ESPECIAL MONTES CLAROS - COMARCA; MONTES CLAROS-PJ-05PJ 1.100,00 0,00 2.771,58 0,00 5.614,85 0,00 0,00 0,00 514,69 31/07/2020
406 643100 ANA MARIA LOPES MIRANDA ANALISTA DO MP BELO HORIZONTE - COMARCA; CAO-FUNDACOES 1.100,00 0,00 450,00 0,00 0,00 0,00 0,00 0,00 0,00 31/07/2020
407 556400 ANA MARIA OLIVEIRA SOUZA OFICIAL DO MP ITAPECERICA - COMARCA; ITAPECERICA-PJ-UNPJ 1.100,00 0,00 450,00 0,00 0,00 0,00 0,00 0,00 0,00 31/07/2020
408 409600 ANA OLIVIA FARIA ROSENBURG ANALISTA DO MP BELO HORIZONTE - COMARCA; DIRETORIA DO COLEGIO E DA CAMARA DE PJ 1.100,00 0,00 450,00 0,00 0,00 0,00 0,00 0,00 0,00 31/07/2020
409 461500 ANA PAULA ALVES CARVALHO ANALISTA DO MP UBERLÂNDIA - COMARCA; UBERLANDIA-PJ-25PJ 1.100,00 769,39 450,00 0,00 0,00 0,00 0,00 0,00 0,00 31/07/2020
410 523200 ANA PAULA ALVES DA SILVA OFICIAL DO MP GOVERNADOR VALADARES - COMARCA; GOVERNADOR VALADARES-PJ-10PJ 1.100,00 1.922,93 450,00 0,00 0,00 0,00 0,00 0,00 0,00 31/07/2020
411 381200 ANA PAULA BARROS PEREIRA RIGHI ANALISTA DO MP BELO HORIZONTE - COMARCA; PROC JUST RECURSOS ESP E EXTRAORD CRIMINAIS 1.100,00 769,39 450,00 0,00 0,00 0,00 0,00 0,00 0,00 31/07/2020
412 1081000 ANA PAULA BORGES MOREIRA ESTAGIARIO POUSO ALEGRE; POUSO ALEGRE-PJ-05PJ
413 942700 ANA PAULA BORGES SANTOS ESTAGIARIO ITAUNA; ITAUNA-PJ-03PJ 0,00 0,00 0,00 27,00 0,00 0,00 0,00 0,00 0,00 31/07/2020
414 227200 ANA PAULA DA SILVA CAMPOLINA ANALISTA DO MP BELO HORIZONTE - COMARCA; DIRETORIA DE ORCAMENTO-DIOR/SPC 1.100,00 0,00 450,00 0,00 0,00 0,00 0,00 0,00 0,00 31/07/2020
415 1114000 ANA PAULA DE OLIVEIRA SANTOS ESTAGIARIO ARAGUARI; ARAGUARI-PJ-07PJ
416 84200 ANA PAULA DE SOUZA ROCHA OFICIAL DO MP BELO HORIZONTE - COMARCA; DIRETORIA DE CONTABILIDADE 1.100,00 0,00 450,00 0,00 1.418,49 0,00 0,00 0,00 130,02 31/07/2020
417 997500 ANA PAULA DE SOUZA SILVA ESTAGIARIO BELO HORIZONTE; GABINETE DE PROCURADOR DE JUSTIÇA - SALA 805
418 278500 ANA PAULA DIAS CAPANEMA OFICIAL DO MP BELO HORIZONTE - COMARCA; DIRETORIA DE SEGURANCA 1.100,00 0,00 450,00 0,00 0,00 0,00 0,00 0,00 0,00 31/07/2020
419 327300 ANA PAULA GARCIA MAXIMO OFICIAL DO MP UNAÍ - COMARCA; UNAI-PJ-01PJ 1.100,00 0,00 450,00 0,00 0,00 0,00 0,00 0,00 0,00 31/07/2020
420 1027400 ANA PAULA GOMES MIRANDA ESTAGIARIO BELO HORIZONTE; BH-12PJ JUIZO CRIMINAL-GAB 092PJ
421 270000 ANA PAULA GOULART CRUZ DE MAGALHAES ANALISTA DO MP BELO HORIZONTE - COMARCA; PROC JUST ESP ACOES COMP ORIG CRIMINAL-ASSESS 1.100,00 0,00 450,00 0,00 0,00 0,00 0,00 0,00 0,00 31/07/2020
422 262100 ANA PAULA KOMATSUZAKI ABIJAUDI ANALISTA DO MP BELO HORIZONTE - COMARCA; BH-17PJ PATRIMONIO PUBLICO-SECRETARIA 1.100,00 0,00 450,00 0,00 0,00 0,00 0,00 0,00 0,00 31/07/2020
423 1079700 ANA PAULA LEITE MOREIRA ESTAGIARIO MANHUACU; MANHUACU-PJ-04PJ
424 671400 ANA PAULA LIMA DA SILVA PROMOTOR SUBSTITUTO CARATINGA - COMARCA; CARATINGA-PJ-05PJ 1.100,00 0,00 703,56 0,00 0,00 0,00 0,00 0,00 0,00 31/07/2020
425 222600 ANA PAULA LOURENCO DE PAULA PROMOTOR 2A ENTRANCIA ITUIUTABA - COMARCA; ITUIUTABA-PJ-03PJ 1.100,00 0,00 2.643,68 0,00 5.334,11 0,00 0,00 0,00 488,96 31/07/2020
426 106200 ANA PAULA MENDES RODRIGUES PROCURADOR DE JUSTICA BELO HORIZONTE - COMARCA; GABINETE DE PROCURADOR DE JUSTIÇA - SALA 515 1.100,00 0,00 980,72 0,00 0,00 0,00 0,00 0,00 0,00 31/07/2020
427 1065000 ANA PAULA MINARINI DA SILVA ESTAGIARIO CATAGUASES; CATAGUASES-PJ-01PJ
428 278900 ANA PAULA MOREIRA GURGEL ANALISTA DO MP BELO HORIZONTE - COMARCA; DIRETORIA-GERAL 1.100,00 0,00 450,00 0,00 0,00 0,00 0,00 0,00 0,00 31/07/2020
429 1082100 ANA PAULA NOBRE PEREIRA ESTAGIARIO 0,00 0,00 0,00 180,00 0,00 0,00 0,00 0,00 0,00 31/07/2020
430 940200 ANA PAULA PACHECO DA SILVA ARAUJO ESTAGIARIO BELO HORIZONTE; BH-12PJ JUIZO CRIMINAL-GAB 102PJ 0,00 0,00 0,00 63,00 0,00 0,00 0,00 0,00 0,00 31/07/2020
431 484400 ANA PAULA RESENDE DORNELLAS DE AZEVEDO PROMOTOR SUBSTITUTO LAGOA SANTA - COMARCA; LAGOA SANTA-PJ-01PJ 1.100,00 0,00 3.040,44 0,00 5.067,40 0,00 0,00 0,00 464,51 31/07/2020
432 425701 ANA PAULA ROCHA ANALISTA DO MP BELO HORIZONTE - COMARCA; ASSESSORIA DE COMUNICACAO INTEGRADA 1.100,00 769,39 450,00 0,00 0,00 0,00 0,00 0,00 0,00 31/07/2020
433 889100 ANA PAULA RODRIGUES PINHEIRO ESTAGIARIO MONTES CLAROS; COORD REG PJ DEF EDUC DIR CRIANCA ADOL NORTE
434 395601 ANA PAULA SALGE OLIVEIRA ANALISTA DO MP UBERABA - COMARCA; COORD REG PP TRIANGULO MINEIRO UBERABA 1.100,00 0,00 450,00 0,00 0,00 0,00 0,00 0,00 0,00 31/07/2020
435 1150000 ANA PAULA SANTIAGO TEIXEIRA SANTOS ESTAGIARIO GUANHAES; GUANHAES-PJ-02PJ 0,00 0,00 0,00 9,00 0,00 0,00 0,00 0,00 0,00 31/07/2020
436 473200 ANA PAULA SCOTTON BRASIL ANALISTA DO MP JUIZ DE FORA - COMARCA; JUIZ DE FORA-PJ-07PJ 1.100,00 769,39 450,00 0,00 0,00 0,00 0,00 0,00 0,00 31/07/2020
437 633600 ANA PAULA SILVA FERNANDES OFICIAL DO MP CATAGUASES - COMARCA; CATAGUASES-PJ-04PJ 1.100,00 0,00 450,00 0,00 0,00 0,00 0,00 0,00 0,00 31/07/2020
438 470900 ANA PAULA VALADARES ANALISTA DO MP PITANGUI - COMARCA; PITANGUI-PJ-01PJ 1.100,00 0,00 450,00 0,00 0,00 0,00 0,00 0,00 0,00 31/07/2020
439 447000 ANA PAULA VALENTIM DE ARAUJO ANALISTA DO MP BELO HORIZONTE - COMARCA; PROC JUST ESP ACOES COMP ORIG CRIMINAL-ASSESS 1.100,00 0,00 450,00 0,00 0,00 0,00 0,00 0,00 0,00 31/07/2020
440 604200 ANA PAULA VIANA E SILVA OFICIAL DO MP BELO HORIZONTE - COMARCA; BH-17PJ PATRIMONIO PUBLICO-SECRETARIA 1.100,00 769,39 450,00 0,00 0,00 0,00 0,00 0,00 0,00 31/07/2020
441 505400 ANA PAULA VIEIRA SOUTO OFICIAL DO MP ALMENARA - COMARCA; COORD. PAT. PUBLICO-MUCURI/JEQUIT - ALMENARA 1.100,00 0,00 450,00 0,00 0,00 0,00 0,00 0,00 0,00 31/07/2020
442 280200 ANA RACHEL BRANDAO LADEIRA ROLAND DIRETOR/ANALISTA BELO HORIZONTE - COMARCA; SUPRIN DE FORMACAO E APERFEICOAMENTO-SFA/CEAF 1.100,00 0,00 450,00 0,00 0,00 0,00 0,00 0,00 0,00 31/07/2020
443 922900 ANA RACHEL DOS REIS E SENA COSTA ESTAGIARIO BELO HORIZONTE; PROC. JUSTICA CIVEL
444 1047800 ANA RAFAELA SANTOS FARIA ESTAGIARIO BELO HORIZONTE; PROC. JUSTICA CRIMINAL
445 601200 ANA REGINA RIBEIRO COORDENADOR/ANALISTA BELO HORIZONTE - COMARCA; DIV FISCAL ADM CONT TERCEIRIZACAO 1.100,00 0,00 450,00 0,00 0,00 0,00 0,00 0,00 0,00 31/07/2020
446 1053100 ANA RITA FERREIRA PIMENTA DOS SANTOS ESTAGIARIO BOCAIUVA; BOCAIUVA-PJ-03PJ 0,00 0,00 0,00 54,00 0,00 0,00 0,00 0,00 0,00 31/07/2020
447 384700 ANA RODRIGUES PEREIRA MARRA ANALISTA DO MP COROMANDEL - COMARCA; COROMANDEL-PJ-01PJ 1.100,00 769,39 450,00 0,00 0,00 0,00 0,00 0,00 0,00 31/07/2020
448 232700 ANA SILVIA SEMBLANO NAKAMURA ASSESSOR/OFICIAL BELO HORIZONTE - COMARCA; CENT DE APOIO TEC-SETOR DEF,IDOSO E INFANC 1.100,00 0,00 450,00 0,00 0,00 0,00 0,00 0,00 0,00 31/07/2020
449 1123000 ANA TELMA APARECIDA COSTA ESTAGIARIO
450 530300 ANA TEREZA RIBEIRO SALLES GIACOMINI PROMOTOR SUBSTITUTO BRUMADINHO - COMARCA; BRUMADINHO-PJ-01PJ 1.100,00 0,00 2.345,20 0,00 0,00 0,00 0,00 0,00 0,00 31/07/2020
451 1147700 ANA VICTORIA DOS PASSOS CAETANO ESTAGIARIO GOVERNADOR VALADARES; GOVERNADOR VALADARES-PJ-16PJ
452 963500 ANA VIRGINIA DA CRUZ PRAIS ESTAGIARIO MONTES CLAROS; MONTES CLAROS-PJ-03PJ
453 602100 ANACLETO FRANCISCO MARCIER PIMENTA OFICIAL DO MP SÃO JOÃO DEL REI - COMARCA; SAO JOAO DEL REI-PJ-03PJ 1.100,00 1.538,78 450,00 0,00 0,00 0,00 0,00 0,00 0,00 31/07/2020
454 310400 ANADEJE DO CARMO DINIZ ARAUJO OFICIAL DO MP BELO HORIZONTE - COMARCA; DIRETORIA DE PESSOAL ADMINISTRATIVO - DPAD 1.100,00 0,00 450,00 0,00 0,00 0,00 0,00 0,00 0,00 31/07/2020
455 337000 ANAILDES MARIA MENDES OFICIAL DO MP JANAÚBA - COMARCA; JANAUBA-PJ-02PJ 1.100,00 769,39 450,00 0,00 0,00 0,00 0,00 0,00 0,00 31/07/2020
456 1055300 ANANDA COUTO DE OLIVEIRA ESTAGIARIO BELO HORIZONTE; BH-15PJ M AMB PAT HIST CULT-GAB 114PJ
457 192900 ANATALIA CERQUEIRA LIMA PERES OFICIAL DO MP UBERABA - COMARCA; COORD REG SAUDE MACROR SANIT TRIANGULO SUL 1.100,00 0,00 450,00 0,00 0,00 0,00 0,00 0,00 0,00 31/07/2020
458 377400 ANDEIRSON DA MATTA BARBOSA ANALISTA DO MP POUSO ALEGRE - COMARCA; POUSO ALEGRE-PJ-01PJ 1.100,00 0,00 450,00 0,00 0,00 0,00 0,00 0,00 0,00 31/07/2020
459 317400 ANDERSON DA SILVA BICALHO OFICIAL DO MP CONTAGEM - COMARCA; COORD REG DEF ORDEM ECON TRIB CONTAGEM 1.100,00 0,00 450,00 0,00 0,00 0,00 0,00 0,00 0,00 31/07/2020
460 506900 ANDERSON DE SOUZA DAMIANI ANALISTA DO MP BELO HORIZONTE - COMARCA; DIRETORIA DE PAGAMENTO DE PESSOAL-DPAG 1.100,00 769,39 450,00 0,00 0,00 0,00 0,00 0,00 0,00 31/07/2020
461 410000 ANDERSON DE SOUZA NETO ASSESSOR BELO HORIZONTE - COMARCA; DIRETORIA DE ADMINISTRACAO FINANCEIRA 1.100,00 0,00 450,00 0,00 0,00 0,00 0,00 0,00 0,00 31/07/2020
462 181900 ANDERSON FLAVIO DE OLIVEIRA OFICIAL DO MP ITAGUARA - COMARCA; ITAGUARA-PJ-SECRETARIA 1.100,00 0,00 450,00 0,00 0,00 0,00 0,00 0,00 0,00 31/07/2020
463 333200 ANDERSON JOSE DE FREITAS OFICIAL DO MP IPATINGA - COMARCA; IPATINGA-PJ-07PJ 1.100,00 769,39 450,00 0,00 0,00 0,00 1.445,27 0,00 0,00 31/07/2020
464 462100 ANDERSON LUIZ GUIMARAES CARDOSO ANALISTA DO MP BARBACENA - COMARCA; BARBACENA-PJ-02PJ 1.100,00 0,00 450,00 0,00 0,00 0,00 0,00 0,00 0,00 31/07/2020
465 429700 ANDERSON MELO DE SOUZA ASSESSOR/OFICIAL BELO HORIZONTE - COMARCA; DIRET DE ESTAGIOS E CONVENIOS ACADEMICOS 1.100,00 0,00 450,00 0,00 0,00 0,00 0,00 0,00 0,00 31/07/2020
466 545600 ANDERSON MENDES PROCOPIO FERREIRA ANALISTA DO MP BELO HORIZONTE - COMARCA; BH-12PJ JUIZO CRIMINAL-GAB 089PJ 1.100,00 0,00 450,00 0,00 0,00 0,00 0,00 0,00 0,00 31/07/2020
467 519900 ANDERSON MOREIRA DOEHLER ANALISTA DO MP TEÓFILO OTONI - COMARCA; TEOFILO OTONI-PJ-07PJ 1.100,00 0,00 450,00 0,00 0,00 0,00 0,00 0,00 0,00 31/07/2020
468 103000 ANDERSON TADEU DE DEUS ASSESSOR BELO HORIZONTE - COMARCA; BH-26 CRIME CONT CRIAN ADOL-SECRETARIA 1.100,00 0,00 450,00 0,00 0,00 0,00 0,00 0,00 0,00 31/07/2020
469 652500 ANDERSON TADEU LOPES INVESTIGADOR DE POLICIA 2 CONTAGEM - COMARCA; COORD REG DEF ORDEM ECON TRIB CONTAGEM 1.100,00 0,00 0,00 0,00 0,00 0,00 0,00 0,00 0,00 31/07/2020
470 309200 ANDITYAS SOARES DE MOURA COSTA MATOS ANALISTA DO MP BELO HORIZONTE - COMARCA; GABINETE DE PROCURADOR DE JUSTIÇA - SALA 304 1.100,00 0,00 450,00 0,00 0,00 0,00 0,00 0,00 0,00 31/07/2020
471 1080700 ANDRE ARAUJO GABRIEL REIS ESTAGIARIO BARBACENA; BARBACENA-PJ-05PJ
472 519200 ANDRE BORJA LANA ANALISTA DO MP BELO HORIZONTE - COMARCA; DIR CONTEUDO JORNALISTICO 1.100,00 0,00 450,00 0,00 0,00 0,00 0,00 0,00 0,00 31/07/2020
473 486000 ANDRE CARDOSO CAVALCANTI PROMOTOR 2A ENTRANCIA ITAJUBA - COMARCA; ITAJUBA-PJ-02PJ 1.100,00 0,00 1.492,40 0,00 11.735,04 0,00 0,00 0,00 488,96 31/07/2020
474 224900 ANDRE CHIO MAXIMO PROMOT.ENTRANC.ESPECIAL VESPASIANO - COMARCA; VESPASIANO-PJ-02PJ 1.100,00 0,00 3.368,91 0,00 5.614,85 0,00 0,00 0,00 514,69 31/07/2020
475 1077300 ANDRE DA SILVA RODRIGUES ESTAGIARIO CONTAGEM; CONTAGEM-PJ-18PJ
476 102400 ANDRE DE OLIVEIRA ANDRADE PROMOT.ENTRANC.ESPECIAL BELO HORIZONTE - COMARCA; BH-02PJ FAMILIA-GAB 030PJ 1.100,00 0,00 2.856,86 0,00 12.352,67 0,00 0,00 0,00 514,69 31/07/2020
477 656000 ANDRE DE OLIVEIRA SOUSA INVESTIGADOR DE POLICIA 2 BELO HORIZONTE - COMARCA; GAECO - SETOR POLICIAL CIVIL 1.100,00 0,00 0,00 0,00 0,00 0,00 0,00 0,00 0,00 31/07/2020
478 974800 ANDRE DELL ORTO BERCAN ESTAGIARIO RESPLENDOR; RESPLENDOR-PJ-UNPJ 0,00 0,00 0,00 153,00 0,00 0,00 0,00 0,00 0,00 31/07/2020
479 79200 ANDRE ESTEVAO UBALDINO PEREIRA PROCURADOR DE JUSTICA BELO HORIZONTE - COMARCA; GABINETE DE PROCURADOR DE JUSTIÇA - SALA 502 1.100,00 0,00 3.347,23 0,00 13.002,81 0,00 0,00 0,00 14.726,67 31/07/2020
480 1103000 ANDRE FELIPE ROSA DA SILVA ESTAGIARIO BARBACENA; BARBACENA-PJ-SECRETARIA
481 637200 ANDRE FERNANDES DA CUNHA OFICIAL DO MP MORADA NOVA DE MINAS - COMARCA; MORADA NOVA DE MINAS-PJ-UNPJ 1.100,00 0,00 450,00 0,00 0,00 0,00 0,00 0,00 0,00 31/07/2020
482 162800 ANDRE FERNANDO COLUCCO PROMOTOR 2A ENTRANCIA CASSIA - COMARCA; CASSIA-PJ-02PJ 1.100,00 0,00 2.728,96 0,00 11.735,04 0,00 0,00 0,00 488,96 31/07/2020
483 1131900 ANDRE FERREIRA ESTAGIARIO POCOS DE CALDAS; POCOS DE CALDAS-PJ-04PJ
484 651500 ANDRE GONCALVES MARANHAO OFICIAL DO MP JACINTO - COMARCA; JACINTO-PJ-SECRETARIA 1.100,00 0,00 450,00 0,00 0,00 0,00 0,00 0,00 0,00 31/07/2020
485 439200 ANDRE LEITE DE ALMEIDA PROMOTOR 2A ENTRANCIA JOÃO MONLEVADE - COMARCA; JOAO MONLEVADE-PJ-01PJ 1.100,00 0,00 1.321,84 0,00 5.334,11 0,00 0,00 0,00 488,96 31/07/2020
486 166900 ANDRE LUIS ALVES DE MELO PROMOTOR 2A ENTRANCIA ARAGUARI - COMARCA; ARAGUARI-PJ-01PJ 1.100,00 0,00 3.155,36 0,00 0,00 0,00 0,00 0,00 0,00 31/07/2020
487 85000 ANDRE LUIS GARCIA DE PINHO PROMOT.ENTRANC.ESPECIAL DISPONIBILIDADE COMPULSORIA-COMARCA; DISPONIBILIDADE COMPULSORIA - UNIDADE 0,00 0,00 2.945,65 0,00 5.614,85 0,00 0,00 0,00 514,69 31/07/2020
488 521900 ANDRE LUIS GOMES SILVA ANALISTA DO MP FORMIGA - COMARCA; FORMIGA-PJ-02PJ 1.100,00 769,39 450,00 0,00 0,00 0,00 0,00 0,00 0,00 31/07/2020
489 340800 ANDRE LUIS MACHADO ARANTES PROMOTOR 2A ENTRANCIA PARÁ DE MINAS - COMARCA; PARA DE MINAS-PJ-05PJ 1.100,00 0,00 2.558,40 0,00 5.614,85 0,00 0,00 0,00 2.199,15 31/07/2020
490 1076200 ANDRE LUIS SILVEIRA BEZERRA ESTAGIARIO BELO HORIZONTE; PROC. JUSTICA DIR. DIFUSOS E COLETIVOS
491 304300 ANDRE LUIZ AVELAR ANALISTA DO MP BELO HORIZONTE - COMARCA; DIRETORIA DE REDES E BANCOS DE DADOS 1.100,00 0,00 450,00 0,00 0,00 0,00 0,00 0,00 0,00 31/07/2020
492 666100 ANDRE LUIZ FERREIRA VALADARES PROMOTOR SUBSTITUTO PIRAPORA - COMARCA; PIRAPORA-PJ-02PJ 1.100,00 0,00 1.047,56 0,00 5.067,40 0,00 0,00 0,00 464,51 31/07/2020
493 530200 ANDRE LUIZ NOLLI MERRIGHI PROMOT.ENTRANC.ESPECIAL TEÓFILO OTONI - COMARCA; TEOFILO OTONI-PJ-05PJ 1.100,00 0,00 2.451,80 0,00 5.614,85 0,00 0,00 0,00 514,69 31/07/2020
494 397400 ANDRE PATARO MYRRHA DE PAULA E SILVA ANALISTA DO MP BELO HORIZONTE - COMARCA; ASSESSORIA JURIDICO-ADMINISTRATIVA 1.100,00 769,39 450,00 0,00 0,00 0,00 0,00 0,00 0,00 31/07/2020
495 533200 ANDRE PEREIRA MAFIA PROMOTOR 2A ENTRANCIA ALÉM PARAÍBA - COMARCA; ALEM PARAIBA-PJ-01PJ 1.100,00 0,00 746,20 0,00 5.334,11 0,00 0,00 0,00 488,96 31/07/2020
496 441200 ANDRE SALLES DIAS PINTO PROMOTOR 2A ENTRANCIA IGARAPÉ - COMARCA; IGARAPE-PJ-01PJ 1.100,00 0,00 2.025,40 0,00 5.334,11 0,00 0,00 0,00 488,96 31/07/2020
497 237800 ANDRE SILVARES VASCONCELOS PROMOTOR 2A ENTRANCIA PIUMHI - COMARCA; PIUMHI-PJ-02PJ 1.100,00 0,00 2.451,80 0,00 11.735,04 0,00 0,00 0,00 488,96 31/07/2020
498 231800 ANDRE SPERLING PRADO PROMOT.ENTRANC.ESPECIAL BELO HORIZONTE - COMARCA; COORD DE INCLUSAO E MOBILIZACAO SOCIAIS 1.100,00 0,00 2.579,72 0,00 39.303,96 0,00 0,00 0,00 514,69 31/07/2020
499 666300 ANDRE TANURE DOMINGUES FIGUEIREDO PROMOTOR SUBSTITUTO MONTES CLAROS - COMARCA; MONTES CLAROS-PJ-01PJ 1.100,00 0,00 739,56 0,00 0,00 0,00 0,00 0,00 0,00 31/07/2020
500 650100 ANDRE THOME VARGAS OFICIAL DO MP LEOPOLDINA - COMARCA; LEOPOLDINA-PJ-04PJ 1.100,00 0,00 450,00 0,00 0,00 0,00 0,00 0,00 0,00 31/07/2020
501 231600 ANDRE TUMA DELBIM FERREIRA PROMOT.ENTRANC.ESPECIAL UBERABA - COMARCA; COORD REG PJ DEF EDUC DIR CRIANCA ADOL TRIANG 1.100,00 0,00 1.599,00 0,00 5.614,85 0,00 0,00 0,00 514,69 31/07/2020
502 671500 ANDRE VALDERRAMAS FRANCO PROMOTOR SUBSTITUTO VIRGINÓPOLIS - COMARCA; VIRGINOPOLIS-PJ-UNPJ 1.100,00 0,00 596,96 0,00 0,00 0,00 0,00 0,00 0,00 31/07/2020
503 548500 ANDRE VINICIUS CARVALHO MEIRA ANALISTA DO MP JUIZ DE FORA - COMARCA; JUIZ DE FORA-PJ-25PJ 1.100,00 0,00 450,00 0,00 0,00 0,00 0,00 0,00 0,00 31/07/2020
504 297200 ANDRE WILLE ROSARIO ANALISTA DO MP BELO HORIZONTE - COMARCA; ASSESSORIA ESPECIAL DO PGJ 1.100,00 0,00 450,00 0,00 0,00 0,00 0,00 0,00 0,00 31/07/2020
505 224500 ANDREA BASILIO GONCALVES GOLLOP PROMOT.ENTRANC.ESPECIAL BELO HORIZONTE - COMARCA; BH-18PJ VIOLENCIA DOMESTICA-GAB 186PJ 1.100,00 0,00 3.070,08 0,00 0,00 0,00 0,00 0,00 0,00 31/07/2020
506 666400 ANDREA CLEMENTE BARBOSA DE SOUZA PROMOTOR SUBSTITUTO ITABIRA - COMARCA; ITABIRA-PJ-SECRETARIA 1.100,00 0,00 1.748,24 0,00 5.067,40 0,00 0,00 0,00 464,51 31/07/2020
507 423600 ANDREA COSTA GUALBERTO ALVES ANALISTA DO MP GOVERNADOR VALADARES - COMARCA; COORD REG PJ DEF EDU DIR CRIANCA ADOL RIODOCE 1.100,00 0,00 450,00 0,00 0,00 0,00 0,00 0,00 0,00 31/07/2020
508 198600 ANDREA CRISTINA ANDRADE COSTA E SOUZA OFICIAL DO MP MONTES CLAROS - COMARCA; MONTES CLAROS-PJ-15PJ 1.100,00 0,00 450,00 0,00 0,00 0,00 0,00 0,00 0,00 31/07/2020
509 230600 ANDREA CRISTINA CALDAS SANTIAGO PROMOT.ENTRANC.ESPECIAL CONSELHEIRO LAFAIETE - COMARCA; CONSELHEIRO LAFAIETE-PJ-07PJ 1.100,00 0,00 1.407,12 0,00 5.614,85 0,00 0,00 0,00 514,69 31/07/2020
510 467300 ANDREA DE CASSIA PENNA ALVERNAZ ANALISTA DO MP PONTE NOVA - COMARCA; PONTE NOVA-PJ-01PJ 1.100,00 0,00 450,00 0,00 0,00 0,00 0,00 0,00 0,00 31/07/2020
511 308000 ANDREA DE CASSIA SANTOS OLIVEIRA ANALISTA DO MP BELO HORIZONTE - COMARCA; ASSESS TECNICO-JUR JUNTO AS PROC. DE JUST 1.100,00 0,00 450,00 0,00 0,00 0,00 0,00 0,00 0,00 31/07/2020
512 106300 ANDREA DE FIGUEIREDO SOARES PROCURADOR DE JUSTICA BELO HORIZONTE - COMARCA; GABINETE DE PROCURADOR DE JUSTIÇA - SALA 709 1.100,00 0,00 2.814,24 0,00 5.910,37 0,00 0,00 0,00 541,78 31/07/2020
513 349500 ANDREA DE OLIVEIRA LOIOLA REGIS OFICIAL DO MP IGUATAMA - COMARCA; IGUATAMA-PJ-UNPJ 1.100,00 0,00 450,00 0,00 0,00 0,00 0,00 0,00 0,00 31/07/2020
514 287900 ANDREA FERNANDES PENA MARTINS OFICIAL DO MP MONTES CLAROS - COMARCA; MONTES CLAROS-PJ-09PJ 1.100,00 0,00 450,00 0,00 0,00 0,00 0,00 0,00 0,00 31/07/2020
515 300800 ANDREA FERREIRA ANALISTA DO MP LAVRAS - COMARCA; LAVRAS-PJ-04PJ 1.100,00 0,00 450,00 0,00 0,00 0,00 0,00 0,00 0,00 31/07/2020
516 316700 ANDREA FRANCISCA DIAS DE SOUZA ASSESSOR BELO HORIZONTE - COMARCA; ASSESSORIA JURIDICA DO PROCON-MG 1.100,00 769,39 450,00 0,00 0,00 0,00 0,00 0,00 0,00 31/07/2020
517 395100 ANDREA LANNA MENDES NOVAIS ANALISTA DO MP BELO HORIZONTE - COMARCA; PROMOT ESTADUAL DE DEF PATRI CULT E TUR DE MG 1.100,00 0,00 450,00 0,00 0,00 0,00 0,00 0,00 0,00 31/07/2020
518 67300 ANDREA LEAO MAGALHAES ROQUE ASSESSOR BELO HORIZONTE - COMARCA; COORD ESTADUAL COMBATE CRIMES CIBERNETICOS 1.100,00 0,00 450,00 0,00 0,00 0,00 0,00 0,00 0,00 31/07/2020
519 335700 ANDREA LOPES PEREIRA ANALISTA DO MP GOVERNADOR VALADARES - COMARCA; COORD REG DO MA DA BACIA DO RIO DOCE 1.100,00 0,00 450,00 0,00 0,00 0,00 0,00 0,00 0,00 31/07/2020
520 224700 ANDREA MARIA NESSRALLA BAHURY PROMOT.ENTRANC.ESPECIAL BELO HORIZONTE - COMARCA; BH-12PJ JUIZO CRIMINAL-GAB 089PJ 1.100,00 0,00 2.345,18 0,00 39.303,96 0,00 0,00 0,00 514,69 31/07/2020
521 167000 ANDREA MISMOTTO CARELLI PROMOT.ENTRANC.ESPECIAL BELO HORIZONTE - COMARCA; BH-26 CRIME CONT CRIAN ADOL-GAB 048PJ 1.100,00 0,00 895,44 0,00 5.614,85 0,00 0,00 0,00 514,69 31/07/2020
522 389200 ANDREA TUPINI DOS SANTOS TRISTAO DA ROCHA COORDENADOR/OFICIAL BELO HORIZONTE - COMARCA; BH-13ª PJ JUÍZO DE TÓXICOS-SECRETARIA 1.100,00 0,00 450,00 0,00 0,00 0,00 0,00 0,00 0,00 31/07/2020
523 1071200 ANDREI LUCAS BASILIO SANTANA ESTAGIARIO JANUARIA; JANUARIA-PJ-01PJ 0,00 0,00 0,00 117,00 0,00 0,00 0,00 0,00 0,00 31/07/2020
524 419000 ANDREIA BARBOSA DE ALMEIDA ANALISTA DO MP BELO HORIZONTE - COMARCA; GABINETE DE PROCURADOR DE JUSTIÇA - SALA 705 1.100,00 0,00 450,00 0,00 0,00 0,00 0,00 0,00 0,00 31/07/2020
525 281501 ANDREIA CARLA COSTA FILGUEIRAS ANALISTA DO MP VISCONDE DO RIO BRANCO - COMARCA; VISCONDE DO RIO BRANCO-PJ-02PJ 1.100,00 0,00 450,00 0,00 0,00 0,00 0,00 0,00 0,00 31/07/2020
526 643600 ANDREIA CRISTINA SILVA OFICIAL DO MP PARACATU - COMARCA; PARACATU-PJ-01PJ 1.100,00 0,00 450,00 0,00 0,00 0,00 0,00 0,00 0,00 31/07/2020
527 477100 ANDREIA DE ALMEIDA RIBEIRO MELO OFICIAL DO MP CONTAGEM - COMARCA; CONTAGEM-PJ-07PJ 1.100,00 0,00 450,00 0,00 0,00 0,00 0,00 0,00 0,00 31/07/2020
528 619000 ANDREIA FERREIRA NORONHA COORDENADOR/OFICIAL BELO HORIZONTE - COMARCA; DIRETORIA DE SERVICO CRIMINAL 1.100,00 0,00 450,00 0,00 0,00 0,00 0,00 0,00 0,00 31/07/2020
529 424000 ANDREIA LUCIA COUTO ANALISTA DO MP BELO HORIZONTE - COMARCA; BH-18PJ DIREITOS HUMANOS-SECRETARIA 1.100,00 0,00 450,00 0,00 0,00 0,00 0,00 0,00 0,00 31/07/2020
530 370100 ANDREIA MARIA SILVA PINTO OFICIAL DO MP CORONEL FABRICIANO - COMARCA; CORONEL FABRICIANO-PJ-01PJ 1.100,00 769,39 450,00 0,00 0,00 0,00 0,00 0,00 0,00 31/07/2020
531 382100 ANDREIA NATALI PEREIRA DE OLIVEIRA OFICIAL DO MP PRADOS - COMARCA; PRADOS-PJ-UNPJ 1.100,00 0,00 450,00 0,00 0,00 0,00 0,00 0,00 0,00 31/07/2020
532 198701 ANDREIA NUNES DURAES PROMOTOR 2A ENTRANCIA BOCAIÚVA - COMARCA; BOCAIUVA-PJ-02PJ 1.100,00 0,00 0,00 0,00 5.334,11 0,00 0,00 0,00 488,96 31/07/2020
533 275200 ANDREIA RIBEIRO FREITAS OFICIAL DO MP VIÇOSA - COMARCA; VICOSA-PJ-04PJ 1.100,00 0,00 450,00 0,00 0,00 0,00 0,00 0,00 0,00 31/07/2020
534 352200 ANDREIA XAVIER PEREIRA OFICIAL DO MP CLÁUDIO - COMARCA; CLAUDIO-PJ-UNPJ 1.100,00 0,00 450,00 0,00 0,00 0,00 0,00 0,00 0,00 31/07/2020
535 638500 ANDRESA ALVES FEITOSA CASAGRANDE ANALISTA DO MP PERDÕES - COMARCA; PERDOES-PJ-UNPJ 1.100,00 0,00 450,00 0,00 0,00 0,00 0,00 0,00 0,00 31/07/2020
536 1072000 ANDRESA MENDES ASSIS ESTAGIARIO BELO HORIZONTE; PROC JUST ESP ACOES COMP ORIG CRIMINAL-GAB 0,00 0,00 0,00 9,00 0,00 0,00 0,00 0,00 0,00 31/07/2020
537 1103300 ANDRESSA BARBOSA PARANHOS ESTAGIARIO PATOS DE MINAS; PATOS DE MINAS-PJ-01PJ
538 932800 ANDRESSA CARINA DOS SANTOS ESTAGIARIO BELO HORIZONTE; DIV FISCAL ADM CONT TERCEIRIZACAO
539 952200 ANDRESSA CAVALCANTI FELIPPE ESTAGIARIO PONTE NOVA; PONTE NOVA-PJ-02PJ
540 210000 ANDRESSA DE OLIVEIRA LANCHOTTI PROMOT.ENTRANC.ESPECIAL BELO HORIZONTE - COMARCA; CAO-MEIO AMBIENTE 1.100,00 0,00 2.878,19 0,00 5.614,85 0,00 0,00 0,00 514,69 31/07/2020
541 383700 ANDRESSA EDUARDO SOUZA ANALISTA DO MP OURO BRANCO - COMARCA; OURO BRANCO-PJ-SECRETARIA 1.100,00 1.538,78 450,00 0,00 0,00 0,00 0,00 0,00 0,00 31/07/2020
542 959900 ANDRESSA FRANCO PARADELLAS ESTAGIARIO EUGENOPOLIS; EUGENOPOLIS-PJ-UNPJ 0,00 0,00 0,00 45,00 0,00 0,00 0,00 0,00 0,00 31/07/2020
543 485500 ANDRESSA ISABELLE FERREIRA BARRETO PROMOTOR 2A ENTRANCIA CONCEICAO DAS ALAGOAS - COMARCA; CONCEICAO DAS ALAGOAS-PJ-02PJ 1.100,00 0,00 2.409,16 0,00 5.334,11 0,00 0,00 0,00 488,96 31/07/2020
544 959700 ANDRESSA LUIZA SILVA LOPES ESTAGIARIO CARMO DO PARANAIBA; CARMO DO PARANAIBA-PJ-01PJ
545 1005700 ANDRESSA MARIA ROCHA BARBOSA ESTAGIARIO SANTA MARIA DO SUACUI; SANTA MARIA DO SUACUI-PJ-UNPJ
546 426200 ANDRESSA MENDES CASAL OFICIAL DO MP BELO HORIZONTE - COMARCA; DIR ESTRUTURA E PROCESSOS ORGANIZACIONAIS 1.100,00 0,00 450,00 0,00 0,00 0,00 0,00 0,00 0,00 31/07/2020
547 932900 ANDRESSA OLIVEIRA LUBE COSTA ESTAGIARIO BELO HORIZONTE; GRUPO ESP PROM JUST DEF PROB ADM PAT PUB
548 390100 ANDRESSA RIBEIRO PUCCI OFICIAL DO MP UBERABA - COMARCA; UBERABA-PJ-14PJ 1.100,00 0,00 450,00 0,00 0,00 0,00 0,00 0,00 0,00 31/07/2020
549 462500 ANDREZA APARECIDA COSTA E SILVA ANALISTA DO MP CONSELHEIRO LAFAIETE - COMARCA; CONSELHEIRO LAFAIETE-PJ-02PJ 1.100,00 0,00 450,00 0,00 0,00 0,00 0,00 0,00 0,00 31/07/2020
550 1035200 ANDREZA BRANDAO ESTAGIARIO NOVA SERRANA; NOVA SERRANA-PJ-02PJ 0,00 0,00 0,00 36,00 0,00 0,00 0,00 0,00 0,00 31/07/2020
551 965700 ANDREZA DE OLIVEIRA SANTOS PRESTES ESTAGIARIO BELO HORIZONTE; BH-12PJ JUIZO CRIMINAL-GAB 099PJ 0,00 0,00 0,00 36,00 0,00 0,00 0,00 0,00 0,00 31/07/2020
552 1035800 ANDREZA OLIVEIRA MAGALHAES ESTAGIARIO PATOS DE MINAS; GAECO REGIONAL DE PATOS DE MINAS
553 1083000 ANDREZA SACRAMENTO FAGUNDES ESTAGIARIO BELO HORIZONTE; SUPERINTENDÊNCIA DE ENGENHARIA E ARQUITETURA
554 537800 ANDREZZA LUZIA DE OLIVEIRA ALVES ANALISTA DO MP PATOS DE MINAS - COMARCA; COORD REG PJ DEF EDU DIR CRI ADO AL PAR NOROE 1.100,00 0,00 450,00 0,00 0,00 0,00 0,00 0,00 0,00 31/07/2020
555 1074700 ANDRINE HOLLERBACH DOS SANTOS ESTAGIARIO TEOFILO OTONI; TEOFILO OTONI-PJ-05PJ 0,00 0,00 0,00 108,00 0,00 0,00 0,00 0,00 0,00 31/07/2020
556 491600 ANE PATRICIA RIBEIRO ANALISTA DO MP SETE LAGOAS - COMARCA; SETE LAGOAS-PJ-11PJ 1.100,00 0,00 450,00 0,00 0,00 0,00 0,00 0,00 0,00 31/07/2020
557 361900 ANELISA CARDOSO RIBEIRO PROMOTOR 2A ENTRANCIA CAETÉ - COMARCA; CAETE-PJ-02PJ 1.100,00 0,00 1.705,60 0,00 0,00 0,00 0,00 0,00 0,00 31/07/2020
558 465800 ANELISE GAMA ASSESSOR BELO HORIZONTE - COMARCA; BH-18PJ VIOLENCIA DOMESTICA-SECRETARIA 1.100,00 0,00 450,00 0,00 0,00 0,00 0,00 0,00 0,00 31/07/2020
559 535200 ANELIZE FERNANDA ALVES VILARINHO OFICIAL DO MP CAPINÓPOLIS - COMARCA; CAPINOPOLIS-PJ-UNPJ 1.100,00 769,39 450,00 0,00 0,00 0,00 0,00 0,00 0,00 31/07/2020
560 197200 ANGELA COELHO SALDANHA OFICIAL DO MP PARÁ DE MINAS - COMARCA; PARA DE MINAS-PJ-03PJ 1.100,00 0,00 450,00 0,00 0,00 0,00 0,00 0,00 0,00 31/07/2020
561 307400 ANGELA CRISTINA GONCALVES MUNIZ ANALISTA DO MP UBERLÂNDIA - COMARCA; UBERLANDIA-PJ-SEC FAMILIA 1.100,00 769,39 450,00 0,00 0,00 0,00 0,00 0,00 0,00 31/07/2020
562 157100 ANGELA FABERO PROMOT.ENTRANC.ESPECIAL BELO HORIZONTE - COMARCA; BH-23PJ INFRACIONAL-GAB 145PJ 1.100,00 0,00 3.197,98 0,00 5.614,85 0,00 0,00 0,00 514,69 31/07/2020
563 191800 ANGELA MARIA DE OLIVEIRA OFICIAL DO MP GUARANÉSIA - COMARCA; GUARANESIA-PJ-SECRETARIA 1.100,00 0,00 450,00 0,00 5.028,83 0,00 0,00 0,00 460,98 31/07/2020
564 497400 ANGELA MARIA HENRIQUES ANALISTA DO MP BELO HORIZONTE - COMARCA; COORD REG BACIAS RIO VELHAS E PARAOPEBA 1.100,00 0,00 450,00 0,00 0,00 0,00 0,00 0,00 0,00 31/07/2020
565 54600 ANGELA MARIA PEREIRA GRAVINA PROMOT.ENTRANC.ESPECIAL JUIZ DE FORA - COMARCA; JUIZ DE FORA-PJ-11PJ 1.100,00 0,00 1.923,87 0,00 0,00 0,00 0,00 0,00 0,00 31/07/2020
566 1141200 ANGELA NUNES CARDOSO ESTAGIARIO CORACAO DE JESUS; CORACAO DE JESUS-PJ-UNPJ 0,00 0,00 0,00 189,00 0,00 0,00 0,00 0,00 0,00 31/07/2020
567 260700 ANGELICA CRISTINA AZEVEDO MOREIRA MOUCO OFICIAL DO MP UBÁ - COMARCA; UBA-PJ-05PJ 1.100,00 0,00 450,00 0,00 0,00 0,00 0,00 0,00 0,00 31/07/2020
568 959100 ANGELICA DE MELO ANDRADE ESTAGIARIO CONTAGEM; CONTAGEM-PJ-24PJ
569 1005300 ANGELICA JULIA ARAUJO BASTOS ESTAGIARIO SETE LAGOAS; SETE LAGOAS-PJ-07PJ 0,00 0,00 0,00 45,00 0,00 0,00 0,00 0,00 0,00 31/07/2020
570 334600 ANGELICA PANISSA DE FREITAS GALLATI OFICIAL DO MP GUAXUPÉ - COMARCA; GUAXUPE-PJ-02PJ 1.100,00 769,39 450,00 0,00 0,00 0,00 0,00 0,00 0,00 31/07/2020
571 660400 ANGELICA POLLYANA QUEIROZ DE MEDEIROS PROMOTOR 2A ENTRANCIA ALMENARA - COMARCA; ALMENARA-PJ-03PJ 1.100,00 0,00 703,56 0,00 5.334,11 0,00 0,00 0,00 488,96 31/07/2020
572 521100 ANGELICA SALES MOREIRA OFICIAL DO MP BELO HORIZONTE - COMARCA; BH-02PJ FAMILIA-SECRETARIA 1.100,00 0,00 450,00 0,00 0,00 0,00 0,00 0,00 0,00 31/07/2020
573 1153300 ANGELICA SILVA COUTO ESTAGIARIO ITAUNA; ITAUNA-PJ-04PJ
574 466500 ANGELLO MARQUES AGRELLI ANALISTA DO MP MAR DE ESPANHA - COMARCA; MAR DE ESPANHA-PJ-UNPJ 1.100,00 0,00 450,00 0,00 0,00 0,00 0,00 0,00 0,00 31/07/2020
575 222700 ANGELO ALEXANDRE MARZANO PROMOT.ENTRANC.ESPECIAL BELO HORIZONTE - COMARCA; PROC JUST RECURSOS ESP E EXTRAORD CRIMINAIS 1.100,00 0,00 2.451,78 0,00 0,00 0,00 0,00 0,00 0,00 31/07/2020
576 167100 ANGELO ANSANELLI JUNIOR PROMOTOR 2A ENTRANCIA FORMIGA - COMARCA; FORMIGA-PJ-02PJ 1.100,00 0,00 2.643,68 0,00 11.735,04 0,00 0,00 0,00 488,96 31/07/2020
577 363300 ANGELO VERDOLIN HENRIQUES ANALISTA DO MP SETE LAGOAS - COMARCA; SETE LAGOAS-PJ-04PJ 1.100,00 769,39 450,00 0,00 0,00 0,00 0,00 0,00 0,00 31/07/2020
578 267600 ANIBAL TAMAOKI PROMOT.ENTRANC.ESPECIAL BELO HORIZONTE - COMARCA; BH-18PJ VIOLENCIA DOMESTICA-GAB 053PJ 1.100,00 0,00 895,44 0,00 12.352,67 0,00 0,00 0,00 514,69 31/07/2020
579 250900 ANISIO APARECIDO SANTOS OFICIAL DO MP MARIANA - COMARCA; MARIANA-PJ-02PJ 1.100,00 0,00 450,00 0,00 0,00 0,00 0,00 0,00 0,00 31/07/2020
580 651200 ANITA MARIA SANT ANA DE MATTOS FONTES OFICIAL DO MP ERVÁLIA - COMARCA; ERVALIA-PJ-UNPJ 1.100,00 0,00 450,00 0,00 0,00 0,00 0,00 0,00 0,00 31/07/2020
581 1012300 ANNA BEATRIZ ABREU OTONI ESTAGIARIO BELO HORIZONTE; COORD ESTADUAL DE DEFESA DOS ANIMAIS 0,00 0,00 0,00 9,00 0,00 0,00 0,00 0,00 0,00 31/07/2020
582 1071400 ANNA CAROLINA POLICARIO BERTOLIN ESTAGIARIO BELO HORIZONTE; PROC. JUSTICA DIR. DIFUSOS E COLETIVOS
583 909900 ANNA CAROLINA TAVARES ASSUNCAO ESTAGIARIO UBERLANDIA; UBERLANDIA-PJ-24PJ 0,00 0,00 0,00 63,00 0,00 0,00 0,00 0,00 0,00 31/07/2020
584 253400 ANNA FLAVIA LEHMAN BATTAGLIA ANALISTA DO MP BELO HORIZONTE - COMARCA; CAO-PATRIMONIO PUBLICO 1.100,00 0,00 450,00 0,00 0,00 0,00 0,00 0,00 0,00 31/07/2020
585 1043200 ANNA FRANCIELE DA SILVA ESTAGIARIO BELO HORIZONTE; CAO-FUNDACOES 0,00 0,00 0,00 54,00 0,00 0,00 0,00 0,00 0,00 31/07/2020
586 1153400 ANNA GABRIELA SILVA SOUZA ESTAGIARIO UBERLANDIA; UBERLANDIA-PJ-02PJ
587 1078100 ANNA LUISA BRAZ RODRIGUES ESTAGIARIO LAVRAS; LAVRAS-PJ-03PJ 0,00 0,00 0,00 9,00 0,00 0,00 0,00 0,00 0,00 31/07/2020
588 913200 ANNA LUIZA MATTOS DUARTE ESTAGIARIO BELO HORIZONTE; PROC. JUSTICA CRIMINAL 0,00 0,00 0,00 144,00 0,00 0,00 0,00 0,00 0,00 31/07/2020
589 939900 ANNA LUIZA VIRTUOSO ESTAGIARIO IPATINGA; IPATINGA-PJ-04PJ
590 1017900 ANNE VIEIRA TEODORAK PEGO ESTAGIARIO BELO HORIZONTE; BH-23PJ INFRACIONAL-GAB 142PJ 0,00 0,00 0,00 18,00 0,00 0,00 0,00 0,00 0,00 31/07/2020
591 447600 ANNGELUCE ALCANTARA DE CAMPOS OFICIAL DO MP DIVINÓPOLIS - COMARCA; DIVINOPOLIS-PJ-SECRETARIA 1.100,00 0,00 450,00 0,00 0,00 0,00 0,00 0,00 0,00 31/07/2020
592 119600 ANSELMO BORGES PARREIRAS OFICIAL DO MP BONFIM - COMARCA; BONFIM-PJ-UNPJ 1.100,00 0,00 450,00 0,00 0,00 0,00 0,00 0,00 0,00 31/07/2020
593 630300 ANTONIA GOMES RAMALHO OFICIAL DO MP NOVO CRUZEIRO - COMARCA; NOVO CRUZEIRO-PJ-UNPJ 1.100,00 0,00 450,00 0,00 0,00 0,00 0,00 0,00 0,00 31/07/2020
594 332400 ANTONIA MARIA MAMEDE OFICIAL DO MP UBERLÂNDIA - COMARCA; COORD REG PP TRIANGULO MINEIRO UBERLANDIA 1.100,00 0,00 450,00 0,00 0,00 0,00 0,00 0,00 0,00 31/07/2020
595 1010200 ANTONIO AFFONSO FERREIRA GUEDES ESTAGIARIO BELO HORIZONTE; CAO-ORDEM ECONOMICA E TRIBUTARIA-SECRETARIA
596 889300 ANTONIO AUGUSTO MENEZES DOS SANTOS ESTAGIARIO GALILEIA; GALILEIA-PJ-UNPJ 0,00 0,00 0,00 9,00 0,00 0,00 0,00 0,00 0,00 31/07/2020
597 73100 ANTONIO AURELIO SANTOS PROCURADOR DE JUSTICA BELO HORIZONTE - COMARCA; CAO-CONFLITOS AGRARIOS 1.100,00 0,00 2.558,38 0,00 5.910,37 0,00 0,00 0,00 541,78 31/07/2020
598 157300 ANTONIO BORGES DA SILVA PROMOTOR 2A ENTRANCIA SÃO LOURENÇO - COMARCA; SAO LOURENCO-PJ-02PJ 1.100,00 0,00 3.070,06 0,00 5.334,11 0,00 0,00 0,00 488,96 31/07/2020
599 401600 ANTONIO CARLOS GUEDES AROUCA ANALISTA DO MP BELO HORIZONTE - COMARCA; EXTINTA-COORD EST DEF DIR FAM PES DEFIC IDOSO 1.100,00 0,00 450,00 0,00 0,00 0,00 0,00 0,00 0,00 31/07/2020
600 76600 ANTONIO DE PADOVA MARCHI JUNIOR PROCURADOR DE JUSTICA BELO HORIZONTE - COMARCA; GABINETE DE PROCURADOR DE JUSTIÇA - SALA 1006 1.100,00 0,00 2.579,71 0,00 13.002,81 0,00 0,00 0,00 541,78 31/07/2020
601 101900 ANTONIO DIAS MAIA PROCURADOR DE JUSTICA BELO HORIZONTE - COMARCA; GABINETE DE PROCURADOR DE JUSTIÇA - SALA 808 1.100,00 0,00 2.558,38 0,00 13.002,81 0,00 0,00 0,00 541,78 31/07/2020
602 84600 ANTONIO DIOGO DA ROCHA PROMOTOR 1A ENTRANCIA BOTELHOS - COMARCA; BOTELHOS-PJ-UNPJ 1.100,00 0,00 2.558,38 0,00 11.148,28 0,00 0,00 0,00 464,51 31/07/2020
603 333900 ANTONIO GONCALVES DE SOUZA FILHO OFICIAL DO MP BELO HORIZONTE - COMARCA; DIRETORIA DE CONTABILIDADE 1.100,00 0,00 450,00 0,00 0,00 0,00 0,00 0,00 0,00 31/07/2020
604 340600 ANTONIO HENRIQUE FRANCO LOPES PROMOT.ENTRANC.ESPECIAL RIBEIRÃO DAS NEVES - COMARCA; RIBEIRAO DAS NEVES-PJ-04PJ 1.100,00 0,00 1.705,60 0,00 5.614,85 0,00 0,00 0,00 514,69 31/07/2020
605 67600 ANTONIO JOAQUIM SCHELLENBERGER FERNANDES PROCURADOR DE JUSTICA BELO HORIZONTE - COMARCA; PROC JUSTICA DIR DIFUSOS E COLETIVOS-GAB004 1.100,00 0,00 2.856,86 0,00 5.910,37 0,00 0,00 0,00 14.726,67 31/07/2020
606 77300 ANTONIO JOSE CHINELATO PROCURADOR DE JUSTICA BELO HORIZONTE - COMARCA; GABINETE DE PROCURADOR DE JUSTIÇA - SALA 1008 1.100,00 0,00 0,00 0,00 5.910,37 0,00 0,00 0,00 541,78 31/07/2020
607 211800 ANTONIO JOSE DE OLIVEIRA PROMOTOR 2A ENTRANCIA PASSOS - COMARCA; PASSOS-PJ-06PJ 1.100,00 0,00 3.006,11 0,00 11.735,04 0,00 0,00 0,00 488,96 31/07/2020
608 1003300 ANTONIO JOSE ZINATO DE CARVALHO ESTAGIARIO BELO HORIZONTE; PROC. JUSTICA CIVEL
609 596300 ANTONIO JUNIO DUTRA PRADO DELEGADO DE POLICIA 1 BELO HORIZONTE - COMARCA; GAECO - SETOR POLICIAL CIVIL 1.100,00 0,00 0,00 0,00 0,00 0,00 0,00 0,00 0,00 31/07/2020
610 176100 ANTONIO MARCELO CAMPOS CAMPANELLA OFICIAL DO MP BELO HORIZONTE - COMARCA; COORD DE GABINETE DO PGJ 1.100,00 0,00 450,00 0,00 0,00 0,00 0,00 0,00 0,00 31/07/2020
611 1093700 ANTONIO MARZOLA PEREIRA JUNIOR ESTAGIARIO MACHADO; MACHADO-PJ-02PJ 0,00 0,00 0,00 180,00 0,00 0,00 0,00 0,00 0,00 31/07/2020
612 1086500 ANTONIO OLINTO ADVINCULA DE ARAUJO ESTAGIARIO BELO HORIZONTE; BH-12PJ JUIZO CRIMINAL-GAB 103PJ
613 321001 ANTONIO OLINTO VIEIRA MACHADO ANALISTA DO MP BELO HORIZONTE - COMARCA; CENTRAL DE APOIO TECN-SETOR DE MEIO AMBIENTE 1.100,00 0,00 450,00 0,00 0,00 0,00 0,00 0,00 0,00 31/07/2020
614 356200 ANTONIO PAULA DA SILVA OFICIAL DO MP JUIZ DE FORA - COMARCA; JUIZ DE FORA-PJ-20PJ 1.100,00 0,00 450,00 0,00 5.703,09 0,00 0,00 0,00 522,78 31/07/2020
615 63400 ANTONIO PEDRO DA SILVA MELO PROMOT.ENTRANC.ESPECIAL SÃO JOÃO DEL REI - COMARCA; SAO JOAO DEL REI-PJ-01PJ 1.100,00 0,00 2.558,38 0,00 12.352,67 0,00 0,00 0,00 514,69 31/07/2020
616 119900 ANTONIO RODRIGUES DE PINHO OFICIAL DO MP GUANHÃES - COMARCA; GUANHAES-PJ-01PJ 1.100,00 769,39 450,00 0,00 0,00 0,00 0,00 0,00 0,00 31/07/2020
617 976300 ANTONIO RODRIGUES RICARDO NETO ESTAGIARIO BETIM; BETIM-PJ-12PJ 0,00 0,00 0,00 18,00 0,00 0,00 0,00 0,00 0,00 31/07/2020
618 373300 ANTONIO SERGIO ANANIAS OFICIAL DO MP AIURUOCA - COMARCA; AIURUOCA-PJ-UNPJ 1.100,00 0,00 450,00 0,00 0,00 0,00 0,00 0,00 0,00 31/07/2020
619 93500 ANTONIO SERGIO ROCHA DE PAULA PROCURADOR DE JUSTICA BELO HORIZONTE - COMARCA; PROC JUSTICA DIR DIFUSOS E COLETIVOS-GAB003 1.100,00 0,00 3.283,26 0,00 0,00 0,00 0,00 0,00 0,00 31/07/2020
620 68700 ANTONIO SERGIO TONET PROCURADOR DE JUSTICA BELO HORIZONTE - COMARCA; PROCURADOR-GERAL DE JUSTICA- GABINETE 1.100,00 0,00 1.684,27 0,00 13.002,81 0,00 0,00 0,00 14.726,67 31/07/2020
621 608100 ANTONIO SIDINEY VIEIRA LEMOS ANALISTA DO MP PIRAPORA - COMARCA; PIRAPORA-PJ-01PJ 1.100,00 0,00 450,00 0,00 0,00 0,00 0,00 0,00 0,00 31/07/2020
622 374700 ANTONIO SILVA NETO OFICIAL DO MP BELO HORIZONTE - COMARCA; GAECO - SECRETARIA 1.100,00 0,00 450,00 0,00 0,00 0,00 0,00 0,00 0,00 31/07/2020
623 636700 ANTONIUS VITORIANO FERNANDES OFICIAL DO MP BELO HORIZONTE - COMARCA; ASSESSORIA JURIDICA DO PROCON-MG 1.100,00 0,00 450,00 0,00 0,00 0,00 0,00 0,00 0,00 31/07/2020
624 413200 ANY PEREIRA SILVA ANALISTA DO MP TRÊS PONTAS - COMARCA; TRES PONTAS-PJ-01PJ 1.100,00 0,00 450,00 0,00 0,00 0,00 0,00 0,00 0,00 31/07/2020
625 151401 APARECIDA DE FATIMA MENDES DE ALMEIDA ASSESSOR JUIZ DE FORA - COMARCA; JUIZ DE FORA-PJ-SECRETARIA 1.100,00 0,00 450,00 0,00 0,00 0,00 0,00 0,00 0,00 31/07/2020
626 329300 APARECIDA MARIA MELO DE ASSIS OFICIAL DO MP BELO HORIZONTE - COMARCA; BH-18PJ DIREITOS HUMANOS-SECRETARIA 1.100,00 0,00 450,00 0,00 0,00 0,00 0,00 0,00 0,00 31/07/2020
627 475300 APARECIDA MARLENE FREIRE ROSA ANALISTA DO MP BELO HORIZONTE - COMARCA; BH-02PJ FAMILIA-SECRETARIA 1.100,00 0,00 450,00 0,00 0,00 0,00 0,00 0,00 0,00 31/07/2020
628 240300 APARECIDA PEREIRA DO NASCIMENTO OFICIAL DO MP ITURAMA - COMARCA; ITURAMA-PJ-01PJ 1.100,00 0,00 450,00 0,00 0,00 0,00 0,00 0,00 0,00 31/07/2020
629 653000 APARECIDA ROSA DE LIMA ASSESSOR BELO HORIZONTE - COMARCA; SECRETARIA PROCESSOS DISCIPES ADMINISTRATIVOS 1.100,00 0,00 450,00 0,00 0,00 0,00 0,00 0,00 0,00 31/07/2020
630 354500 APARECIDA VIEIRA DE CARVALHO OFICIAL DO MP BELO HORIZONTE - COMARCA; DIVISÃO DE EDUCAÇÃO PARA O CONSUMO 1.100,00 0,00 450,00 0,00 0,00 0,00 0,00 0,00 0,00 31/07/2020
631 551000 ARACELES BICALHO FELIX ANALISTA DO MP MANHUAÇU - COMARCA; MANHUACU-PJ-02PJ 1.100,00 769,39 450,00 0,00 0,00 0,00 0,00 0,00 0,00 31/07/2020
632 286200 ARACELI MEDRADO DOS SANTOS LIMA OFICIAL DO MP PARACATU - COMARCA; PARACATU-PJ-03PJ 1.100,00 0,00 450,00 0,00 0,00 78,00 0,00 0,00 0,00 31/07/2020
633 189000 ARAHY MARQUES SILVA OFICIAL DO MP BELO HORIZONTE - COMARCA; BH-13ª PJ JUÍZO DE TÓXICOS-SECRETARIA 1.100,00 0,00 450,00 0,00 0,00 0,00 0,00 0,00 0,00 31/07/2020
634 112200 ARAQUEM AUGUSTO DE MATOS AGENTE DO MP BELO HORIZONTE - COMARCA; BH-23PJ CIVEL-SEC EXP CIVEIS 1.100,00 0,00 450,00 0,00 0,00 0,00 0,00 0,00 0,00 31/07/2020
635 280600 ARDUINO FRATTEZI ANALISTA DO MP BELO HORIZONTE - COMARCA; CENTRAL DE APOIO TECNICO-SETOR CONTABIL 1.100,00 0,00 450,00 0,00 0,00 0,00 0,00 0,00 0,00 31/07/2020
636 67700 ARESLAN EUSTAQUIO MARTINS PROMOTOR 1A ENTRANCIA CARMO DA MATA - COMARCA; CARMO DA MATA-PJ-UNPJ 1.100,00 0,00 2.963,46 0,00 11.148,28 0,00 0,00 0,00 464,51 31/07/2020
637 1090300 ARIADNE ALENCAR SOUZA ESTAGIARIO GOVERNADOR VALADARES; GOVERNADOR VALADARES-PJ-15PJ 0,00 0,00 0,00 189,00 0,00 0,00 0,00 0,00 0,00 31/07/2020
638 520201 ARIANE DE FATIMA CARVALHO ALMEIDA RODRIGUES ANALISTA DO MP VESPASIANO - COMARCA; VESPASIANO-PJ-04PJ 1.100,00 769,39 450,00 0,00 0,00 0,00 0,00 0,00 0,00 31/07/2020
639 1079800 ARICIA FERNANDES DRUMOND SOARES ESTAGIARIO BETIM; BETIM-PJ-04PJ
640 952500 ARICIA JORDANA ALMEIDA DE MORAIS ESTAGIARIO MONTES CLAROS; MONTES CLAROS-PJ-06PJ 0,00 0,00 0,00 108,00 0,00 0,00 0,00 0,00 0,00 31/07/2020
641 1116700 ARIEL DE OLIVEIRA SANTOS ESTAGIARIO DIVINOPOLIS; DIVINOPOLIS-PJ-09PJ
642 537600 ARIELA FREIRE MONTIJO ANALISTA DO MP ARCOS - COMARCA; ARCOS-PJ-01PJ 1.100,00 769,39 450,00 0,00 0,00 0,00 0,00 0,00 0,00 31/07/2020
643 182000 ARILSON ALEXANDRE MARTINS MAGALHAES OFICIAL DO MP JOÃO MONLEVADE - COMARCA; JOAO MONLEVADE-PJ-01PJ 1.100,00 1.538,78 450,00 0,00 0,00 0,00 0,00 0,00 0,00 31/07/2020
644 511000 ARISLANE CAROLINA DA SILVA ANALISTA DO MP CAMPINA VERDE - COMARCA; CAMPINA VERDE-PJ-UNPJ 1.100,00 1.538,78 450,00 0,00 0,00 0,00 0,00 0,00 0,00 31/07/2020
645 212000 ARLEN DE OLIVEIRA FERNANDES PROMOT.ENTRANC.ESPECIAL BELO HORIZONTE - COMARCA; BH-12PJ JUIZO CRIMINAL-GAB 098PJ 1.100,00 0,00 2.217,28 0,00 28.074,26 0,00 0,00 0,00 514,69 31/07/2020
646 170000 ARLEY BRITES DA SILVA ASSESSOR BELO HORIZONTE - COMARCA; BH-14PJ DEFESA CONSUMIDOR-SECRETARIA 1.100,00 0,00 450,00 0,00 0,00 0,00 0,00 0,00 0,00 31/07/2020
647 120400 ARLINDO CASSIO DA CRUZ OFICIAL DO MP SÃO GONÇALO DO SAPUCAÍ - COMARCA; SAO GONCALO DO SAPUCAI-PJ-01PJ 1.100,00 0,00 450,00 0,00 0,00 0,00 0,00 0,00 0,00 31/07/2020
648 243700 ARLINDO MARCIO LACERDA OFICIAL DO MP CONTAGEM - COMARCA; CONTAGEM-PJ-03PJ 1.100,00 0,00 450,00 0,00 0,00 0,00 1.445,27 0,00 0,00 31/07/2020
649 111900 ARNALDO ALVES SOARES PROCURADOR DE JUSTICA BELO HORIZONTE - COMARCA; GABINETE DE PROCURADOR DE JUSTIÇA - SALA 306 1.100,00 0,00 2.302,56 0,00 13.002,81 0,00 0,00 0,00 541,78 31/07/2020
650 392100 ARNALDO DE ANDRADE OFICIAL DO MP DIVINÓPOLIS - COMARCA; DIVINOPOLIS-PJ-02PJ 1.100,00 769,39 450,00 0,00 0,00 0,00 1.445,27 0,00 0,00 31/07/2020
651 75900 ARNALDO GOMES RIBEIRO PROCURADOR DE JUSTICA BELO HORIZONTE - COMARCA; GABINETE DE PROCURADOR DE JUSTIÇA - SALA 602 1.100,00 0,00 0,00 0,00 13.002,81 0,00 0,00 0,00 541,78 31/07/2020
652 642400 ARTANE INARDE DE SIQUEIRA DAMASCENO ANALISTA DO MP BELO HORIZONTE - COMARCA; PROC JUST RECURSOS ESP E EXTRAORD CRIMINAIS 1.100,00 769,39 450,00 0,00 0,00 0,00 0,00 0,00 0,00 31/07/2020
653 1006500 ARTHUR BRANDAO ALBUQUERQUE ESTAGIARIO BELO HORIZONTE; DIV FISCAL ADM CONT TERCEIRIZACAO
654 991200 ARTHUR DE SOUZA MENEZES ESTAGIARIO CASSIA; CASSIA-PJ-02PJ
655 1070400 ARTHUR ESPINDULA VILAS ESTAGIARIO RESPLENDOR; RESPLENDOR-PJ-UNPJ 0,00 0,00 0,00 171,00 0,00 0,00 0,00 0,00 0,00 31/07/2020
656 884800 ARTHUR FELIPE DE OLIVEIRA NOGUEIRA ESTAGIARIO PIRAPORA; PIRAPORA-PJ-03PJ 0,00 0,00 0,00 45,00 0,00 0,00 0,00 0,00 0,00 31/07/2020
657 1146000 ARTHUR FELIX VELAME ESTAGIARIO GOVERNADOR VALADARES; GOVERNADOR VALADARES-PJ-16PJ
658 1085200 ARTHUR JOSE RODRIGUES CARVALHO ESTAGIARIO BELO HORIZONTE; DSMT-LABORATORIO DE MANUTENCAO 0,00 0,00 0,00 72,00 0,00 0,00 0,00 0,00 0,00 31/07/2020
659 1125200 ARTHUR JOSE VIEIRA GOMES SALES ESTAGIARIO BELO HORIZONTE; GABINETE DE PROCURADOR DE JUSTIÇA - SALA 713 0,00 0,00 0,00 108,00 0,00 0,00 0,00 0,00 0,00 31/07/2020
660 1119700 ARTHUR POZAM GARRIDO ESTAGIARIO 0,00 0,00 0,00 117,00 0,00 0,00 0,00 0,00 0,00 31/07/2020
661 908700 ARTUR FONTE BOA TEOFILO ESTAGIARIO BELO HORIZONTE; DIRET DE ESTAGIOS E CONVENIOS ACADEMICOS
662 221400 ARTUR FORSTER GIOVANNINI PROMOTOR 2A ENTRANCIA TRÊS PONTAS - COMARCA; TRES PONTAS-PJ-01PJ 1.100,00 0,00 2.209,64 0,00 5.334,11 0,00 0,00 0,00 488,96 31/07/2020
663 1096900 ARTUR FRANCISCO DURAES BATISTA ESTAGIARIO
664 313500 ARY PEDROSA BITTENCOURT PROMOT.ENTRANC.ESPECIAL SANTA LUZIA - COMARCA; SANTA LUZIA-PJ-05PJ 1.100,00 0,00 1.599,00 0,00 5.614,85 0,00 0,00 0,00 514,69 31/07/2020
665 1104000 ASTROGILDO JUNIOR KRUL MACIEL ESTAGIARIO GOVERNADOR VALADARES; GOVERNADOR VALADARES-PJ-01PJ
666 1067900 ATENAS CRISTINI DE LACERDA E RODRIGUES ESTAGIARIO VICOSA; VICOSA-PJ-02PJ
667 315700 ATHAIDE FRANCISCO PERES OLIVEIRA PROMOTOR 2A ENTRANCIA PATOS DE MINAS - COMARCA; COORD REG BACIAS PARACATU,URUCUIA E ABAETE 1.100,00 0,00 2.878,20 0,00 0,00 0,00 0,00 0,00 0,00 31/07/2020
668 1069300 AUGUSTO MARCIO ZIVIANI ESTAGIARIO SAO JOAO DEL REI; SAO JOAO DEL REI-PJ-05PJ 0,00 0,00 0,00 189,00 0,00 0,00 0,00 0,00 0,00 31/07/2020
669 666600 AUGUSTO REIS BALLARDIM PROMOTOR 1A ENTRANCIA ITAMARANDIBA - COMARCA; ITAMARANDIBA-PJ-UNPJ 1.100,00 0,00 1.300,52 0,00 5.067,40 0,00 0,00 0,00 464,51 31/07/2020
670 302100 AUGUSTO ROUSSEAU DE CASTRO ANALISTA DO MP CATAGUASES - COMARCA; CATAGUASES-PJ-02PJ 1.100,00 0,00 450,00 0,00 0,00 0,00 0,00 0,00 0,00 31/07/2020
671 540200 AUREA AVELAR BITTENCOURT OFICIAL DO MP BELO HORIZONTE - COMARCA; GRUPO ESP PROM JUST DEF PROB ADM PAT PUB 1.100,00 0,00 450,00 0,00 0,00 0,00 0,00 0,00 0,00 31/07/2020
672 183200 AURELIANO MAGELA DE REZENDE COORDENADOR/OFICIAL BELO HORIZONTE - COMARCA; COORD DE GABINETE DO PGJ 1.100,00 0,00 450,00 0,00 0,00 0,00 0,00 0,00 0,00 31/07/2020
673 106500 AVAIDE MARCOS MARIANO PROMOT.ENTRANC.ESPECIAL UBERLÂNDIA - COMARCA; UBERLANDIA-PJ-13PJ 1.100,00 0,00 1.279,19 0,00 5.614,85 0,00 0,00 0,00 514,69 31/07/2020
674 629400 AYESKA DA COSTA VAL MOURA DABIEN OFICIAL DO MP BELO HORIZONTE - COMARCA; SUPERINTENDENCIA GESTÃO DE PESSOAS 1.100,00 0,00 450,00 0,00 0,00 0,00 0,00 0,00 0,00 31/07/2020
675 151800 AYLOR LUIZ MEIRELLES JUNIOR PROMOTOR 2A ENTRANCIA NOVA ERA - COMARCA; NOVA ERA-PJ-UNPJ 1.100,00 0,00 2.153,31 0,00 11.735,04 0,00 0,00 0,00 488,96 31/07/2020
676 1122200 AYMEE JOHANSSENN TYNEE CORREIA ALVES ESTAGIARIO NOVA LIMA; NOVA LIMA-PJ-01PJ 0,00 0,00 0,00 54,00 0,00 0,00 0,00 0,00 0,00 31/07/2020
677 1152400 AYUME PINTO OLIVEIRA ESTAGIARIO AGUAS FORMOSAS; AGUAS FORMOSAS-PJ-UNPJ 0,00 0,00 0,00 45,00 0,00 0,00 0,00 0,00 0,00 31/07/2020
678 1130600 BARBARA APARECIDA RODRIGUES DE CASTRO ESTAGIARIO MARTINHO CAMPOS; MARTINHO CAMPOS-PJ-UNPJ
679 933300 BARBARA AZEVEDO ESTRELA ESTAGIARIO BETIM; BETIM-PJ-07PJ
680 1036600 BARBARA CANELLA CORREA ESTAGIARIO VARGINHA; VARGINHA-PJ-06PJ 0,00 0,00 0,00 144,00 0,00 0,00 0,00 0,00 0,00 31/07/2020
681 1051900 BARBARA CHAVES OLIVEIRA ESTAGIARIO BELO HORIZONTE; PROC. JUSTICA DIR. DIFUSOS E COLETIVOS
682 1087100 BARBARA CLAUDINO GUIMARAES DIAS ESTAGIARIO BELO HORIZONTE; BH-09PJ AUDITORIA MILITAR-GAB 002PJ
683 1150900 BARBARA COSTA ALVES ESTAGIARIO MONTES CLAROS; MONTES CLAROS-PJ-SECRETARIA 0,00 0,00 0,00 36,00 0,00 0,00 0,00 0,00 0,00 31/07/2020
684 1069000 BARBARA CRISTINA MENDES BANDEIRA DE MELO ESTAGIARIO BELO HORIZONTE; GABINETE DE PROCURADOR DE JUSTIÇA - SALA 1009
685 1030400 BARBARA CRISTINA TAVARES CARNEIRO ESTAGIARIO BELO HORIZONTE; PROC. JUSTICA CRIMINAL 0,00 0,00 0,00 27,00 0,00 0,00 0,00 0,00 0,00 31/07/2020
686 1134200 BARBARA DANIELA ELIAS JAQUES ESTAGIARIO PRADOS; PRADOS-PJ-UNPJ 0,00 0,00 0,00 189,00 0,00 0,00 0,00 0,00 0,00 31/07/2020
687 1118700 BARBARA DE MELO CARNEIRO ESTAGIARIO
688 314700 BARBARA FRANCINE PRETTE NUNES PROMOTOR 1A ENTRANCIA PERDIZES - COMARCA; PERDIZES-PJ-UNPJ 1.100,00 0,00 2.217,28 0,00 5.067,40 0,00 0,00 0,00 464,51 31/07/2020
689 652800 BARBARA JULIANNE MOREIRA CASTRO ASSESSOR BELO HORIZONTE - COMARCA; ASSESS TECNICO-JUR JUNTO AS PROC. DE JUST 1.100,00 0,00 450,00 0,00 0,00 0,00 0,00 0,00 0,00 31/07/2020
690 1126300 BARBARA LORENA PEREIRA SOUSA ESTAGIARIO BELO HORIZONTE; BH-18PJ VIOLENCIA DOMESTICA-SECRETARIA
691 1089900 BARBARA LOURENCO LIMA ESTAGIARIO JANAUBA; JANAUBA-PJ-02PJ 0,00 0,00 0,00 36,00 0,00 0,00 0,00 0,00 0,00 31/07/2020
692 1078500 BARBARA MARIA COSTA PEREIRA ESTAGIARIO MONTES CLAROS; MONTES CLAROS-PJ-12PJ
693 1074400 BARBARA MARKIAZI LIMA GALVAO ESTAGIARIO DIVINOPOLIS; DIVINOPOLIS-PJ-13PJ 0,00 0,00 0,00 18,00 0,00 0,00 0,00 0,00 0,00 31/07/2020
694 666500 BARBARA MARTINS DE SOUZA PROMOTOR 2A ENTRANCIA MANTENA - COMARCA; MANTENA-PJ-02PJ 1.100,00 0,00 703,56 0,00 5.334,11 0,00 0,00 0,00 488,96 31/07/2020
695 884100 BARBARA NEVES DE PAULA ELLER ESTAGIARIO MARIANA; MARIANA-PJ-01PJ
696 944000 BARBARA QUEIROZ FONSECA ESTAGIARIO PATOS DE MINAS; PATOS DE MINAS-PJ-02PJ
697 663600 BARBARA REGINA PEREIRA DE PINHO MAGALHAES ASSESSOR BELO HORIZONTE - COMARCA; CAO-DH CONT EXT ATIV POLIC E AP COMUNIT-REC 1.100,00 0,00 450,00 0,00 0,00 0,00 0,00 0,00 0,00 31/07/2020
698 1034600 BARBARA REZENDE SILVEIRA BAIA ALVES ESTAGIARIO BELO HORIZONTE; PROC. JUSTICA CRIMINAL 0,00 0,00 0,00 126,00 0,00 0,00 0,00 0,00 0,00 31/07/2020
699 1111100 BARBARA RODRIGUES SOUZA ESTAGIARIO ITAPECERICA; ITAPECERICA-PJ-UNPJ 0,00 0,00 0,00 9,00 0,00 0,00 0,00 0,00 0,00 31/07/2020
700 1003200 BARBARA SANTOS SILVA ESTAGIARIO PAINS; ALFENAS-PJ-03PJ
701 546500 BARBARA ZACARONI GOULART OFICIAL DO MP BETIM - COMARCA; BETIM-PJ-08PJ 1.100,00 0,00 450,00 0,00 0,00 0,00 0,00 0,00 0,00 31/07/2020
702 316500 BEATRIZ ABILVIA DA SILVA ANALISTA DO MP GOVERNADOR VALADARES - COMARCA; GOVERNADOR VALADARES-PJ-07PJ 1.100,00 0,00 450,00 0,00 0,00 0,00 0,00 0,00 0,00 31/07/2020
703 311800 BEATRIZ APARECIDA SOARES GANEM OFICIAL DO MP ITAMBACURI - COMARCA; ITAMBACURI-PJ-02PJ 1.100,00 0,00 450,00 0,00 0,00 0,00 0,00 0,00 0,00 31/07/2020
704 1085300 BEATRIZ ARANHA QUINTAO ESTAGIARIO BELO HORIZONTE; BH-07PJ 02 TRIBUNAL DO JURI-GAB 063PJ
705 266800 BEATRIZ AUGUSTA VILACA GOMES DE HUBER OFICIAL DO MP BELO HORIZONTE - COMARCA; BH-05PJ-JUÍZO SUCESSÕES-SEC 1.100,00 0,00 450,00 0,00 0,00 0,00 0,00 0,00 0,00 31/07/2020
706 1075900 BEATRIZ BAR INFANTE DUARTE PINTO ESTAGIARIO BELO HORIZONTE; BH-18PJ VIOLENCIA DOMESTICA-GAB 007PJ
707 1122400 BEATRIZ BIANCO HELENA ESTAGIARIO POCOS DE CALDAS; POCOS DE CALDAS-PJ-05PJ
708 235200 BEATRIZ BOTELHO BATISTA OFICIAL DO MP BELO HORIZONTE - COMARCA; BH-21PJ TUTELA FUNDACOES-SECRETARIA 1.100,00 0,00 450,00 0,00 0,00 0,00 0,00 0,00 0,00 31/07/2020
709 1109800 BEATRIZ OLIVEIRA SILVA ESTAGIARIO NOVA LIMA; NOVA LIMA-PJ-01PJ 0,00 0,00 0,00 108,00 0,00 0,00 0,00 0,00 0,00 31/07/2020
710 182300 BEATRIZ PAULA SOUSA RAMOS OFICIAL DO MP MARIANA - COMARCA; MARIANA-PJ-01PJ 1.100,00 0,00 450,00 0,00 0,00 0,00 0,00 0,00 0,00 31/07/2020
711 1018600 BEATRIZ PERES FURLANI ESTAGIARIO UBA; COORD REG BACIA DO RIO PARAIBA DO SUL
712 906300 BEATRIZ REIS ABREU ESTAGIARIO MONTES CLAROS; MONTES CLAROS-PJ-01PJ
713 1063700 BEATRIZ ROMEIRO DO CARMO ESTAGIARIO MANHUMIRIM; MANHUMIRIM-PJ-01PJ 0,00 0,00 0,00 27,00 0,00 0,00 0,00 0,00 0,00 31/07/2020
714 964400 BEATRIZ SIMAS TELES ROMANO ESTAGIARIO BELO HORIZONTE; PROC. JUSTICA DE HABEAS CORPUS
715 1079900 BEATRIZ VIEIRA COSTA ESTAGIARIO BELO HORIZONTE; BH-12PJ JUIZO CRIMINAL-GAB 083PJ
716 507000 BELCHIOR FRANKLIN AMARAL LEITE ANALISTA DO MP BELO HORIZONTE - COMARCA; CENTRAL DE APOIO TECNICO 1.100,00 769,39 450,00 0,00 0,00 0,00 0,00 0,00 0,00 31/07/2020
717 345100 BENITO ELIAS RODRIGUES ANALISTA DO MP BARBACENA - COMARCA; BARBACENA - SECRETARIA DAS PJS CRIMINAIS 1.100,00 0,00 450,00 0,00 0,00 0,00 0,00 0,00 0,00 31/07/2020
718 207300 BENITO VIEIRA DOS SANTOS ANALISTA DO MP BELO HORIZONTE - COMARCA; PROC JUST ESP ACOES COMP ORIG CRIMINAL-ASSESS 1.100,00 0,00 450,00 0,00 0,00 0,00 0,00 0,00 0,00 31/07/2020
719 84700 BERGSON CARDOSO GUIMARAES PROMOTOR 2A ENTRANCIA CAXAMBU - COMARCA; CAXAMBU-PJ-UNPJ 1.100,00 0,00 2.771,58 0,00 11.735,04 0,00 0,00 0,00 488,96 31/07/2020
720 480200 BERNADETE NUNES DOS SANTOS ANALISTA DO MP GUANHÃES - COMARCA; GUANHAES-PJ-02PJ 1.100,00 0,00 450,00 0,00 0,00 0,00 0,00 0,00 0,00 31/07/2020
721 969400 BERNARDO ALVES GOMES ESTAGIARIO BELO HORIZONTE; BH-15PJ M AMB PAT HIST CULT-GAB 116PJ 0,00 0,00 0,00 9,00 0,00 0,00 0,00 0,00 0,00 31/07/2020
722 1006600 BERNARDO DE ALMEIDA VIEIRA ESTAGIARIO SAO JOAO DEL REI; SAO JOAO DEL REI-PJ-03PJ
723 456700 BERNARDO DE MOURA LIMA PAIVA JEHA PROMOTOR 2A ENTRANCIA CARMO DO PARANAÍBA - COMARCA; CARMO DO PARANAIBA-PJ-01PJ 1.100,00 0,00 2.451,80 0,00 5.334,11 0,00 0,00 0,00 488,96 31/07/2020
724 666800 BERNARDO DUMONT PIRES PROMOTOR 2A ENTRANCIA PEDRA AZUL - COMARCA; PEDRA AZUL-PJ-01PJ 1.100,00 0,00 703,56 0,00 5.334,11 0,00 0,00 0,00 488,96 31/07/2020
725 995400 BERNARDO MARTINS FERREIRA DE MELLO ESTAGIARIO BELO HORIZONTE; BH-07PJ 01 TRIBUNAL DO JURI-GAB 065PJ 0,00 0,00 0,00 27,00 0,00 0,00 0,00 0,00 0,00 31/07/2020
726 1099400 BERNARDO PIFANO DE CASTRO ESTAGIARIO JUIZ DE FORA; JUIZ DE FORA-PJ-10PJ
727 74300 BERTOLDO MATEUS DE OLIVEIRA FILHO PROCURADOR DE JUSTICA BELO HORIZONTE - COMARCA; EXTINTA-COORD EST DEF DIR FAM PES DEFIC IDOSO 1.100,00 0,00 2.451,78 0,00 13.002,81 0,00 0,00 0,00 541,78 31/07/2020
728 162900 BETANIA CABRAL DE PINA LARCHER PROMOT.ENTRANC.ESPECIAL CONTAGEM - COMARCA; CONTAGEM-PJ-18PJ 1.100,00 0,00 1.492,40 0,00 0,00 0,00 0,00 0,00 0,00 31/07/2020
729 378400 BETANIA FARNESI DE SOUZA E SILVA OFICIAL DO MP SETE LAGOAS - COMARCA; SETE LAGOAS-PJ-SEC CRIMINAIS 1.100,00 0,00 450,00 0,00 0,00 0,00 0,00 0,00 0,00 31/07/2020
730 387400 BETANIA MENDONCA DE ASSIS CARVALHO ANALISTA DO MP JUIZ DE FORA - COMARCA; JUIZ DE FORA-PJ-03PJ 1.100,00 769,39 450,00 0,00 0,00 0,00 0,00 0,00 0,00 31/07/2020
731 1147500 BETHANIA MORENA RODRIGUES GOMES ESTAGIARIO RIBEIRAO DAS NEVES; RIBEIRAO DAS NEVES-PJ-10PJ 0,00 0,00 0,00 108,00 0,00 0,00 0,00 0,00 0,00 31/07/2020
732 1043400 BHAYAN GOMES FERREIRA DE SOUSA ESTAGIARIO UNAI; UNAI-PJ-01PJ
733 926600 BIANCA ARRUDA MOREIRA ESTAGIARIO MUTUM; MUTUM-PJ-UNPJ 0,00 0,00 0,00 99,00 0,00 0,00 0,00 0,00 0,00 31/07/2020
734 1033900 BIANCA CRISTINA SOUZA ESTAGIARIO PATOS DE MINAS; PATOS DE MINAS-PJ-04PJ
735 1108000 BIANCA DE CASTRO RAMOS ESTAGIARIO CONTAGEM; CONTAGEM-PJ-20PJ 0,00 0,00 0,00 36,00 0,00 0,00 0,00 0,00 0,00 31/07/2020
736 1025000 BIANCA DE OLIVEIRA BORGES ESTAGIARIO ITUIUTABA; ITUIUTABA-PJ-03PJ 0,00 0,00 0,00 36,00 0,00 0,00 0,00 0,00 0,00 31/07/2020
737 1115600 BIANCA EDUARDA RIBEIRO COSTA ESTAGIARIO UBERABA; UBERABA-PJ-05PJ 0,00 0,00 0,00 72,00 0,00 0,00 0,00 0,00 0,00 31/07/2020
738 1103700 BIANCA IZABELLA CARVALHO DOS REIS ESTAGIARIO BELO HORIZONTE; BH-18PJ VIOLENCIA DOMESTICA-GAB 053PJ
739 450300 BIANCA OLIVEIRA DE ALBUQUERQUE ANALISTA DO MP BELO HORIZONTE - COMARCA; BH-10PJ EXECUÇÃO PENAL-SECRETARIA 1.100,00 769,39 450,00 0,00 0,00 0,00 0,00 0,00 0,00 31/07/2020
740 535400 BIANCA SALOTO ROSSI ANALISTA DO MP SANTOS DUMONT - COMARCA; SANTOS DUMONT-PJ-01PJ 1.100,00 0,00 450,00 0,00 0,00 0,00 0,00 0,00 0,00 31/07/2020
741 120800 BRAS MARQUES DE SOUZA ANALISTA DO MP BELO HORIZONTE - COMARCA; SUPERINTENDENCIA DE GESTAO ADMINISTRATIVA 1.100,00 0,00 450,00 0,00 1.418,49 0,00 0,00 0,00 130,03 31/07/2020
742 1084600 BRENDA ALEIXA DIAS DA SILVA ESTAGIARIO ITABIRA; ITABIRA-PJ-01PJ
743 1099000 BRENDA DE SOUZA BONFIM ESTAGIARIO BELO HORIZONTE; BH-18PJ DIREITOS HUMANOS-SECRETARIA 0,00 0,00 0,00 0,00 181,00 0,00 0,00 0,00 0,00 31/07/2020
744 1127000 BRENDA LORENA DE ALMEIDA ESTAGIARIO CONTAGEM; CONTAGEM-PJ-09PJ
745 1034500 BRENDA LUIZA SILVA FERREIRA ESTAGIARIO BELO HORIZONTE; PROC. JUSTICA DIR. DIFUSOS E COLETIVOS
746 1037900 BRENDA PINHEIRO LACERDA CASTRO ESTAGIARIO TIMOTEO; TIMOTEO-PJ-02PJ 0,00 0,00 0,00 54,00 0,00 0,00 0,00 0,00 0,00 31/07/2020
747 937600 BRENNO VINICIUS MAGESTE ROSA ESTAGIARIO MANHUACU; MANHUACU-PJ-02PJ
748 372400 BRENO COSTA DA SILVA COELHO PROMOTOR 2A ENTRANCIA VISCONDE DO RIO BRANCO - COMARCA; GAECO REGIONAL ZONA MATA-VISCONDE RIO BRANCO 1.100,00 0,00 2.025,40 0,00 37.338,76 0,00 0,00 0,00 488,96 31/07/2020
749 460900 BRENO CRISTIANO DE SOUZA REZENDE ANALISTA DO MP ITAÚNA - COMARCA; ITAUNA-PJ-02PJ 1.100,00 0,00 450,00 0,00 0,00 0,00 0,00 0,00 0,00 31/07/2020
750 969300 BRENO DIAS ROCHA ESTAGIARIO BELO HORIZONTE; SUPERINTENDENCIA DOS ORGAOS COLEGIADOS
751 966000 BRENO HENRIQUE FREITAS DE CARVALHO ESTAGIARIO FRUTAL; FRUTAL-PJ-01PJ 0,00 0,00 0,00 36,00 0,00 0,00 0,00 0,00 0,00 31/07/2020
752 96700 BRENO LINHARES LINTZ PROMOT.ENTRANC.ESPECIAL UBERLÂNDIA - COMARCA; UBERLANDIA-PJ-10PJ 1.100,00 0,00 0,00 0,00 12.352,67 0,00 0,00 0,00 514,69 31/07/2020
753 1028800 BRENO LUCAS DE CARVALHO RIBEIRO ESTAGIARIO
754 439500 BRENO MAX DE JESUS SILVEIRA PROMOTOR 2A ENTRANCIA CARANGOLA - COMARCA; CARANGOLA-PJ-02PJ 1.100,00 0,00 895,44 0,00 5.334,11 0,00 0,00 0,00 488,96 31/07/2020
755 439300 BRENO NASCIMENTO PACHECO PROMOTOR 2A ENTRANCIA PATROCÍNIO - COMARCA; PATROCINIO-PJ-01PJ 1.100,00 0,00 2.878,20 0,00 5.334,11 0,00 0,00 0,00 488,96 31/07/2020
756 239000 BRENO VENANCIO ROMANINI OFICIAL DO MP BELO HORIZONTE - COMARCA; BH-20PJ ORD ECON TRIBUTARIA-SECRETARIA 1.100,00 0,00 450,00 0,00 0,00 0,00 0,00 0,00 0,00 31/07/2020
757 1106200 BRIAN ATHER MARTINS ESTAGIARIO BARBACENA; BARBACENA-PJ-09PJ
758 202201 BRIGITTE AMARALINA DE CALDAS LIMA OFICIAL DO MP NANUQUE - COMARCA; NANUQUE-PJ-03PJ 1.100,00 0,00 450,00 0,00 0,00 0,00 0,00 0,00 0,00 31/07/2020
759 1092100 BRUNA ALMEIDA LOPES ESTAGIARIO JUIZ DE FORA; JUIZ DE FORA-PJ-07PJ
760 1030300 BRUNA ARRUDA PRATES ESTAGIARIO BELO HORIZONTE; BH-09PJ AUDITORIA MILITAR-GAB 161PJ
761 659300 BRUNA BODONI FACCIOLI PROMOTOR 2A ENTRANCIA NANUQUE - COMARCA; NANUQUE-PJ-03PJ 1.100,00 0,00 1.407,12 0,00 5.334,11 0,00 0,00 0,00 488,96 31/07/2020
762 1146500 BRUNA BOTELHO BUERI ESTAGIARIO DIAMANTINA; DIAMANTINA-PJ-02PJ 0,00 0,00 0,00 135,00 0,00 0,00 0,00 0,00 0,00 31/07/2020
763 1085600 BRUNA CARLA ALVES ESTAGIARIO SAO JOAO DEL REI; SAO JOAO DEL REI-PJ-04PJ 0,00 0,00 0,00 108,00 0,00 0,00 0,00 0,00 0,00 31/07/2020
764 962800 BRUNA CAROLINE LIMA ESTAGIARIO BELO HORIZONTE; BH-18PJ VIOLENCIA DOMESTICA-GAB 186PJ 0,00 0,00 0,00 36,00 0,00 0,00 0,00 0,00 0,00 31/07/2020
765 1010700 BRUNA CAROLINE VIANA DE LIMA ESTAGIARIO POUSO ALEGRE; POUSO ALEGRE-PJ-04PJ 0,00 0,00 0,00 99,00 0,00 0,00 0,00 0,00 0,00 31/07/2020
766 1082600 BRUNA DE CASTRO VIEIRA ESTAGIARIO GOVERNADOR VALADARES; GOVERNADOR VALADARES-PJ-07PJ
767 998700 BRUNA DE PAULA SANTOS ESTAGIARIO BELO HORIZONTE; OUVIDORIA DO MPMG
768 869600 BRUNA DEMETRIO PEREIRA ESTAGIARIO BELO HORIZONTE; BH-18PJ VIOLENCIA DOMESTICA-GAB 177PJ
769 1003100 BRUNA DOS SANTOS NASCIMENTO ESTAGIARIO ITAJUBA; ITAJUBA-PJ-01PJ
770 969700 BRUNA FABRINI OTHECHAR ESTAGIARIO BELO HORIZONTE; BH-12PJ JUIZO CRIMINAL-GAB 097PJ
771 943200 BRUNA FIGUEIREDO DE OLIVEIRA ESTAGIARIO JUIZ DE FORA; JUIZ DE FORA-PJ-17PJ
772 642300 BRUNA IZABELITA DE FATIMA OLIVEIRA COSTA OFICIAL DO MP BELO HORIZONTE - COMARCA; BH-02PJ FAMILIA-SECRETARIA 1.100,00 0,00 450,00 0,00 0,00 0,00 0,00 0,00 0,00 31/07/2020
773 513600 BRUNA KARLA MARTINS CARVALHO ANALISTA DO MP GOVERNADOR VALADARES - COMARCA; GOVERNADOR VALADARES-PJ-01PJ 1.100,00 0,00 450,00 0,00 0,00 0,00 0,00 0,00 0,00 31/07/2020
774 1008400 BRUNA LEAL SILVEIRA ESTAGIARIO ITUIUTABA; ITUIUTABA-PJ-03PJ
775 415100 BRUNA MARIA SOARES OLIVEIRA COSTA RAMOS ANALISTA DO MP UBÁ - COMARCA; COORD REG BACIA DO RIO PARAIBA DO SUL 1.100,00 0,00 450,00 0,00 0,00 0,00 0,00 0,00 0,00 31/07/2020
776 990100 BRUNA MENDES COELHO ESTAGIARIO BELO HORIZONTE; PROC. JUSTICA CIVEL
777 470000 BRUNA MORAES ANALISTA DO MP TOMBOS - COMARCA; TOMBOS-PJ-UNPJ 1.100,00 769,39 450,00 0,00 0,00 0,00 0,00 0,00 0,00 31/07/2020
778 909800 BRUNA NATHANY OLIVEIRA MELO ESTAGIARIO UNAI; UNAI-PJ-02PJ
779 614700 BRUNA NATTANY DE LIMA OFICIAL DO MP MANTENA - COMARCA; MANTENA-PJ-01PJ 1.100,00 0,00 450,00 0,00 0,00 0,00 0,00 0,00 0,00 31/07/2020
780 1084400 BRUNA PAULA AMARAL CEOLIN ESTAGIARIO BELO HORIZONTE; BH-12PJ JUIZO CRIMINAL-GAB 100PJ 0,00 0,00 0,00 9,00 0,00 0,00 0,00 0,00 0,00 31/07/2020
781 1150200 BRUNA PAULA RODRIGUES VASCONCELOS ESTAGIARIO UBERLANDIA; COORD REG PP TRIANGULO MINEIRO UBERLANDIA 0,00 0,00 0,00 90,00 0,00 0,00 0,00 0,00 0,00 31/07/2020
782 901400 BRUNA PERES PEREIRA CRAVO ESTAGIARIO BELO HORIZONTE; ASSESSORIA ESPECIAL DO PGJ 0,00 0,00 0,00 54,00 0,00 0,00 0,00 0,00 0,00 31/07/2020
783 1134300 BRUNA QUEIROZ THOMAZ ESTAGIARIO TEOFILO OTONI; TEOFILO OTONI-PJ-09PJ
784 631800 BRUNA RAPOSO JORGE OFICIAL DO MP JUIZ DE FORA - COMARCA; JUIZ DE FORA-PJ-06PJ 1.100,00 0,00 450,00 0,00 0,00 0,00 0,00 0,00 0,00 31/07/2020
785 1083600 BRUNA RIOS CELESTINO ESTAGIARIO CONSELHEIRO LAFAIETE; CONSELHEIRO LAFAIETE-PJ-07PJ 0,00 0,00 0,00 9,00 0,00 0,00 0,00 0,00 0,00 31/07/2020
786 1146700 BRUNA SALES VIEIRA ESTAGIARIO FRUTAL; FRUTAL-PJ-02PJ 0,00 0,00 0,00 9,00 0,00 0,00 0,00 0,00 0,00 31/07/2020
787 956400 BRUNA URSINE TIMO ESTAGIARIO BELO HORIZONTE; PROC JUST ESP ACOES COMP ORIG CRIMINAL-SEC
788 1023300 BRUNIELY FERNANDES DA LUZ ESTAGIARIO BELO HORIZONTE; DIVISAO DE SERVICOS
789 225100 BRUNO ALEXANDER VIEIRA SOARES PROMOT.ENTRANC.ESPECIAL BELO HORIZONTE - COMARCA; BH-17PJ PATRIMONIO PUBLICO-GAB 004PJ 1.100,00 0,00 2.174,64 0,00 5.614,85 0,00 0,00 0,00 514,69 31/07/2020
790 463800 BRUNO ALVES TEIXEIRA ANALISTA DO MP UBERLÂNDIA - COMARCA; UBERLANDIA-PJ-04PJ 1.100,00 0,00 450,00 0,00 0,00 0,00 0,00 0,00 0,00 31/07/2020
791 1097900 BRUNO ANDRADE ALVARENGA ESTAGIARIO OURO BRANCO; OURO BRANCO-PJ-UNPJ 0,00 0,00 0,00 162,00 0,00 0,00 0,00 0,00 0,00 31/07/2020
792 538500 BRUNO AUGUSTO DA SILVA OFICIAL DO MP SANTA LUZIA - COMARCA; SANTA LUZIA-PJ-03PJ 1.100,00 769,39 450,00 0,00 0,00 0,00 0,00 0,00 0,00 31/07/2020
793 318200 BRUNO BARROS DE SOUZA OFICIAL DO MP UBÁ - COMARCA; UBA-PJ-04PJ 1.100,00 0,00 450,00 0,00 0,00 0,00 0,00 0,00 0,00 31/07/2020
794 459600 BRUNO CASTELAR LUGAO MENDES OFICIAL DO MP GOVERNADOR VALADARES - COMARCA; GOVERNADOR VALADARES-PJ-14PJ 1.100,00 0,00 450,00 0,00 0,00 0,00 0,00 0,00 0,00 31/07/2020
795 361300 BRUNO CESAR MEDEIROS GIARDINI PROMOT.ENTRANC.ESPECIAL IPATINGA - COMARCA; IPATINGA-PJ-06PJ 1.100,00 0,00 2.409,16 0,00 5.614,85 0,00 0,00 0,00 514,69 31/07/2020
796 427400 BRUNO CESAR RIBEIRO DE PAIVA ANALISTA DO MP BELO HORIZONTE - COMARCA; ASSESS JUR DO CONS SUPERIOR DO MINISTERIO PUB 1.100,00 0,00 450,00 0,00 0,00 0,00 0,00 0,00 0,00 31/07/2020
797 380900 BRUNO CIRILO ANTUNES OFICIAL DO MP VARGINHA - COMARCA; VARGINHA-PJ-05PJ 1.100,00 0,00 450,00 0,00 0,00 0,00 0,00 0,00 0,00 31/07/2020
798 953400 BRUNO DA COSTA LELIS ESTAGIARIO BELO HORIZONTE; COORD DE INCLUSAO E MOBILIZACAO SOCIAIS 0,00 0,00 0,00 9,00 0,00 0,00 0,00 0,00 0,00 31/07/2020
799 666700 BRUNO DE CARVALHO VASCONCELOS PROMOTOR SUBSTITUTO CORINTO - COMARCA; CORINTO-PJ-UNPJ 1.100,00 0,00 703,56 0,00 5.067,40 0,00 0,00 0,00 464,51 31/07/2020
800 329000 BRUNO DE MELO REIS ANALISTA DO MP PATROCÍNIO - COMARCA; PATROCINIO-PJ-02PJ 1.100,00 1.538,78 450,00 0,00 0,00 0,00 0,00 0,00 0,00 31/07/2020
801 339700 BRUNO FERNANDO TORRES LANA PROMOT.ENTRANC.ESPECIAL UBÁ - COMARCA; UBA-PJ-05PJ 1.100,00 0,00 852,80 0,00 15.721,58 0,00 0,00 0,00 514,69 31/07/2020
802 1151500 BRUNO FERREIRA BRAS OLIVEIRA ESTAGIARIO UBERLANDIA; GAECO REGIONAL DE UBERLANDIA 0,00 0,00 0,00 54,00 0,00 0,00 0,00 0,00 0,00 31/07/2020
803 953700 BRUNO GABRIEL DE CASTRO ESTAGIARIO BELO HORIZONTE; PROC. JUSTICA DE HABEAS CORPUS
804 360300 BRUNO GUERRA DE OLIVEIRA PROMOT.ENTRANC.ESPECIAL UBÁ - COMARCA; UBA-PJ-06PJ 1.100,00 0,00 1.279,20 0,00 5.614,85 0,00 0,00 0,00 514,69 31/07/2020
805 1066300 BRUNO HENRIQUE ALVES DE LIMA ESTAGIARIO SETE LAGOAS; SETE LAGOAS-PJ-SEC CRIMINAIS 0,00 0,00 0,00 189,00 0,00 0,00 0,00 0,00 0,00 31/07/2020
806 378300 BRUNO HERDY LOPES DE OLIVEIRA ANALISTA DO MP GOVERNADOR VALADARES - COMARCA; GOVERNADOR VALADARES-PJ-SECRETARIA 1.100,00 0,00 450,00 0,00 0,00 0,00 0,00 0,00 0,00 31/07/2020
807 529700 BRUNO JOSE BUENO DIAS OFICIAL DO MP SÃO SEBASTIÃO DO PARAÍSO - COMARCA; SAO SEBASTIAO DO PARAISO-PJ-02PJ 1.100,00 0,00 450,00 0,00 0,00 0,00 0,00 0,00 0,00 31/07/2020
808 1076400 BRUNO JOSE RIBEIRO ESTAGIARIO CLAUDIO; CLAUDIO-PJ-UNPJ
809 967300 BRUNO LANNA DE OLIVEIRA FERRARI ESTAGIARIO JUIZ DE FORA; JUIZ DE FORA-PJ-14PJ
810 350100 BRUNO LAUD SERRANO DOS REIS OFICIAL DO MP UBÁ - COMARCA; UBA-PJ-02PJ 1.100,00 0,00 450,00 0,00 0,00 0,00 0,00 0,00 0,00 31/07/2020
811 1125100 BRUNO MARQUES DA SILVA ESTAGIARIO BELO HORIZONTE; BH-23PJ CIVEL
812 530600 BRUNO MARQUES DE ALMEIDA ROSSI PROMOTOR 1A ENTRANCIA PRESIDENTE OLEGÁRIO - COMARCA; PRESIDENTE OLEGARIO-PJ-UNPJ 1.100,00 0,00 2.409,16 0,00 11.148,28 0,00 0,00 0,00 464,51 31/07/2020
813 1028900 BRUNO MARQUES JIMENEZ ABAD ESTAGIARIO VARGINHA; VARGINHA-PJ-03PJ
814 373800 BRUNO MARTINO DE ALBUQUERQUE ANALISTA DO MP PONTE NOVA - COMARCA; PONTE NOVA-PJ-03PJ 1.100,00 0,00 450,00 0,00 0,00 0,00 0,00 0,00 0,00 31/07/2020
815 470400 BRUNO NOVAIS CABRAL ANALISTA DO MP MUTUM - COMARCA; MUTUM-PJ-UNPJ 1.100,00 0,00 450,00 0,00 0,00 0,00 0,00 0,00 0,00 31/07/2020
816 457300 BRUNO OLIVEIRA MULLER PROMOT.ENTRANC.ESPECIAL ITABIRA - COMARCA; ITABIRA-PJ-05PJ 1.100,00 0,00 3.225,40 0,00 5.614,85 0,00 0,00 0,00 514,69 31/07/2020
817 648600 BRUNO RIBEIRO E MELO ASSESSOR BELO HORIZONTE - COMARCA; DIR RELACOES INSTITUCIONAIS 1.100,00 0,00 450,00 0,00 0,00 0,00 0,00 0,00 0,00 31/07/2020
818 369200 BRUNO ROBERTO DIAS DE OLIVEIRA OFICIAL DO MP BELO HORIZONTE - COMARCA; BH-22PJ PES COM DEF E IDOSOS-SECRETARIA 1.100,00 0,00 450,00 0,00 0,00 0,00 0,00 0,00 0,00 31/07/2020
819 547700 BRUNO ROBERTO SOUZA GONCALVES ANALISTA DO MP PARACATU - COMARCA; PARACATU-PJ-03PJ 1.100,00 1.538,78 450,00 0,00 0,00 0,00 0,00 0,00 0,00 31/07/2020
820 546100 BRUNO SA VIEIRA ANALISTA DO MP ERVÁLIA - COMARCA; ERVALIA-PJ-UNPJ 1.100,00 0,00 450,00 0,00 0,00 0,00 0,00 0,00 0,00 31/07/2020
821 438200 BRUNO SALES PEREIRA ANALISTA DO MP BELO HORIZONTE - COMARCA; CENTRAL DE APOIO TECNICO-SETOR CONTABIL 1.100,00 769,39 450,00 0,00 0,00 0,00 0,00 0,00 0,00 31/07/2020
822 537400 BRUNO SANT'ANA CESAR ANALISTA DO MP CONTAGEM - COMARCA; CONTAGEM-PJ-19PJ 1.100,00 0,00 450,00 0,00 0,00 0,00 0,00 0,00 0,00 31/07/2020
823 343500 BRUNO SCHIAVO CRUZ PROMOT.ENTRANC.ESPECIAL IPATINGA - COMARCA; GAECO REGIONAL DE IPATINGA 1.100,00 0,00 2.878,20 0,00 5.614,85 0,00 0,00 0,00 514,69 31/07/2020
824 937500 BRUNO SEABRA DUMONT ESTAGIARIO BONFIM; BONFIM-PJ-UNPJ 0,00 0,00 0,00 189,00 0,00 0,00 0,00 0,00 0,00 31/07/2020
825 911100 BRUNO WILLIANS PAULINO DE MELLO ESTAGIARIO BELO HORIZONTE; PROC. JUSTICA CRIMINAL
826 655800 CAEL KALINOWSKI SOUZA MATTA INVESTIGADOR DE POLICIA 2 BELO HORIZONTE - COMARCA; NUCLEO DE INFORMACOES E INTELIGENCIA 1.100,00 0,00 0,00 0,00 0,00 0,00 0,00 0,00 0,00 31/07/2020
827 1047600 CAIO ALESSI FERREIRA DE CARVALHO ESTAGIARIO BELO HORIZONTE; BH-18PJ VIOLENCIA DOMESTICA-SECRETARIA 0,00 0,00 0,00 18,00 0,00 0,00 0,00 0,00 0,00 31/07/2020
828 1135500 CAIO ANTONIO DO AMARAL BRAGA ALVES ESTAGIARIO ESPERA FELIZ; ESPERA FELIZ-PJ-UNPJ 0,00 0,00 0,00 54,00 0,00 0,00 0,00 0,00 0,00 31/07/2020
829 1051200 CAIO BASSOLI ESTAGIARIO JUIZ DE FORA; JUIZ DE FORA-PJ-20PJ
830 666900 CAIO CESAR ESPIRITO SANTO DO NASCIMENTO PROMOTOR 1A ENTRANCIA JEQUITINHONHA - COMARCA; JEQUITINHONHA-PJ-UNPJ 1.100,00 0,00 1.300,52 0,00 5.067,40 0,00 0,00 0,00 464,51 31/07/2020
831 1023500 CAIO FELIPE MONTEIRO SILVEIRA ESTAGIARIO BOCAIUVA; BOCAIUVA-PJ-02PJ
832 405800 CAIO FERNANDO RODRIGUES DE OLIVEIRA ANALISTA DO MP BELO HORIZONTE - COMARCA; ASSESS TECNICO-JUR JUNTO AS PROC. DE JUST 1.100,00 0,00 450,00 0,00 0,00 0,00 0,00 0,00 0,00 31/07/2020
833 530000 CAIO GUEDES DE OLIVEIRA ANALISTA DO MP DIAMANTINA - COMARCA; DIAMANTINA-PJ-02PJ 1.100,00 769,39 450,00 0,00 0,00 0,00 0,00 0,00 0,00 31/07/2020
834 1118400 CAIO HENRIQUE DE FREITAS MELO ESTAGIARIO UBERABA; UBERABA-PJ-02PJ 0,00 0,00 0,00 27,00 0,00 0,00 0,00 0,00 0,00 31/07/2020
835 971000 CAIO LEMOS SILVA ESTAGIARIO PASSOS; PASSOS-PJ-02PJ 0,00 0,00 0,00 18,00 0,00 0,00 0,00 0,00 0,00 31/07/2020
836 1070500 CAIO LUCAS FERREIRA DOS SANTOS ESTAGIARIO BELO HORIZONTE; DIRETORIA DE SISTEMAS DE INFORMACAO
837 1026300 CAIO MAGNO GONCALVES DOS SANTOS ESTAGIARIO BONFINOPOLIS DE MINAS; BONFINOPOLIS DE MINAS-PJ-UNPJ 0,00 0,00 0,00 54,00 0,00 0,00 0,00 0,00 0,00 31/07/2020
838 491400 CAIO MIRANDA JUNQUEIRA ANALISTA DO MP BUENO BRANDAO - COMARCA; BUENO BRANDAO-PJ-UNPJ 1.100,00 769,39 450,00 0,00 0,00 0,00 0,00 0,00 0,00 31/07/2020
839 1145800 CAIO NAVARRO NEVES ESTAGIARIO ARAGUARI; ARAGUARI-PJ-02PJ 0,00 0,00 0,00 189,00 0,00 0,00 0,00 0,00 0,00 31/07/2020
840 668300 CAIO PALLU COSTA PROMOTOR SUBSTITUTO GOVERNADOR VALADARES - COMARCA; GOVERNADOR VALADARES-PJ-10PJ 1.100,00 0,00 2.582,12 0,00 5.067,40 0,00 0,00 0,00 464,51 31/07/2020
841 671600 CAIO ROTHSAHL BOTELHO PROMOTOR SUBSTITUTO ALMENARA - COMARCA; ALMENARA-PJ-02PJ 1.100,00 0,00 1.449,76 0,00 0,00 0,00 0,00 0,00 0,00 31/07/2020
842 171000 CAIUS VINICIUS GONZAGA GOULART PROMOT.ENTRANC.ESPECIAL BELO HORIZONTE - COMARCA; BH-12PJ JUIZO CRIMINAL-GAB 106PJ 1.100,00 0,00 0,00 0,00 12.352,67 0,00 0,00 0,00 514,69 31/07/2020
843 82300 CALIXTO OLIVEIRA SOUZA PROMOT.ENTRANC.ESPECIAL DIVINÓPOLIS - COMARCA; DIVINOPOLIS-PJ-01PJ 1.100,00 0,00 2.345,18 0,00 12.352,67 0,00 0,00 0,00 514,69 31/07/2020
844 415800 CAMILA ALVES DA SILVA ANALISTA DO MP CAETÉ - COMARCA; CAETE-PJ-01PJ 1.100,00 0,00 450,00 0,00 0,00 0,00 0,00 0,00 0,00 31/07/2020
845 1063800 CAMILA BARBOSA DE REZENDE PAIVA ESTAGIARIO
846 1069600 CAMILA BRITO NERY ESTAGIARIO UBERLANDIA; UBERLANDIA-PJ-25PJ 0,00 0,00 0,00 180,00 0,00 0,00 0,00 0,00 0,00 31/07/2020
847 1055500 CAMILA CAFIERO BICALHO ESTAGIARIO BELO HORIZONTE; BH-17PJ PATRIMONIO PUBLICO-GAB 120PJ
848 555800 CAMILA CAROLINE ROCHA CHAVES OFICIAL DO MP SALINAS - COMARCA; SALINAS-PJ-01PJ 1.100,00 0,00 450,00 0,00 0,00 0,00 0,00 0,00 0,00 31/07/2020
849 1056400 CAMILA CARVALHO FREITAS ESTAGIARIO BELO HORIZONTE; PROC JUST ESP ACOES COMP ORIG CRIMINAL-GAB
850 445200 CAMILA CONDE ROCHA ANALISTA DO MP CONTAGEM - COMARCA; CONTAGEM-PJ-08PJ 1.100,00 769,39 450,00 0,00 0,00 0,00 0,00 0,00 0,00 31/07/2020
851 419900 CAMILA CUNNINGHAM PIMENTA DE PADUA ANALISTA DO MP BELO HORIZONTE - COMARCA; ASSESSORIA PSICOSSOCIAL 1.100,00 0,00 450,00 0,00 0,00 0,00 0,00 0,00 0,00 31/07/2020
852 998800 CAMILA DE CASTRO COELHO ESTAGIARIO ERVALIA; ERVALIA-PJ-UNPJ
853 1107600 CAMILA DE SOUSA CUNHA ESTAGIARIO BARROSO; BARROSO-PJ-01PJ 0,00 0,00 0,00 18,00 0,00 0,00 0,00 0,00 0,00 31/07/2020
854 507700 CAMILA ELIZABETH RODRIGUES ANALISTA DO MP BELO HORIZONTE - COMARCA; BH-02PJ FAMILIA-SECRETARIA 1.100,00 0,00 450,00 0,00 0,00 0,00 0,00 0,00 0,00 31/07/2020
855 372700 CAMILA FONSECA LIMONGE ANALISTA DO MP BETIM - COMARCA; BETIM-PJ-01PJ 1.100,00 769,39 450,00 0,00 0,00 0,00 0,00 0,00 0,00 31/07/2020
856 1014700 CAMILA FORTINI DOS SANTOS ESTAGIARIO VESPASIANO; VESPASIANO-PJ-04PJ
857 947100 CAMILA GENDORF GOMES ESTAGIARIO BELO HORIZONTE; BH-02PJ FAMILIA
858 621300 CAMILA GOLFETO DE SOUSA VALENTE OFICIAL DO MP ESPERA FELIZ - COMARCA; ESPERA FELIZ-PJ-UNPJ 1.100,00 1.870,62 450,00 0,00 0,00 0,00 0,00 0,00 0,00 31/07/2020
859 409800 CAMILA GONCALVES COSTA RIBEIRO ANALISTA DO MP INHAPIM - COMARCA; INHAPIM-PJ-02PJ 1.100,00 769,39 450,00 0,00 0,00 0,00 0,00 0,00 0,00 31/07/2020
860 335000 CAMILA GONTIJO DE PAIVA ANALISTA DO MP BELO HORIZONTE - COMARCA; COORD DE CONTROLE CONSTITUCIONALIDADE 1.100,00 769,39 450,00 0,00 0,00 0,00 0,00 0,00 0,00 31/07/2020
861 1107200 CAMILA IMACULADA OLIVEIRA ESTAGIARIO BELO HORIZONTE; GABINETE DE PROCURADOR DE JUSTIÇA - SALA 804
862 940500 CAMILA MARIZ MACEDO ESTAGIARIO BELO HORIZONTE; BH-12PJ JUIZO CRIMINAL-GAB 083PJ 0,00 0,00 0,00 9,00 0,00 0,00 0,00 0,00 0,00 31/07/2020
863 973300 CAMILA MARTINS MOREIRA ALBINO ESTAGIARIO UBA; UBA-PJ-02PJ 0,00 0,00 0,00 9,00 0,00 0,00 0,00 0,00 0,00 31/07/2020
864 547800 CAMILA MATTARELLI DE ABREU E SILVA ANALISTA DO MP BELO HORIZONTE - COMARCA; CAO-VIOLENCIA DOMESTICA E FAMILIAR 1.100,00 0,00 450,00 0,00 0,00 0,00 0,00 0,00 0,00 31/07/2020
865 1141300 CAMILA OLIVEIRA GIACOMETO ESTAGIARIO UBERABA; UBERABA-PJ-08PJ
866 1076300 CAMILA RODRIGUES ANDRADE ESTAGIARIO BELO HORIZONTE; BH-23PJ CIVEL
867 1025700 CAMILA RODRIGUES JARDIM ESTAGIARIO BELO HORIZONTE; DIR RELACOES INSTITUCIONAIS
868 1093800 CAMILA SILVA COSTA LOPES REZENDE ESTAGIARIO PIUMHI; PIUMHI-PJ-01PJ 0,00 0,00 0,00 54,00 0,00 0,00 0,00 0,00 0,00 31/07/2020
869 1072900 CAMILA TEIXEIRA CORDEIRO ESTAGIARIO BELO HORIZONTE; PROC. JUSTICA CRIMINAL 0,00 0,00 0,00 45,00 0,00 0,00 0,00 0,00 0,00 31/07/2020
870 886100 CAMILA YAMASHITA DE FREITAS ESTAGIARIO ITUIUTABA; ITUIUTABA-PJ-04PJ 0,00 0,00 0,00 90,00 0,00 0,00 0,00 0,00 0,00 31/07/2020
871 1013500 CAMILLA CRISTINA PACHECO DE MELO ESTAGIARIO BELO HORIZONTE; BH-12PJ JUIZO CRIMINAL-GAB 088PJ
872 1068400 CAMILLA MARIA GUIMARAES PERTENCE ESTAGIARIO BELO HORIZONTE; PROC. JUSTICA CIVEL
873 898300 CAMILLA MARTINS MAZZONI E MARTINS ESTAGIARIO ITANHOMI; ITANHOMI-PJ-UNPJ 0,00 0,00 0,00 180,00 0,00 0,00 0,00 0,00 0,00 31/07/2020
874 1097800 CAMILLA VERGINIO COSTA ESTAGIARIO 0,00 0,00 0,00 126,00 0,00 0,00 0,00 0,00 0,00 31/07/2020
875 1039100 CAMILO PRATES ESTAGIARIO BELO HORIZONTE; PROC. JUSTICA DE HABEAS CORPUS
876 430000 CANDIDA MARINA COSTA ANALISTA DO MP BELO HORIZONTE - COMARCA; DIVISAO DE DOCUMENTACAO JURIDICA 1.100,00 0,00 450,00 0,00 0,00 0,00 0,00 0,00 0,00 31/07/2020
877 1074100 CARINA CONSTANCIA BARBOSA ESTAGIARIO BELO HORIZONTE; BH-12PJ JUIZO CRIMINAL-GAB 093PJ
878 614300 CARINA CORTIELHA OFICIAL DO MP BELO HORIZONTE - COMARCA; BH-23PJ CIVEL-SEC EXP CIVEIS 1.100,00 0,00 450,00 0,00 0,00 0,00 0,00 0,00 0,00 31/07/2020
879 380400 CARINA DIAS FACANHA DE SOUZA ANALISTA DO MP SANTA RITA DO SAPUCAÍ - COMARCA; SANTA RITA DO SAPUCAI-PJ-SECRETARIA 1.100,00 0,00 450,00 0,00 0,00 0,00 0,00 0,00 0,00 31/07/2020
880 924300 CARINA MENEZES DE MOURA ESTAGIARIO MATEUS LEME; MATEUS LEME-PJ-01PJ 0,00 0,00 0,00 27,00 0,00 0,00 0,00 0,00 0,00 31/07/2020
881 255000 CARLA ADRIANA DE MENEZES OFICIAL DO MP BELO HORIZONTE - COMARCA; CENT DE APOIO TEC-SETOR DEF,IDOSO E INFANC 1.100,00 0,00 450,00 0,00 0,00 0,00 0,00 0,00 0,00 31/07/2020
882 425100 CARLA ADRIANA DINIZ AMARAL OFICIAL DO MP CONTAGEM - COMARCA; CONTAGEM-PJ-08PJ 1.100,00 0,00 450,00 0,00 0,00 0,00 0,00 0,00 0,00 31/07/2020
883 508100 CARLA ALESSANDRA FONSECA ANALISTA DO MP BELO HORIZONTE - COMARCA; CAO-ORDEM ECONOMICA E TRIBUTARIA-SECRETARIA 1.100,00 0,00 450,00 0,00 0,00 0,00 0,00 0,00 0,00 31/07/2020
884 607100 CARLA ANGELICA DIAS MIRANDA OFICIAL DO MP JABOTICATUBAS - COMARCA; JABOTICATUBAS-PJ-UNPJ 1.100,00 0,00 450,00 0,00 0,00 0,00 0,00 0,00 0,00 31/07/2020
885 351500 CARLA APARECIDA MENDES RAMIRIO OFICIAL DO MP PASSOS - COMARCA; PASSOS-PJ-01PJ 1.100,00 0,00 450,00 0,00 0,00 0,00 0,00 0,00 0,00 31/07/2020
886 1067500 CARLA CRISTINA LOPES OLIVEIRA ESTAGIARIO ITAMARANDIBA; ITAMARANDIBA-PJ-UNPJ
887 1121300 CARLA DE ASSIS CLEMENTE ESTAGIARIO BELO HORIZONTE; BH-18PJ VIOLENCIA DOMESTICA-GAB 053PJ
888 1081900 CARLA DOS SANTOS SOUZA ESTAGIARIO ESPERA FELIZ; ESPERA FELIZ-PJ-UNPJ 0,00 0,00 0,00 72,00 0,00 0,00 0,00 0,00 0,00 31/07/2020
889 442800 CARLA GONCALVES COSTA SOALHEIRO ANALISTA DO MP GOVERNADOR VALADARES - COMARCA; GOVERNADOR VALADARES-PJ-11PJ 1.100,00 769,39 450,00 0,00 0,00 0,00 0,00 0,00 0,00 31/07/2020
890 321500 CARLA GONCALVES MASSOTE OFICIAL DO MP CAMPO BELO - COMARCA; CAMPO BELO-PJ-01PJ 1.100,00 0,00 450,00 0,00 0,00 0,00 0,00 0,00 0,00 31/07/2020
891 429200 CARLA HAUTEQUESTT BECHARA COORDENADOR/ANALISTA BELO HORIZONTE - COMARCA; DIRET DE INFORMACAO E CONHECIMENTO-DINC/CEAF 1.100,00 0,00 450,00 0,00 0,00 0,00 0,00 0,00 0,00 31/07/2020
892 1061300 CARLA LOPES MIRANDA ESTAGIARIO GOVERNADOR VALADARES; GOVERNADOR VALADARES-PJ-07PJ
893 157400 CARLA MARIA ALESSI LAFETA DE CARVALHO PROMOT.ENTRANC.ESPECIAL BELO HORIZONTE - COMARCA; BH-25PJ DEFESA DA EDUCACAO-GAB 050PJ 1.100,00 0,00 3.368,54 0,00 5.614,85 0,00 0,00 0,00 514,69 31/07/2020
894 1100400 CARLA MARTINELLI ESTAGIARIO ANDRADAS; ANDRADAS-PJ-01PJ
895 247500 CARLA MATILDE GUIMARAES DE OLIVEIRA OFICIAL DO MP ITAJUBA - COMARCA; ITAJUBA-PJ-SECRETARIA 1.100,00 0,00 450,00 0,00 0,00 0,00 0,00 0,00 0,00 31/07/2020
896 226100 CARLA MERLI DA CONCEICAO ANALISTA DO MP BELO HORIZONTE - COMARCA; CENTRAL DE APOIO TECNICO-SETOR CONTABIL 1.100,00 0,00 450,00 0,00 0,00 0,00 0,00 0,00 0,00 31/07/2020
897 343100 CARLA REGINA GOULART SALARO DUVANEL PROMOT.ENTRANC.ESPECIAL GOVERNADOR VALADARES - COMARCA; GOVERNADOR VALADARES-PJ-06PJ 1.100,00 0,00 1.279,20 0,00 5.614,85 0,00 0,00 0,00 514,69 31/07/2020
898 532600 CARLA RODRIGUES FAZUOLI PROMOTOR 2A ENTRANCIA SACRAMENTO - COMARCA; SACRAMENTO-PJ-02PJ 1.100,00 0,00 746,20 0,00 0,00 0,00 0,00 0,00 0,00 31/07/2020
899 879400 CARLA RODRIGUES NASCIMENTO ESTAGIARIO IPATINGA; IPATINGA-PJ-02PJ
900 1102000 CARLIANE MARTINS GOMES ESTAGIARIO SACRAMENTO; SACRAMENTO-PJ-01PJ 0,00 0,00 0,00 72,00 0,00 0,00 0,00 0,00 0,00 31/07/2020
901 181401 CARLO MICHEL GAUDENSI COELHO ANALISTA DO MP BELO HORIZONTE - COMARCA; BH-08PJ JUIZADO ESPECIAL-SECRETARIA 1.100,00 0,00 450,00 0,00 0,00 0,00 0,00 0,00 0,00 31/07/2020
902 634000 CARLOS ALBERTO AMORMINO TRIGUEIRO ANALISTA DO MP BELO HORIZONTE - COMARCA; DIRET DE APOIO AS PROCURADORIAS DE JUSTICA 1.100,00 25,65 450,00 0,00 0,00 0,00 0,00 0,00 0,00 31/07/2020
903 232300 CARLOS ALBERTO DA SILVEIRA ISOLDI FILHO PROMOT.ENTRANC.ESPECIAL BELO HORIZONTE - COMARCA; BH-09PJ AUDITORIA MILITAR-GAB 074PJ 1.100,00 0,00 2.643,68 0,00 5.614,85 0,00 0,00 0,00 514,69 31/07/2020
904 637900 CARLOS ALBERTO DE MOURA OFICIAL DO MP SETE LAGOAS - COMARCA; SETE LAGOAS-PJ-07PJ 1.100,00 769,39 450,00 0,00 0,00 0,00 0,00 0,00 0,00 31/07/2020
905 638700 CARLOS ALBERTO FERREIRA BRAGA ANALISTA DO MP RIBEIRÃO DAS NEVES - COMARCA; SEC PJ EXECUCAO PENAL RIBEIRAO NEVES 1.100,00 0,00 450,00 0,00 0,00 0,00 0,00 0,00 0,00 31/07/2020
906 54400 CARLOS ALBERTO RIBEIRO MOREIRA PROMOTOR 2A ENTRANCIA LAVRAS - COMARCA; LAVRAS-PJ-02PJ 1.100,00 0,00 2.558,38 0,00 11.735,04 0,00 0,00 0,00 488,96 31/07/2020
907 375801 CARLOS ALBERTO ROCHA ANALISTA DO MP ELOI MENDES - COMARCA; ELOI MENDES-PJ-SECRETARIA 1.100,00 0,00 450,00 0,00 0,00 0,00 0,00 0,00 0,00 31/07/2020
908 110700 CARLOS ALBERTO VALERA PROMOT.ENTRANC.ESPECIAL UBERABA - COMARCA; COORD REG BACIAS PARANAIBA BAIXO RIO GRANDE 1.100,00 0,00 980,72 0,00 12.352,67 0,00 0,00 0,00 514,69 31/07/2020
909 94200 CARLOS ANDRE MARIANI BITTENCOURT PROCURADOR DE JUSTICA BELO HORIZONTE - COMARCA; GABINETE DE PROCURADOR DE JUSTIÇA - SALA 405 1.100,00 0,00 2.664,99 0,00 5.910,37 0,00 0,00 0,00 541,78 31/07/2020
910 462800 CARLOS ANDREI SOARES FAGUNDES ANALISTA DO MP MONTES CLAROS - COMARCA; MONTES CLAROS-PJ-09PJ 1.100,00 769,39 450,00 0,00 0,00 0,00 0,00 0,00 0,00 31/07/2020
911 370300 CARLOS AUGUSTO BUENO DIAS ASSESSOR BELO HORIZONTE - COMARCA; SUPERINTENDÊNCIA DE ENGENHARIA E ARQUITETURA 1.100,00 0,00 450,00 0,00 0,00 0,00 0,00 0,00 0,00 31/07/2020
912 66200 CARLOS AUGUSTO CANEDO GONCALVES DA SILVA PROCURADOR DE JUSTICA BELO HORIZONTE - COMARCA; GABINETE DE PROCURADOR DE JUSTIÇA - SALA 911 1.100,00 0,00 3.539,11 0,00 2.364,15 0,00 0,00 0,00 216,71 31/07/2020
913 83200 CARLOS AUGUSTO ESTEVES DE CARVALHO PROMOT.ENTRANC.ESPECIAL JUIZ DE FORA - COMARCA; JUIZ DE FORA-PJ-16PJ 1.100,00 0,00 1.172,59 0,00 39.303,96 0,00 0,00 0,00 514,69 31/07/2020
914 143500 CARLOS AUGUSTO GOMES BRAGA PROMOT.ENTRANC.ESPECIAL BELO HORIZONTE - COMARCA; BH-03PJ EMPRESARIAL-GAB 036PJ 1.100,00 0,00 2.494,43 0,00 5.614,85 0,00 0,00 0,00 514,69 31/07/2020
915 110800 CARLOS CESAR MARQUES LUZ PROMOTOR 1A ENTRANCIA JACUTINGA - COMARCA; JACUTINGA-PJ-UNPJ 1.100,00 0,00 0,00 0,00 5.067,40 0,00 0,00 0,00 464,51 31/07/2020
916 505100 CARLOS CEZAR CARVALHO ANALISTA DO MP RIBEIRÃO DAS NEVES - COMARCA; RIBEIRAO DAS NEVES-PJ-04PJ 1.100,00 0,00 450,00 0,00 0,00 0,00 0,00 0,00 0,00 31/07/2020
917 195900 CARLOS DE SOUZA FERREIRA OFICIAL DO MP COROMANDEL - COMARCA; COROMANDEL-PJ-01PJ 1.100,00 0,00 450,00 0,00 0,00 0,00 0,00 0,00 0,00 31/07/2020
918 344300 CARLOS EDUARDO AVANZI DE ALMEIDA PROMOTOR 2A ENTRANCIA CAMPO BELO - COMARCA; CAMPO BELO-PJ-03PJ 1.100,00 0,00 2.451,80 0,00 5.334,11 0,00 0,00 0,00 488,96 31/07/2020
919 196800 CARLOS EDUARDO DE OLIVEIRA MARINHO OFICIAL DO MP ALPINÓPOLIS - COMARCA; ALPINOPOLIS-PJ-UNPJ 1.100,00 0,00 450,00 0,00 0,00 0,00 0,00 0,00 0,00 31/07/2020
920 157500 CARLOS EDUARDO DUTRA PIRES PROMOT.ENTRANC.ESPECIAL SETE LAGOAS - COMARCA; SETE LAGOAS-PJ-03PJ 1.100,00 0,00 2.025,39 0,00 12.352,67 0,00 0,00 0,00 514,69 31/07/2020
921 483200 CARLOS EDUARDO FERNANDES NEVES RIBEIRO PROMOT.ENTRANC.ESPECIAL BARBACENA - COMARCA; BARBACENA-PJ-08PJ 1.100,00 0,00 1.492,40 0,00 5.614,85 0,00 0,00 0,00 514,69 31/07/2020
922 315400 CARLOS EDUARDO FERREIRA PINTO PROMOT.ENTRANC.ESPECIAL RIBEIRÃO DAS NEVES - COMARCA; RIBEIRAO DAS NEVES-PJ-01PJ 1.100,00 0,00 1.790,88 0,00 5.614,85 0,00 0,00 0,00 514,69 31/07/2020
923 55300 CARLOS EDUARDO MAFRA CAVALCANTI PROCURADOR DE JUSTICA BELO HORIZONTE - COMARCA; GABINETE DE PROCURADOR DE JUSTIÇA - SALA 503 1.100,00 0,00 2.558,38 0,00 5.910,37 0,00 0,00 0,00 541,78 31/07/2020
924 650800 CARLOS EDUARDO NIZA DA SILVA OFICIAL DO MP IGARAPÉ - COMARCA; IGARAPE-PJ-01PJ 1.100,00 0,00 450,00 0,00 0,00 0,00 0,00 0,00 0,00 31/07/2020
925 491800 CARLOS EDUARDO ROMAN OFICIAL DO MP BARBACENA - COMARCA; BARBACENA-PJ-09PJ 1.100,00 0,00 450,00 0,00 0,00 0,00 0,00 0,00 0,00 31/07/2020
926 157600 CARLOS EUGENIO SOUTO MAIOR FILIZOLA JUNIOR PROMOTOR 2A ENTRANCIA ENTRE-RIOS DE MINAS - COMARCA; ENTRE RIOS DE MINAS-PJ-UNPJ 1.100,00 0,00 0,00 0,00 0,00 0,00 0,00 0,00 0,00 31/07/2020
927 1122900 CARLOS GUILHERME COLLENGHI DIAS ESTAGIARIO UBERABA; UBERABA-PJ-04PJ
928 1061800 CARLOS HENRIQUE ALVES MOURAO ESTAGIARIO MONTES CLAROS; COORD REG PATRI PUB ORD TRIB-NORTE MINAS
929 299300 CARLOS HENRIQUE BICALHO ANALISTA DO MP BELO HORIZONTE - COMARCA; BH-17PJ PATRIMONIO PUBLICO-SECRETARIA 1.100,00 769,39 450,00 0,00 0,00 0,00 0,00 0,00 0,00 31/07/2020
930 205100 CARLOS HENRIQUE ESTEVES OFICIAL DO MP ITAMBACURI - COMARCA; ITAMBACURI-PJ-01PJ 1.100,00 0,00 450,00 0,00 0,00 0,00 0,00 0,00 0,00 31/07/2020
931 351600 CARLOS HENRIQUE FELICIO DA FONSECA OFICIAL DO MP JUIZ DE FORA - COMARCA; JUIZ DE FORA-PJ-21PJ 1.100,00 0,00 450,00 0,00 0,00 0,00 0,00 0,00 0,00 31/07/2020
932 1115300 CARLOS HENRIQUE MESQUITA DO PRADO ESTAGIARIO BELO HORIZONTE; COORD DE INCLUSAO E MOBILIZACAO SOCIAIS
933 657100 CARLOS HENRIQUE SOUSA DA SILVA MAJOR BELO HORIZONTE - COMARCA; NUCLEO DE COMBATE AOS CRIMES AMBIENTAIS 1.100,00 0,00 0,00 0,00 0,00 0,00 0,00 0,00 0,00 31/07/2020
934 210900 CARLOS HENRIQUE TORRES DE SOUZA PROMOT.ENTRANC.ESPECIAL BELO HORIZONTE - COMARCA; CHEFIA DE GABINETE 1.100,00 0,00 2.192,84 0,00 12.352,67 0,00 0,00 0,00 514,69 31/07/2020
935 104600 CARLOS JOSE E SILVA FORTES PROMOT.ENTRANC.ESPECIAL DIVINÓPOLIS - COMARCA; DIVINOPOLIS-PJ-06PJ 1.100,00 0,00 2.302,56 0,00 5.614,85 0,00 0,00 0,00 514,69 31/07/2020
936 656200 CARLOS JOSE GOMES ALVES 2O.TENENTE BELO HORIZONTE - COMARCA; NUCLEO DE OPERACOES DE SEGURANCA ORGANICA 1.100,00 0,00 0,00 0,00 0,00 0,00 0,00 0,00 0,00 31/07/2020
937 85400 CARLOS JOSE VIEIRA OFICIAL DO MP BELO HORIZONTE - COMARCA; DIRETORIA DO COLEGIO E DA CAMARA DE PJ 1.100,00 0,00 450,00 0,00 1.418,49 0,00 0,00 0,00 130,03 31/07/2020
938 229100 CARLOS MERCES DE OLIVEIRA ANALISTA DO MP BELO HORIZONTE - COMARCA; CENTRAL DE APOIO TECN-SETOR DE MEIO AMBIENTE 1.100,00 0,00 450,00 0,00 0,00 0,00 0,00 0,00 0,00 31/07/2020
939 538300 CARLOS RANGEL SILVA DE MELO ANALISTA DO MP BELO HORIZONTE - COMARCA; DIVISAO DE CONTROLE IMOBILIARIO 1.100,00 769,39 450,00 0,00 0,00 0,00 0,00 0,00 0,00 31/07/2020
940 265100 CARLOS REIFF MIRANDA ANALISTA DO MP BELO HORIZONTE - COMARCA; BH-19PJ SAUDE-SECRETARIA 150PJ 1.100,00 0,00 450,00 0,00 0,00 0,00 0,00 0,00 0,00 31/07/2020
941 592200 CARLOS ROBERTO BARBOSA AGENTE DE POLICIA BELO HORIZONTE - COMARCA; GAECO - SETOR POLICIAL CIVIL 1.100,00 0,00 0,00 0,00 0,00 0,00 0,00 0,00 0,00 31/07/2020
942 305400 CARLOS ROCHA DE SOUZA OFICIAL DO MP MONTALVÂNIA - COMARCA; MONTALVANIA-PJ-SECRETARIA 1.100,00 0,00 450,00 0,00 0,00 0,00 0,00 0,00 0,00 31/07/2020
943 371600 CARLOS SAMUEL BORGES CUNHA PROMOT.ENTRANC.ESPECIAL MANHUAÇU - COMARCA; MANHUACU-PJ-05PJ 1.100,00 0,00 852,80 0,00 5.614,85 0,00 0,00 0,00 514,69 31/07/2020
944 365100 CARLOS WAGNER SANDER MORAIS COORDENADOR/OFICIAL BELO HORIZONTE - COMARCA; DIRETORIA DE ADMINISTRACAO FINANCEIRA 1.100,00 0,00 450,00 0,00 0,00 0,00 0,00 0,00 0,00 31/07/2020
945 293400 CARLOS WILDE RIBEIRO DE MELLO PROMOT.ENTRANC.ESPECIAL BARBACENA - COMARCA; BARBACENA-PJ-07PJ 1.100,00 0,00 2.558,40 0,00 12.352,67 0,00 0,00 0,00 514,69 31/07/2020
946 399900 CARMELITA EVANGELISTA DE SOUZA OFICIAL DO MP JOÃO PINHEIRO - COMARCA; JOAO PINHEIRO-PJ-01PJ 1.100,00 0,00 450,00 0,00 0,00 0,00 0,00 0,00 0,00 31/07/2020
947 202000 CARMEN LUCIA MARIZ DE MACEDO OFICIAL DO MP BELO HORIZONTE - COMARCA; DIRETORIA GESTAO COMPRAS LICITACOES 1.100,00 0,00 450,00 0,00 5.844,29 0,00 0,00 0,00 535,73 31/07/2020
948 987800 CAROLAINE GOMES DE SOUZA ESTAGIARIO PARACATU; COORD REG PP NOROESTE MINAS GERAIS PARACATU 0,00 0,00 0,00 81,00 0,00 0,00 0,00 0,00 0,00 31/07/2020
949 1094400 CAROLAINY APARECIDA SOUZA CASTRO ESTAGIARIO VICOSA; VICOSA-PJ-01PJ 0,00 0,00 0,00 63,00 0,00 0,00 0,00 0,00 0,00 31/07/2020
950 359700 CAROLINA ANDRADE BORGES DE MATTOS PROMOTOR SUBSTITUTO BICAS - COMARCA; BICAS-PJ-UNPJ 1.100,00 0,00 2.174,64 0,00 5.067,40 0,00 0,00 0,00 464,51 31/07/2020
951 1103100 CAROLINA BONATO GONCALVES COSTA ESTAGIARIO BARBACENA; BARBACENA-PJ-08PJ
952 611000 CAROLINA CERIGATTO PROMOT.ENTRANC.ESPECIAL MANHUAÇU - COMARCA; MANHUACU-PJ-03PJ 1.100,00 0,00 0,00 0,00 0,00 0,00 0,00 0,00 449,19 31/07/2020
953 1101000 CAROLINA CHARBEL LEITAO DE ALMEIDA ESTAGIARIO BELO HORIZONTE; BH-18PJ VIOLENCIA DOMESTICA-GAB 178PJ
954 228500 CAROLINA CHIARELLA DOS SANTOS RIBEIRO ASSESSOR/OFICIAL BELO HORIZONTE - COMARCA; PROCURADORIA-GERAL ADJUNTA INSTITUCIONAL 1.100,00 0,00 450,00 0,00 0,00 0,00 0,00 0,00 0,00 31/07/2020
955 446500 CAROLINA COSTA VAL RODRIGUES ANALISTA DO MP CONTAGEM - COMARCA; CONTAGEM-PJ-05PJ 1.100,00 0,00 450,00 0,00 0,00 0,00 0,00 0,00 0,00 31/07/2020
956 603501 CAROLINA DOMINGOS BRANDAO RABELLO ANALISTA DO MP CARATINGA - COMARCA; CARATINGA-PJ-01PJ 1.100,00 0,00 450,00 0,00 0,00 0,00 0,00 0,00 0,00 31/07/2020
957 404300 CAROLINA DOS SANTOS VIEIRA ANALISTA DO MP BELO HORIZONTE - COMARCA; BH-08PJ JUIZADO ESPECIAL-SECRETARIA 1.100,00 0,00 450,00 0,00 0,00 0,00 0,00 0,00 0,00 31/07/2020
958 1039000 CAROLINA EVANGELISTA ALVES ESTAGIARIO BELO HORIZONTE; BH-18PJ VIOLENCIA DOMESTICA-GAB 185PJ
959 911700 CAROLINA FERNANDES MOREIRA DA COSTA SILVA ESTAGIARIO JUIZ DE FORA; JUIZ DE FORA-PJ-24PJ
960 634600 CAROLINA FRARE LAMEIRINHA PROMOTOR 2A ENTRANCIA CARMO DO PARANAÍBA - COMARCA; CARMO DO PARANAIBA-PJ-02PJ 1.100,00 0,00 1.833,52 0,00 0,00 0,00 0,00 0,00 0,00 31/07/2020
961 405401 CAROLINA GENTIL MEDEIROS MARQUEZ PROMOTOR SUBSTITUTO CONTAGEM - COMARCA; CONTAGEM-PJ-21PJ 1.100,00 0,00 2.345,20 0,00 0,00 0,00 0,00 0,00 0,00 31/07/2020
962 551200 CAROLINA LOPES ARANTES MASCARENHAS ANALISTA DO MP BELO HORIZONTE - COMARCA; EXTINTA-COORD EST DEF DIR FAM PES DEFIC IDOSO 1.100,00 769,39 450,00 0,00 0,00 0,00 0,00 0,00 0,00 31/07/2020
963 994100 CAROLINA LOPES DE AGUIAR ESTAGIARIO BELO HORIZONTE; BH-07PJ 01 TRIBUNAL DO JURI-GAB 060PJ
964 622600 CAROLINA LOREDO LOPES CATIZANI OFICIAL DO MP RIBEIRÃO DAS NEVES - COMARCA; RIBEIRAO DAS NEVES-PJ-12PJ 1.100,00 0,00 450,00 0,00 0,00 0,00 0,00 0,00 0,00 31/07/2020
965 1139100 CAROLINA MARIA DE ANDRADE RAMOS ESTAGIARIO 0,00 0,00 0,00 90,00 0,00 0,00 0,00 0,00 0,00 31/07/2020
966 362900 CAROLINA MARQUES ANDRADE PROMOTOR 2A ENTRANCIA FRUTAL - COMARCA; FRUTAL-PJ-02PJ 1.100,00 0,00 2.601,04 0,00 5.334,11 0,00 0,00 0,00 488,96 31/07/2020
967 929500 CAROLINA MARTINS DRIGO ESTAGIARIO UBERLANDIA; UBERLANDIA-PJ-02PJ
968 457400 CAROLINA MELO CAMPOS PROMOTOR SUBSTITUTO SABARÁ - COMARCA; SABARA-PJ-01PJ 1.100,00 0,00 746,20 0,00 5.067,40 0,00 0,00 0,00 464,51 31/07/2020
969 382200 CAROLINA MENDES CHAVES LIN ANALISTA DO MP BELO HORIZONTE - COMARCA; BH-12PJ JUIZO CRIMINAL-GAB 088PJ 1.100,00 769,39 450,00 0,00 0,00 0,00 0,00 0,00 0,00 31/07/2020
970 313600 CAROLINA MENDONCA DE SIQUEIRA PROMOT.ENTRANC.ESPECIAL BELO HORIZONTE - COMARCA; ASSESSORIA ESPECIAL DO PGJ 1.100,00 0,00 1.279,20 0,00 0,00 0,00 0,00 0,00 0,00 31/07/2020
971 461900 CAROLINA MURTA TEIXEIRA DIAS ASSESSOR/ANALISTA BELO HORIZONTE - COMARCA; PROCURADOR-GERAL DE JUSTIÇA 1.100,00 0,00 450,00 0,00 0,00 0,00 0,00 0,00 0,00 31/07/2020
972 509600 CAROLINA PINTO DE OLIVEIRA SOUZA ANALISTA DO MP MURIAÉ - COMARCA; MURIAE-PJ-01PJ 1.100,00 1.922,93 450,00 0,00 0,00 0,00 0,00 0,00 0,00 31/07/2020
973 526400 CAROLINA QUEIROZ DE CARVALHO PROMOT.ENTRANC.ESPECIAL CONSELHEIRO LAFAIETE - COMARCA; CONSELHEIRO LAFAIETE-PJ-02PJ 1.100,00 0,00 0,00 0,00 5.614,85 0,00 0,00 0,00 514,69 31/07/2020
974 667000 CAROLINA RITA TORRES GRUBER PROMOTOR 1A ENTRANCIA GRAO MOGOL - COMARCA; GRAO MOGOL-PJ-UNPJ 1.100,00 0,00 1.407,12 0,00 5.067,40 0,00 0,00 0,00 464,51 31/07/2020
975 629100 CAROLINA RODRIGUES AMARAL ANALISTA DO MP BELO HORIZONTE - COMARCA; PROC. JUSTICA DIR. DIFUSOS E COLETIVOS-SEC 1.100,00 0,00 450,00 0,00 0,00 0,00 0,00 0,00 0,00 31/07/2020
976 502600 CAROLINA RODRIGUES RUBEN ANALISTA DO MP BELO HORIZONTE - COMARCA; BH-18PJ VIOLENCIA DOMESTICA-SECRETARIA 1.100,00 1.538,78 450,00 0,00 0,00 0,00 0,00 0,00 0,00 31/07/2020
977 1045600 CAROLINA SANTOS FERREIRA DE LEMOS ESTAGIARIO BELO HORIZONTE; COORD DE INCLUSAO E MOBILIZACAO SOCIAIS
978 896100 CAROLINA SOARES SOUZA ESTAGIARIO BELO HORIZONTE; DIR CRIACAO E MIDIAS
979 1032800 CAROLINA STEFANE SILVA MOREIRA ESTAGIARIO VESPASIANO; VESPASIANO-PJ-06PJ
980 1144200 CAROLINA TEIXEIRA SILVA ESTAGIARIO ARINOS; ARINOS-PJ-UNPJ 0,00 0,00 0,00 189,00 0,00 0,00 0,00 0,00 0,00 31/07/2020
981 529600 CAROLINA VAZ DE MELO MAMBRINI ANALISTA DO MP MINAS NOVAS - COMARCA; MINAS NOVAS-PJ-UNPJ 1.100,00 0,00 450,00 0,00 0,00 0,00 0,00 0,00 0,00 31/07/2020
982 897900 CAROLINA XAVIER PIANCASTELLI ESTAGIARIO CONTAGEM; CONTAGEM-PJ-05PJ
983 619100 CAROLINA ZAKHIA NARDELLI RODRIGUES ANALISTA DO MP NEPOMUCENO - COMARCA; NEPOMUCENO-PJ-UNPJ 1.100,00 769,39 450,00 0,00 0,00 0,00 0,00 0,00 0,00 31/07/2020
984 517600 CAROLINE ALVES DE OLIVEIRA MULLER ANALISTA DO MP VISCONDE DO RIO BRANCO - COMARCA; VISCONDE DO RIO BRANCO-PJ-01PJ 1.100,00 769,39 450,00 0,00 0,00 0,00 0,00 0,00 0,00 31/07/2020
985 957800 CAROLINE ALVES GARCIA RODRIGUES ESTAGIARIO BELO HORIZONTE; ASSESSORIA ESPECIAL DO PGJ
986 373200 CAROLINE ANTUNES RIBEIRO OFICIAL DO MP JACUI - COMARCA; JACUI-PJ-UNPJ 1.100,00 0,00 450,00 0,00 0,00 0,00 0,00 0,00 0,00 31/07/2020
987 1084100 CAROLINE APARECIDA MENDES ESTAGIARIO UBERLANDIA; UBERLANDIA-PJ-04PJ 0,00 0,00 0,00 45,00 0,00 0,00 0,00 0,00 0,00 31/07/2020
988 556800 CAROLINE DE SOUZA CARDOSO DOMINGUES OFICIAL DO MP BRASÍLIA DE MINAS - COMARCA; BRASILIA DE MINAS-PJ-02PJ 1.100,00 0,00 450,00 0,00 4.740,73 0,00 0,00 0,00 434,57 31/07/2020
989 1143700 CAROLINE ESTEVES DE CARVALHO ESTAGIARIO 0,00 0,00 0,00 18,00 0,00 0,00 0,00 0,00 0,00 31/07/2020
990 1081300 CAROLINE FERREIRA DE ALMEIDA ESTAGIARIO BELO HORIZONTE; BH-02PJ FAMILIA-GAB 016PJ
991 499400 CAROLINE MARQUES DE LOURDES MARZULLO OFICIAL DO MP JUIZ DE FORA - COMARCA; JUIZ DE FORA-PJ-08PJ 1.100,00 1.153,54 450,00 0,00 0,00 0,00 0,00 0,00 0,00 31/07/2020
992 616800 CAROLINE MONTEIRO DE BARROS ANALISTA DO MP CONTAGEM - COMARCA; CONTAGEM-PJ-11PJ 1.100,00 0,00 450,00 0,00 0,00 0,00 0,00 0,00 0,00 31/07/2020
993 342500 CAROLINE PESTANA GOMES PROMOT.ENTRANC.ESPECIAL VESPASIANO - COMARCA; VESPASIANO-PJ-05PJ 1.100,00 0,00 1.279,20 0,00 5.614,85 0,00 0,00 0,00 514,69 31/07/2020
994 1079200 CAROLINE REVERT OLIVEIRA SOARES ESTAGIARIO JANUARIA; JANUARIA-PJ-02PJ 0,00 0,00 0,00 81,00 0,00 0,00 0,00 0,00 0,00 31/07/2020
995 972000 CAROLINE SARMENTO RODRIGUES ESTAGIARIO SALINAS; SALINAS-PJ-02PJ 0,00 0,00 0,00 54,00 0,00 0,00 0,00 0,00 0,00 31/07/2020
996 1093400 CAROLINE SILVA ARAUJO ESTAGIARIO BELO HORIZONTE; DIVISAO DE MANUTENCAO PREDIAL
997 911800 CAROLINE SILVA SOUZA ESTAGIARIO 0,00 0,00 0,00 63,00 0,00 0,00 0,00 0,00 0,00 31/07/2020
998 618100 CAROLINE VASCONCELOS COSTA LANZA ANALISTA DO MP PARAOPEBA - COMARCA; PARAOPEBA-PJ-UNPJ 1.100,00 3.077,56 450,00 0,00 0,00 0,00 0,00 0,00 0,00 31/07/2020
999 210600 CASSANDRA DA CONCEICAO DANTAS SERRAO PROMOT.ENTRANC.ESPECIAL BELO HORIZONTE - COMARCA; BH-02PJ FAMILIA-GAB 026PJ 1.100,00 0,00 2.920,83 0,00 0,00 0,00 0,00 0,00 0,00 31/07/2020
1000 604000 CASSIA APARECIDA DA SILVA OFICIAL DO MP PARACATU - COMARCA; PARACATU-PJ-01PJ 1.100,00 0,00 450,00 0,00 0,00 0,00 0,00 0,00 0,00 31/07/2020
1001 268800 CASSIA BEATRIZ TEIXEIRA OFICIAL DO MP BELO HORIZONTE - COMARCA; PROC JUST ESP ACOES COMP ORIG CRIMINAL-SEC 1.100,00 0,00 450,00 0,00 0,00 0,00 0,00 0,00 0,00 31/07/2020
1002 1118200 CASSIA DE FATIMA BORGES ESTAGIARIO UBERLANDIA; UBERLANDIA-PJ-26PJ 0,00 0,00 0,00 72,00 0,00 0,00 0,00 0,00 0,00 31/07/2020
1003 500000 CASSIA DE OLIVEIRA COSTA VIANA ANALISTA DO MP SETE LAGOAS - COMARCA; SETE LAGOAS-PJ-09PJ 1.100,00 0,00 450,00 0,00 0,00 0,00 0,00 0,00 0,00 31/07/2020
1004 1026900 CASSIA DOS REIS SILVA ESTAGIARIO NOVA LIMA; NOVA LIMA-PJ-02PJ 0,00 0,00 0,00 18,00 0,00 0,00 0,00 0,00 0,00 31/07/2020
1005 368800 CASSIA LUISA BATISTA MENDONCA WEBER OFICIAL DO MP BELO HORIZONTE - COMARCA; DIVISÃO DE EDUCAÇÃO PARA O CONSUMO 1.100,00 0,00 450,00 0,00 0,00 0,00 0,00 0,00 0,00 31/07/2020
1006 622200 CASSIA VAZ DE AZEVEDO LISBOA MARZANO ASSESSOR BELO HORIZONTE - COMARCA; CGMP-SECRETARIA DA CORREGEDORIA-GERAL DO MP 1.100,00 769,39 450,00 0,00 0,00 0,00 0,00 0,00 0,00 31/07/2020
1007 156100 CASSIA VIRGINIA SERRA TEIXEIRA GONTIJO PROCURADOR DE JUSTICA BELO HORIZONTE - COMARCA; PROCURADORIA-GERAL ADJUNTA INSTITUCIONAL 1.100,00 0,00 2.153,31 0,00 5.910,37 0,00 0,00 0,00 541,78 31/07/2020
1008 971100 CASSIANO QUEIROZ AVELAR SILVEIRA ESTAGIARIO PASSOS; PASSOS-PJ-05PJ
1009 121000 CASSIO HENRIQUE AFONSO DA SILVA OFICIAL DO MP BELO HORIZONTE - COMARCA; CGMP-ASSESSORIA JURIDICA 1.100,00 0,00 450,00 0,00 0,00 0,00 0,00 0,00 0,00 31/07/2020
1010 121100 CASSIO MOREIRA DE MIRANDA AGENTE DO MP BELO HORIZONTE - COMARCA; DIVISÃO DE FISCALIZAÇÃO DAS RELAÇÕES DE CONSU 1.100,00 0,00 450,00 0,00 0,00 0,00 1.445,27 0,00 0,00 31/07/2020
1011 512001 CATARINA NATALINO CALIXTO COORDENADOR/ANALISTA BELO HORIZONTE - COMARCA; DIRETORIA GESTAO TRANSPORTES 1.100,00 0,00 450,00 0,00 0,00 0,00 0,00 0,00 0,00 31/07/2020
1012 606200 CATARINE DE SIQUEIRA DE QUADROS ANALISTA DO MP RIBEIRÃO DAS NEVES - COMARCA; RIBEIRAO DAS NEVES-PJ-09PJ 1.100,00 0,00 450,00 0,00 0,00 0,00 0,00 0,00 0,00 31/07/2020
1013 622300 CECILIA APARECIDA PEREIRA ASSUNCAO OFICIAL DO MP TRÊS PONTAS - COMARCA; TRES PONTAS-PJ-SECRETARIA 1.100,00 769,39 450,00 0,00 0,00 0,00 0,00 0,00 0,00 31/07/2020
1014 538000 CECILIA FONTES DE MATOS PIMENTEL ANALISTA DO MP PALMA - COMARCA; PALMA-PJ-UNPJ 1.100,00 769,39 450,00 0,00 0,00 0,00 0,00 0,00 0,00 31/07/2020
1015 261300 CECILIO ANTONIO CAMPOS DOS REIS ANALISTA DO MP BELO HORIZONTE - COMARCA; AUDITORIA INTERNA 1.100,00 0,00 450,00 0,00 0,00 0,00 0,00 0,00 0,00 31/07/2020
1016 386400 CEFAS AMORELI DE FIGUEIREDO OFICIAL DO MP CABO VERDE - COMARCA; CABO VERDE-PJ-SECRETARIA 1.100,00 0,00 450,00 0,00 0,00 0,00 0,00 0,00 0,00 31/07/2020
1017 105600 CELIA BEATRIZ GOMES DOS SANTOS PROCURADOR DE JUSTICA BELO HORIZONTE - COMARCA; PROC JUSTICA DIR DIFUSOS E COLETIVOS-GAB006 1.100,00 0,00 1.598,99 0,00 5.910,37 0,00 0,00 0,00 14.726,67 31/07/2020
1018 149000 CELIA MAGALHAES CLAROS SOSSI OFICIAL DO MP GOVERNADOR VALADARES - COMARCA; GAECO REGIONAL DE GOVERNADOR VALADARES 1.100,00 0,00 450,00 0,00 0,00 0,00 0,00 0,00 0,00 31/07/2020
1019 421000 CELINA BENEDITA DE SOUZA ALMEIDA OFICIAL DO MP CAMBUÍ - COMARCA; CAMBUI-PJ-01PJ 1.100,00 0,00 450,00 0,00 0,00 0,00 0,00 0,00 0,00 31/07/2020
1020 252900 CELIO DE MELO CASTOR ANALISTA DO MP BELO HORIZONTE - COMARCA; BH-20PJ ORD ECON TRIBUTARIA-SECRETARIA 1.100,00 0,00 450,00 0,00 0,00 0,00 0,00 0,00 0,00 31/07/2020
1021 486300 CELIO DIMAS ESTEVES RUAS PROMOT.ENTRANC.ESPECIAL CORONEL FABRICIANO - COMARCA; CORONEL FABRICIANO-PJ-02PJ 1.100,00 0,00 1.982,76 0,00 33.689,11 0,00 0,00 0,00 0,00 31/07/2020
1022 395700 CELIO FERREIRA LIMA OFICIAL DO MP CONTAGEM - COMARCA; CONTAGEM-PJ-07PJ 1.100,00 769,39 450,00 0,00 0,00 0,00 0,00 0,00 0,00 31/07/2020
1023 281300 CELMA REGINA PEREIRA SANTOS ANALISTA DO MP BELO HORIZONTE - COMARCA; DIVISAO DE DOCUMENTACAO JURIDICA 1.100,00 0,00 450,00 0,00 0,00 0,00 0,00 0,00 0,00 31/07/2020
1024 535600 CELSO MEDEIROS DE PAIVA OFICIAL DO MP RIO PRETO - COMARCA; RIO PRETO-PJ-SECRETARIA 1.100,00 0,00 450,00 0,00 0,00 0,00 0,00 0,00 0,00 31/07/2020
1025 157700 CELSO PENNA FERNANDES JUNIOR PROMOT.ENTRANC.ESPECIAL BELO HORIZONTE - COMARCA; BH-23PJ CIVEL-GAB 162PJ 1.100,00 0,00 2.345,18 0,00 12.352,67 0,00 0,00 0,00 514,69 31/07/2020
1026 1081500 CESAR ALEXANDRE BARROSO ESTAGIARIO BELO HORIZONTE; CAO-FUNDACOES
1027 93700 CESAR ANTONIO COSSI PROCURADOR DE JUSTICA BELO HORIZONTE - COMARCA; GABINETE DE PROCURADOR DE JUSTIÇA - SALA 805 1.100,00 0,00 2.558,39 0,00 5.910,37 0,00 0,00 0,00 541,78 31/07/2020
1028 293100 CESAR ANTONIO DE LIMA PROMOT.ENTRANC.ESPECIAL VARGINHA - COMARCA; VARGINHA-PJ-04PJ 1.100,00 0,00 2.558,40 0,00 12.352,67 0,00 0,00 0,00 514,69 31/07/2020
1029 293800 CESAR AUGUSTO DOS SANTOS PROMOT.ENTRANC.ESPECIAL BELO HORIZONTE - COMARCA; BH-12PJ JUIZO CRIMINAL-GAB 091PJ 1.100,00 0,00 852,80 0,00 33.689,11 0,00 0,00 0,00 0,00 31/07/2020
1030 367000 CESAR NARVAES DE AVELAR COORDENADOR/OFICIAL BELO HORIZONTE - COMARCA; DIVISAO DE MEMORIA INSTITUCIONAL 1.100,00 0,00 450,00 0,00 0,00 0,00 0,00 0,00 0,00 31/07/2020
1031 226500 CESAR SILVEIRA BARROUIN OFICIAL DO MP BELO HORIZONTE - COMARCA; DIRETORIA DE ADMINISTRACAO FINANCEIRA 1.100,00 0,00 450,00 0,00 0,00 0,00 0,00 0,00 0,00 31/07/2020
1032 293500 CESAR YOSHIKAWA PROMOT.ENTRANC.ESPECIAL BELO HORIZONTE - COMARCA; BH-PJ AUXILIAR-GAB 153PJ 1.100,00 0,00 2.302,56 0,00 12.352,67 0,00 0,00 0,00 514,69 31/07/2020
1033 1125600 CEZAR AUGUSTO RANGEL MARQUES ESTAGIARIO JUIZ DE FORA; JUIZ DE FORA-PJ-22PJ 0,00 0,00 0,00 18,00 0,00 0,00 0,00 0,00 0,00 31/07/2020
1034 121400 CEZAR MORENO CONCEICAO TAVARES OFICIAL DO MP BELO HORIZONTE - COMARCA; EXTINTA-COORD EST DEF DIR FAM PES DEFIC IDOSO 1.100,00 769,39 450,00 0,00 0,00 0,00 0,00 0,00 0,00 31/07/2020
1035 664100 CHARLES BARBOSA DA SILVA 3O.SARGENTO BELO HORIZONTE - COMARCA; NUCLEO DE OPERACOES DE SEGURANCA DE PESSOAL 1.100,00 0,00 0,00 0,00 0,00 0,00 0,00 0,00 0,00 31/07/2020
1036 210400 CHARLES DANIEL FRANCA SALOMAO PROMOT.ENTRANC.ESPECIAL PARÁ DE MINAS - COMARCA; PARA DE MINAS-PJ-02PJ 1.100,00 0,00 1.748,24 0,00 5.614,85 0,00 0,00 0,00 514,69 31/07/2020
1037 669200 CHARLES HENRIQUE SQUARCIO CABO BELO HORIZONTE - COMARCA; GAECO - SECRETARIA 1.100,00 0,00 0,00 0,00 0,00 0,00 0,00 0,00 0,00 31/07/2020
1038 243800 CHARLES MARTINS MUNIZ OFICIAL DO MP BELO HORIZONTE - COMARCA; LAB TECNOLOGIA CONTRA LAVAGEM DINHEIRO 1.100,00 0,00 0,00 0,00 0,00 0,00 0,00 0,00 0,00 31/07/2020
1039 193500 CHARLIN CESAR KOURLY OFICIAL DO MP ARAGUARI - COMARCA; ARAGUARI-PJ-07PJ 1.100,00 0,00 450,00 0,00 0,00 0,00 0,00 0,00 0,00 31/07/2020
1040 385500 CHILLEN PEIXOTO DE MOURA OFICIAL DO MP BELO HORIZONTE - COMARCA; DIVISÃO DE FISCALIZAÇÃO DAS RELAÇÕES DE CONSU 1.100,00 0,00 450,00 0,00 0,00 0,00 1.445,27 0,00 0,00 31/07/2020
1041 1094300 CHRISLAYNE DE FATIMA DA SILVA ESTAGIARIO VICOSA; VICOSA-PJ-01PJ 0,00 0,00 0,00 63,00 0,00 0,00 0,00 0,00 90,50 31/07/2020
1042 1003500 CHRISTIAN ALEXANDRE DA SILVA PEREIRA ESTAGIARIO SANTA LUZIA; SANTA LUZIA-PJ-03PJ
1043 534500 CHRISTIAN DOUGLAS BRITO RUAS OFICIAL DO MP SÃO JOÃO DA PONTE - COMARCA; SAO JOAO DA PONTE-PJ-SECRETARIA 1.100,00 0,00 450,00 0,00 0,00 0,00 0,00 0,00 0,00 31/07/2020
1044 370600 CHRISTIAN KARINE FELIX PRATES ASSESSOR BELO HORIZONTE - COMARCA; SUPRIN DE PLANEJAMENTO E COORDENACAO 1.100,00 0,00 450,00 0,00 0,00 0,00 0,00 0,00 0,00 31/07/2020
1045 1073800 CHRISTIAN RODRIGUES FRAGA DA SILVA ESTAGIARIO BELO HORIZONTE; SUPERINTENDÊNCIA DE ENGENHARIA E ARQUITETURA
1046 435800 CHRISTIANA BAHIA ANDRADE PINA ANALISTA DO MP BELO HORIZONTE - COMARCA; LABORATORIO TECNOLOGIA INTELIGENCIA 1.100,00 769,39 450,00 0,00 0,00 0,00 0,00 0,00 0,00 31/07/2020
1047 516800 CHRISTIANE FERREIRA DO NASCIMENTO ANALISTA DO MP ESTRELA DO SUL - COMARCA; ESTRELA DO SUL-PJ-UNPJ 1.100,00 0,00 450,00 0,00 0,00 0,00 0,00 0,00 0,00 31/07/2020
1048 176000 CHRISTIANE JUNQUEIRA PULITI ANDRADE DE BARROS ASSESSOR BELO HORIZONTE - COMARCA; CAO-VIOLENCIA DOMESTICA E FAMILIAR 1.100,00 0,00 450,00 0,00 0,00 0,00 0,00 0,00 0,00 31/07/2020
1049 319200 CHRISTIANE MARIA DE ASSIS RUSSO OFICIAL DO MP BELO HORIZONTE - COMARCA; CAO-ORDEM ECONOMICA E TRIBUTARIA-SECRETARIA 1.100,00 769,39 450,00 0,00 0,00 0,00 0,00 0,00 0,00 31/07/2020
1050 510300 CHRISTIANE MARY DE CARVALHO FERREIRA ANALISTA DO MP BELO HORIZONTE - COMARCA; DIRETORIA DE SISTEMAS DE INFORMACAO 1.100,00 0,00 450,00 0,00 0,00 0,00 0,00 0,00 0,00 31/07/2020
1051 424900 CHRISTIANE PEREIRA TURNER DE ARAUJO OFICIAL DO MP BELO HORIZONTE - COMARCA; CAO-PATRIMONIO PUBLICO 1.100,00 769,39 450,00 0,00 0,00 0,00 0,00 0,00 0,00 31/07/2020
1052 513700 CHRISTIANE VIEIRA SOARES PEDERSOLI ASSESSOR/ANALISTA BELO HORIZONTE - COMARCA; ASSESSORIA JURIDICA DO PROCON-MG 1.100,00 769,39 450,00 0,00 0,00 0,00 0,00 0,00 0,00 31/07/2020
1053 163300 CHRISTIANNE COTRIM ASSAD BENSOUSSAN PROMOT.ENTRANC.ESPECIAL BELO HORIZONTE - COMARCA; COORD ESTADUAL COMBATE CRIMES CIBERNETICOS 1.100,00 0,00 2.643,68 0,00 5.614,85 0,00 0,00 0,00 514,69 31/07/2020
1054 371400 CHRISTIANO LEONARDO GONZAGA GOMES PROMOTOR 1A ENTRANCIA JABOTICATUBAS - COMARCA; JABOTICATUBAS-PJ-UNPJ 1.100,00 0,00 1.279,20 0,00 0,00 0,00 0,00 0,00 0,00 31/07/2020
1055 412300 CHRYSTIAN MACHADO RIBEIRO ANALISTA DO MP VARGINHA - COMARCA; VARGINHA-PJ-04PJ 1.100,00 0,00 450,00 0,00 0,00 0,00 0,00 0,00 0,00 31/07/2020
1056 513800 CHRYSTIANE DO NASCIMENTO DE MAGALHAES OFICIAL DO MP UBERLÂNDIA - COMARCA; UBERLANDIA-PJ-10PJ 1.100,00 769,39 450,00 0,00 0,00 0,00 0,00 0,00 0,00 31/07/2020
1057 497900 CIBELE DE FREITAS SANCHES DIAS ANALISTA DO MP SABARÁ - COMARCA; SABARA-PJ-03PJ 1.100,00 0,00 450,00 0,00 0,00 0,00 0,00 0,00 0,00 31/07/2020
1058 500900 CIBELLE SILVA PRADO ALVARENGA ANALISTA DO MP ITANHANDU - COMARCA; ITANHANDU-PJ-UNPJ 1.100,00 1.538,78 450,00 0,00 5.759,82 0,00 0,00 0,00 527,98 31/07/2020
1059 1135700 CIBELLY OLIVEIRA SOARES ESTAGIARIO TEOFILO OTONI; TEOFILO OTONI-PJ-07PJ
1060 1131800 CINDY KEILA VILELA ESTAGIARIO LAVRAS; LAVRAS-PJ-06PJ 0,00 0,00 0,00 135,00 0,00 0,00 0,00 0,00 0,00 31/07/2020
1061 296400 CINTIA APARECIDA MOREIRA NAVES E RODRIGUES ANALISTA DO MP CAMPO BELO - COMARCA; CAMPO BELO-PJ-02PJ 1.100,00 0,00 450,00 0,00 0,00 0,00 0,00 0,00 0,00 31/07/2020
1062 928900 CINTIA CRISTINA DE SOUZA GONCALVES ESTAGIARIO BELO HORIZONTE; PROC. JUSTICA CRIMINAL
1063 171200 CINTIA MARIA OLIVEIRA DE LUCENA PROMOT.ENTRANC.ESPECIAL BELO HORIZONTE - COMARCA; CORREGEDORIA-GERAL-ASSESSORIA 1.100,00 0,00 1.833,52 0,00 5.614,85 0,00 0,00 0,00 514,69 31/07/2020
1064 407900 CINTIA NETO COMELLI ANALISTA DO MP BELO HORIZONTE - COMARCA; CENTRAL DE APOIO TECNICO-SETOR CONTABIL 1.100,00 769,39 450,00 0,00 0,00 0,00 0,00 0,00 0,00 31/07/2020
1065 304700 CINTIA QUEIROZ OFICIAL DO MP BELO HORIZONTE - COMARCA; OUVIDORIA DO MPMG 1.100,00 0,00 450,00 0,00 0,00 0,00 0,00 0,00 0,00 31/07/2020
1066 163000 CINTIA ROBERTA GOMES DE LIMA PROMOTOR 2A ENTRANCIA VARGINHA - COMARCA; COORD REG PJ DEF EDUC DIR CRIANCA ADOL SUL 1.100,00 0,00 1.748,24 0,00 11.735,04 0,00 0,00 0,00 488,96 31/07/2020
1067 286100 CIRO CANGUSSU CORDEIRO OFICIAL DO MP IPATINGA - COMARCA; IPATINGA-PJ-09PJ 1.100,00 769,39 450,00 0,00 0,00 0,00 0,00 0,00 0,00 31/07/2020
1068 1086300 CLARA ALEXANDRINA DOS SANTOS ESTAGIARIO BETIM; BETIM-PJ-06PJ 0,00 0,00 0,00 90,00 0,00 0,00 0,00 0,00 0,00 31/07/2020
1069 1052200 CLARA CAETANO TROPIA ESTAGIARIO BELO HORIZONTE; DIR CONTEUDO JORNALISTICO
1070 1095900 CLARA LAENDER GAZZINELLI ESTAGIARIO BELO HORIZONTE; PROC. JUSTICA DE HABEAS CORPUS
1071 996300 CLARA LIMA LIPOVETSKY ESTAGIARIO BELO HORIZONTE; CAO-FUNDACOES
1072 1037300 CLARA MACIEL ANTUNES BARBOSA ESTAGIARIO BELO HORIZONTE; BH-19PJ SAUDE-GAB 047PJ
1073 484900 CLARA MARIA HOEHNE SEPULVEDA PROMOTOR 2A ENTRANCIA PIRAPORA - COMARCA; PIRAPORA-PJ-01PJ 1.100,00 0,00 3.046,59 0,00 11.735,04 0,00 0,00 0,00 488,96 31/07/2020
1074 995800 CLARA MICHELINI LACERDA ESTAGIARIO BELO HORIZONTE; EXTINTA-COORD EST DEF DIR FAM PES DEFIC IDOSO
1075 894700 CLARA RODRIGUES BLACH ESTAGIARIO BELO HORIZONTE; BH-19PJ SAUDE-GAB 129PJ
1076 1086700 CLARICE CARDOSO VALENTIM ESTAGIARIO BELO HORIZONTE; DIRET DE FORMACAO, APERFEIC. E POS-GRADUACAO
1077 412500 CLARICE GOMES MAROTTA ANALISTA DO MP BELO HORIZONTE - COMARCA; PROMOT ESTADUAL DE DEF PATRI CULT E TUR DE MG 1.100,00 0,00 450,00 0,00 0,00 0,00 0,00 0,00 0,00 31/07/2020
1078 1005900 CLARICE GUIMARAES RABELLO ESTAGIARIO BELO HORIZONTE; DIVISAO DE MEMORIA INSTITUCIONAL
1079 1134500 CLARISSA ALVES DA SILVA ESTAGIARIO TEOFILO OTONI; TEOFILO OTONI-PJ-05PJ 0,00 0,00 0,00 108,00 0,00 0,00 0,00 0,00 0,00 31/07/2020
1080 605300 CLARISSA AZEVEDO ROCHA OFICIAL DO MP BELO HORIZONTE - COMARCA; ASSESSORIA PSICOSSOCIAL 1.100,00 0,00 450,00 0,00 0,00 0,00 0,00 0,00 0,00 31/07/2020
1081 1059700 CLARISSA BRANDAO FREITAS ESTAGIARIO BELO HORIZONTE; BH-07PJ 01 TRIBUNAL JURI-SECRETARIA 0,00 0,00 0,00 72,00 0,00 0,00 0,00 0,00 0,00 31/07/2020
1082 308100 CLARISSA DUARTE BELLONI DIRETOR/ANALISTA BELO HORIZONTE - COMARCA; DIRETORIA-GERAL 1.100,00 2.307,08 450,00 0,00 5.137,15 0,00 0,00 0,00 470,91 31/07/2020
1083 402100 CLARISSA GOBBO DOS SANTOS PROMOT.ENTRANC.ESPECIAL RIBEIRÃO DAS NEVES - COMARCA; RIBEIRAO DAS NEVES-PJ-09PJ 1.100,00 0,00 2.601,04 0,00 5.614,85 0,00 0,00 0,00 514,69 31/07/2020
1084 1020500 CLARISSA MATEUS LAVARINI CALAZANS ESTAGIARIO SETE LAGOAS; SETE LAGOAS-PJ-01PJ
1085 497100 CLARISSA ROCHA GUIDI ANALISTA DO MP BELO HORIZONTE - COMARCA; BH-02PJ FAMILIA-SECRETARIA 1.100,00 769,39 450,00 0,00 0,00 0,00 0,00 0,00 0,00 31/07/2020
1086 661600 CLARISSE PEREZ DO NASCIMENTO NASCIF MENDES PROMOTOR 1A ENTRANCIA BARÃO DE COCAIS - COMARCA; BARAO DE COCAIS-PJ-UNPJ 1.100,00 0,00 3.008,80 0,00 5.067,40 0,00 0,00 0,00 464,51 31/07/2020
1087 641800 CLARISSE TAVARES GONCALVES OFICIAL DO MP BELO HORIZONTE - COMARCA; BH-07PJ 01 TRIBUNAL JURI-SECRETARIA 1.100,00 0,00 450,00 0,00 0,00 0,00 0,00 0,00 0,00 31/07/2020
1088 463700 CLAUDIA ADRIANA FERRAO DIAS ANALISTA DO MP SETE LAGOAS - COMARCA; SETE LAGOAS-PJ-06PJ 1.100,00 0,00 450,00 0,00 0,00 0,00 0,00 0,00 0,00 31/07/2020
1089 415400 CLAUDIA ALMEIDA DE VASCONCELLOS BARROS ASSESSOR/OFICIAL BELO HORIZONTE - COMARCA; DIVISAO DE SERVICOS 1.100,00 0,00 450,00 0,00 0,00 0,00 0,00 0,00 0,00 31/07/2020
1090 207000 CLAUDIA APARECIDA VILELA MACHADO ANALISTA DO MP BELO HORIZONTE - COMARCA; CENTRAL DE APOIO TECNICO-SETOR CONTABIL 1.100,00 0,00 450,00 0,00 0,00 0,00 0,00 0,00 0,00 31/07/2020
1091 314400 CLAUDIA AUGUSTA LOPES DE MENDONCA PROMOT.ENTRANC.ESPECIAL RIBEIRÃO DAS NEVES - COMARCA; RIBEIRAO DAS NEVES-PJ-07PJ 1.100,00 0,00 1.705,60 0,00 0,00 0,00 0,00 0,00 0,00 31/07/2020
1092 365700 CLAUDIA BREGUEZ CUNHA ANALISTA DO MP VARGINHA - COMARCA; VARGINHA-PJ-07PJ 1.100,00 0,00 450,00 0,00 0,00 0,00 0,00 0,00 0,00 31/07/2020
1093 430500 CLAUDIA CECILIA SANTANA VENCESLAU OFICIAL DO MP BELO HORIZONTE - COMARCA; DIR ANALISES TECNOLOGIA INTELIGENCIA 1.100,00 0,00 450,00 0,00 0,00 0,00 0,00 0,00 0,00 31/07/2020
1094 112400 CLAUDIA CRISTINA FIUZA DE AVELAR AGENTE DO MP BELO HORIZONTE - COMARCA; SERVICO MEDICO-DEPTO PERIC MEDICA SAUDE OCUP 1.100,00 0,00 450,00 0,00 0,00 0,00 0,00 0,00 0,00 31/07/2020
1095 98300 CLAUDIA DE OLIVEIRA IGNEZ PROMOTOR 2A ENTRANCIA NOVA LIMA - COMARCA; NOVA LIMA-PJ-01PJ 1.100,00 0,00 1.172,59 0,00 6.400,93 0,00 0,00 0,00 0,00 31/07/2020
1096 167300 CLAUDIA DO AMARAL XAVIER PROMOT.ENTRANC.ESPECIAL BELO HORIZONTE - COMARCA; BH-18PJ CONFLITOS AGRARIOS 1.100,00 0,00 1.833,52 0,00 12.352,67 0,00 0,00 0,00 514,69 31/07/2020
1097 890200 CLAUDIA DOS SANTOS ROBERTO NASCIMENTO ESTAGIARIO BELO HORIZONTE; DIVISAO DE MEMORIA INSTITUCIONAL
1098 163100 CLAUDIA FERREIRA DE SOUZA PROMOT.ENTRANC.ESPECIAL BELO HORIZONTE - COMARCA; CORREGEDORIA-GERAL-ASSESSORIA 1.100,00 0,00 1.684,27 0,00 5.614,85 0,00 0,00 0,00 514,69 31/07/2020
1099 174500 CLAUDIA FERREIRA PACHECO DE FREITAS PROMOT.ENTRANC.ESPECIAL BELO HORIZONTE - COMARCA; BH-18PJ DIREITOS HUMANOS-GAB 125PJ 1.100,00 0,00 3.070,08 0,00 12.352,67 0,00 0,00 0,00 514,69 31/07/2020
1100 167200 CLAUDIA FREDDO MARQUES CARVALHO PROMOT.ENTRANC.ESPECIAL UBERABA - COMARCA; UBERABA-PJ-14PJ 1.100,00 0,00 2.195,96 0,00 12.352,67 0,00 0,00 0,00 514,69 31/07/2020
1101 480400 CLAUDIA GOULART DE SOUZA OFICIAL DO MP PASSOS - COMARCA; PASSOS-PJ-06PJ 1.100,00 0,00 450,00 0,00 0,00 0,00 0,00 0,00 0,00 31/07/2020
1102 519800 CLAUDIA HELENA CORREA DE ALMEIDA ANALISTA DO MP BELO HORIZONTE - COMARCA; BH-12PJ JUIZO CRIMINAL-GAB 102PJ 1.100,00 0,00 450,00 0,00 0,00 0,00 0,00 0,00 0,00 31/07/2020
1103 422100 CLAUDIA IACOMINI CABRAL ANALISTA DO MP BELO HORIZONTE - COMARCA; CENT DE APOIO TEC-SETOR DEF,IDOSO E INFANC 1.100,00 0,00 450,00 0,00 0,00 0,00 0,00 0,00 0,00 31/07/2020
1104 258200 CLAUDIA LAGE MICHALAROS ANALISTA DO MP BELO HORIZONTE - COMARCA; CENTRAL DE APOIO TECN-SETOR DE MEIO AMBIENTE 1.100,00 0,00 450,00 0,00 0,00 0,00 0,00 0,00 0,00 31/07/2020
1105 284600 CLAUDIA LENI DE FREITAS OFICIAL DO MP CONTAGEM - COMARCA; CONTAGEM-PJ-22PJ 1.100,00 0,00 450,00 0,00 0,00 0,00 0,00 0,00 0,00 31/07/2020
1106 175200 CLAUDIA LOPES SILVA SCIOLI PROMOT.ENTRANC.ESPECIAL POUSO ALEGRE - COMARCA; POUSO ALEGRE-PJ-07PJ 1.100,00 0,00 2.728,96 0,00 12.352,67 0,00 0,00 0,00 514,69 31/07/2020
1107 433600 CLAUDIA LUIZA SANTIAGO FELICIO ANALISTA DO MP BELO HORIZONTE - COMARCA; CENT DE APOIO TEC-SETOR DEF,IDOSO E INFANC 1.100,00 0,00 450,00 0,00 0,00 0,00 0,00 0,00 0,00 31/07/2020
1108 317000 CLAUDIA MACHADO ALVES ASSESSOR/OFICIAL BELO HORIZONTE - COMARCA; DIRETORIA DE SISTEMAS DE INFORMACAO 1.100,00 0,00 450,00 0,00 0,00 0,00 0,00 0,00 0,00 31/07/2020
1109 155300 CLAUDIA MACIEL MIRANDA E BELO OFICIAL DO MP CONGONHAS - COMARCA; CONGONHAS-PJ-02PJ 1.100,00 0,00 450,00 0,00 0,00 0,00 0,00 0,00 0,00 31/07/2020
1110 242200 CLAUDIA MICHELLE DIAS MUNIZ BALEEIRO OFICIAL DO MP MONTE AZUL - COMARCA; MONTE AZUL-PJ-SECRETARIA 1.100,00 0,00 450,00 0,00 5.467,40 0,00 0,00 0,00 501,18 31/07/2020
1111 236500 CLAUDIA NETO COMELLI PROMOT.ENTRANC.ESPECIAL CONTAGEM - COMARCA; CONTAGEM-PJ-20PJ 1.100,00 0,00 1.637,84 0,00 5.614,85 0,00 0,00 0,00 514,69 31/07/2020
1112 623000 CLAUDIA PATRICIA SILVA RODRIGUES RAPOSEIRAS OFICIAL DO MP PARÁ DE MINAS - COMARCA; PARA DE MINAS-PJ-02PJ 1.100,00 769,39 450,00 0,00 0,00 0,00 0,00 0,00 0,00 31/07/2020
1113 418400 CLAUDIA REGINA MARTINS BONIFACIO OFICIAL DO MP ITUIUTABA - COMARCA; ITUIUTABA-PJ-06PJ 1.100,00 0,00 450,00 0,00 0,00 0,00 0,00 0,00 0,00 31/07/2020
1114 498300 CLAUDIA SOUTO FARIAS BRAUN OFICIAL DO MP TEÓFILO OTONI - COMARCA; TEOFILO OTONI-PJ-SECRETARIA 1.100,00 0,00 450,00 0,00 0,00 0,00 0,00 0,00 0,00 31/07/2020
1115 79600 CLAUDIA SPRANGER E SILVA LUIZ MOTTA PROCURADOR DE JUSTICA BELO HORIZONTE - COMARCA; CAO-DH CONT EXT ATIV POLIC E AP COMUNIT 1.100,00 0,00 1.769,55 0,00 5.910,37 0,00 0,00 0,00 541,78 31/07/2020
1116 206500 CLAUDIA VALERIA FONSECA ANDRADE ANALISTA DO MP BELO HORIZONTE - COMARCA; BH-23PJ INF-FISC MED SOC FEC 1.100,00 0,00 450,00 0,00 0,00 0,00 0,00 0,00 0,00 31/07/2020
1117 277500 CLAUDIO ANTONIO BORGES BRUNSWICK ALVARES OFICIAL DO MP BELO HORIZONTE - COMARCA; SUPERINTENDENCIA GESTÃO DE PESSOAS 1.100,00 0,00 450,00 0,00 0,00 0,00 0,00 0,00 0,00 31/07/2020
1118 444800 CLAUDIO ARESIO DO CARMO ANALISTA DO MP SETE LAGOAS - COMARCA; SETE LAGOAS-PJ-01PJ 1.100,00 0,00 450,00 0,00 0,00 0,00 0,00 0,00 0,00 31/07/2020
1119 532100 CLAUDIO DANIEL FONSECA DE ALMEIDA PROMOTOR 2A ENTRANCIA MARIANA - COMARCA; MARIANA-PJ-02PJ 1.100,00 0,00 2.025,40 0,00 5.334,11 0,00 0,00 0,00 488,96 31/07/2020
1120 541600 CLAUDIO DE OLIVEIRA MELO OFICIAL DO MP CANÁPOLIS - COMARCA; CANAPOLIS-PJ-UNPJ 1.100,00 769,39 450,00 0,00 0,00 0,00 0,00 0,00 0,00 31/07/2020
1121 76700 CLAUDIO EMANUEL DA CUNHA PROCURADOR DE JUSTICA BELO HORIZONTE - COMARCA; GABINETE DE PROCURADOR DE JUSTIÇA - SALA 305 1.100,00 0,00 2.345,18 0,00 5.910,37 0,00 0,00 0,00 541,78 31/07/2020
1122 100500 CLAUDIO FERREIRA DE OLIVEIRA FILHO PROMOTOR 2A ENTRANCIA LAMBARI - COMARCA; LAMBARI-PJ-UNPJ 1.100,00 0,00 2.345,18 0,00 11.735,04 0,00 0,00 0,00 488,96 31/07/2020
1123 1098600 CLAUDIO HENRIQUE AMARAL DOS SANTOS ESTAGIARIO SANTA RITA DO SAPUCAI; SANTA RITA DO SAPUCAI-PJ-01PJ 0,00 0,00 0,00 9,00 0,00 0,00 0,00 0,00 0,00 31/07/2020
1124 545100 CLAUDIO HENRIQUE MACEDO DE SOUZA FRANSOZO ANALISTA DO MP OURO PRETO - COMARCA; OURO PRETO-PJ-01PJ 1.100,00 769,39 450,00 0,00 0,00 0,00 0,00 0,00 0,00 31/07/2020
1125 353500 CLAUDIO HENRIQUE PEDRO DA ROCHA OFICIAL DO MP BELO HORIZONTE - COMARCA; DIVISAO TRANSPORTES 1.100,00 0,00 450,00 0,00 0,00 0,00 0,00 0,00 0,00 31/07/2020
1126 265800 CLAUDIO KUPIDLOWSKY FERNANDES OFICIAL DO MP BELO HORIZONTE - COMARCA; SECRETARIA DO PROCON-MG 1.100,00 0,00 450,00 0,00 0,00 0,00 0,00 0,00 0,00 31/07/2020
1127 193600 CLAUDIO LEITE FONTES OFICIAL DO MP ITUIUTABA - COMARCA; ITUIUTABA-PJ-02PJ 1.100,00 0,00 450,00 0,00 0,00 0,00 0,00 0,00 0,00 31/07/2020
1128 102000 CLAUDIO LUIZ GONCALVES MARINS PROMOTOR 2A ENTRANCIA GUAXUPÉ - COMARCA; GUAXUPE-PJ-03PJ 1.100,00 0,00 2.345,18 0,00 11.735,04 0,00 0,00 0,00 488,96 31/07/2020
1129 163200 CLAUDIO MAIA DE BARROS PROMOT.ENTRANC.ESPECIAL BELO HORIZONTE - COMARCA; BH-07PJ 01 TRIBUNAL DO JURI-GAB 059PJ 1.100,00 0,00 2.579,72 0,00 5.614,85 0,00 0,00 0,00 514,69 31/07/2020
1130 590700 CLAUDIO MANOEL FERNANDES AGENTE DE POLICIA BELO HORIZONTE - COMARCA; GAECO - SETOR POLICIAL CIVIL 1.100,00 0,00 0,00 0,00 0,00 0,00 0,00 0,00 0,00 31/07/2020
1131 329400 CLAUDIO MARCIO BERNARDES OFICIAL DO MP ITAÚNA - COMARCA; ITAUNA-PJ-03PJ 1.100,00 769,39 450,00 0,00 0,00 0,00 0,00 0,00 0,00 31/07/2020
1132 270200 CLAUDIO RABELO ALVES OFICIAL DO MP FORMIGA - COMARCA; FORMIGA-PJ-03PJ 1.100,00 0,00 450,00 0,00 0,00 0,00 0,00 0,00 0,00 31/07/2020
1133 264700 CLAUDIO ROBERTO KFURI DE ARAUJO ANALISTA DO MP BELO HORIZONTE - COMARCA; CENTRAL DE APOIO TECNICO-SETOR DE INFORMATICA 1.100,00 0,00 450,00 0,00 0,00 0,00 0,00 0,00 0,00 31/07/2020
1134 188600 CLAUDIO SALES OFICIAL DO MP NEPOMUCENO - COMARCA; NEPOMUCENO-PJ-SECRETARIA 1.100,00 0,00 450,00 0,00 0,00 0,00 0,00 0,00 0,00 31/07/2020
1135 543300 CLAUDIO SILVA DE CARVALHO ANALISTA DO MP CAMPO BELO - COMARCA; CAMPO BELO-PJ-03PJ 1.100,00 0,00 450,00 0,00 0,00 0,00 0,00 0,00 0,00 31/07/2020
1136 144300 CLAUDIO VARELLA DE SOUZA PROCURADOR DE JUSTICA BELO HORIZONTE - COMARCA; GABINETE DE PROCURADOR DE JUSTIÇA - SALA 712 1.100,00 0,00 1.172,59 0,00 13.002,81 0,00 0,00 0,00 541,78 31/07/2020
1137 160700 CLAUDIO VICENTE HESS ASSESSOR BELO HORIZONTE - COMARCA; CENTRAL DE APOIO TECNICO-SETOR DE INFORMATICA 1.100,00 0,00 450,00 0,00 0,00 0,00 0,00 0,00 0,00 31/07/2020
1138 312900 CLAUDIO VIEIRA FIRPE OFICIAL DO MP BELO HORIZONTE - COMARCA; DIR RELACOES INSTITUCIONAIS 1.100,00 769,39 450,00 0,00 0,00 0,00 0,00 0,00 0,00 31/07/2020
1139 634100 CLEA CRISTINA GUERRA DE FREITAS COSTA OFICIAL DO MP BELO HORIZONTE - COMARCA; BH-18PJ VIOLENCIA DOMESTICA-SECRETARIA 1.100,00 769,39 450,00 0,00 0,00 0,00 0,00 0,00 0,00 31/07/2020
1140 244800 CLEBER AUGUSTO DO NASCIMENTO PROMOTOR 2A ENTRANCIA CAMPO BELO - COMARCA; CAMPO BELO-PJ-04PJ 1.100,00 0,00 2.791,16 0,00 5.334,11 0,00 0,00 0,00 488,96 31/07/2020
1141 439000 CLEBER COUTO PROMOT.ENTRANC.ESPECIAL PATOS DE MINAS - COMARCA; COORD REG PJ DEF EDU DIR CRI ADO AL PAR NOROE 1.100,00 0,00 2.302,56 0,00 39.303,96 0,00 0,00 0,00 514,69 31/07/2020
1142 653100 CLEBER SOUZA SCALIONI ASSESSOR BELO HORIZONTE - COMARCA; CENTRAL DE APOIO TECNICO-SETOR CONTABIL 1.100,00 0,00 450,00 0,00 0,00 0,00 0,00 0,00 0,00 31/07/2020
1143 1012200 CLEIA PERPETUA DO SOCORRO DOS SANTOS ESTAGIARIO UNAI; UNAI-PJ-02PJ
1144 459200 CLEIA ZILLE PEREIRA ANALISTA DO MP BELO HORIZONTE - COMARCA; ASSESS TECNICO-JUR JUNTO AS PROC. DE JUST 1.100,00 0,00 450,00 0,00 0,00 0,00 0,00 0,00 0,00 31/07/2020
1145 481800 CLEIDE CARDOSO DA SILVA ANALISTA DO MP MANHUAÇU - COMARCA; MANHUACU-PJ-04PJ 1.100,00 0,00 450,00 0,00 0,00 0,00 0,00 0,00 0,00 31/07/2020
1146 225000 CLEIDE PEREIRA DA SILVA PROMOT.ENTRANC.ESPECIAL BELO HORIZONTE - COMARCA; BH-09PJ AUDITORIA MILITAR-GAB 161PJ 1.100,00 0,00 980,72 0,00 0,00 0,00 0,00 0,00 0,00 31/07/2020
1147 347600 CLEIDIMAR DE OLIVEIRA SILVA OFICIAL DO MP PATOS DE MINAS - COMARCA; PATOS DE MINAS-PJ-07PJ 1.100,00 0,00 450,00 0,00 0,00 0,00 0,00 0,00 0,00 31/07/2020
1148 396500 CLEIDISON BATISTA DE ANDRADE OFICIAL DO MP RESPLENDOR - COMARCA; RESPLENDOR-PJ-UNPJ 1.100,00 769,39 450,00 0,00 0,00 0,00 0,00 0,00 0,00 31/07/2020
1149 916700 CLEISEDIR SANTOS SIMOES ESTAGIARIO CARATINGA; CARATINGA-PJ-03PJ 0,00 0,00 0,00 117,00 0,00 0,00 0,00 0,00 0,00 31/07/2020
1150 535100 CLEISON ALVES DA SILVA ANALISTA DO MP BOA ESPERANÇA - COMARCA; BOA ESPERANCA-PJ-01PJ 1.100,00 0,00 450,00 0,00 0,00 0,00 0,00 0,00 0,00 31/07/2020
1151 897200 CLEISSON CANTARINI MORAES SANTOS ESTAGIARIO CONCEICAO DAS ALAGOAS; CONCEICAO DAS ALAGOAS-PJ-01PJ 0,00 0,00 0,00 63,00 0,00 0,00 0,00 0,00 0,00 31/07/2020
1152 298100 CLEONICE AUGUSTA BARROS DE OLIVEIRA ANALISTA DO MP JUIZ DE FORA - COMARCA; JUIZ DE FORA-PJ-08PJ 1.100,00 0,00 450,00 0,00 0,00 0,00 0,00 0,00 0,00 31/07/2020
1153 114300 CLERES PEREIRA DA SILVA JUNIOR ASSESSOR BELO HORIZONTE - COMARCA; GAECO - SECRETARIA 1.100,00 0,00 450,00 0,00 0,00 0,00 0,00 0,00 0,00 31/07/2020
1154 264100 CLETO HENRIQUE ANDRADE SILVA ANALISTA DO MP BELO HORIZONTE - COMARCA; DIRETORIA DE SISTEMAS DE INFORMACAO 1.100,00 0,00 450,00 0,00 0,00 0,00 0,00 0,00 0,00 31/07/2020
1155 334400 CLEUBA DE OLIVEIRA BARCELOS GONCALVES OFICIAL DO MP DIVINÓPOLIS - COMARCA; COORD REG SAUDE MACRORREGIAO SANITARIA OESTE 1.100,00 0,00 450,00 0,00 0,00 0,00 0,00 0,00 0,00 31/07/2020
1156 347500 CLEUSA CORDEIRO DA MATA PIMENTA OFICIAL DO MP CAMPO BELO - COMARCA; CAMPO BELO-PJ-02PJ 1.100,00 0,00 450,00 0,00 0,00 0,00 0,00 0,00 0,00 31/07/2020
1157 92400 CLEVERSON RAYMUNDO SBARZI GUEDES PROMOT.ENTRANC.ESPECIAL JUIZ DE FORA - COMARCA; JUIZ DE FORA-PJ-14PJ 1.100,00 0,00 3.006,11 0,00 12.352,67 0,00 0,00 0,00 514,69 31/07/2020
1158 510200 CLEZIO SALES SILVA OFICIAL DO MP BRASÓPOLIS - COMARCA; BRASOPOLIS-PJ-UNPJ 1.100,00 769,39 450,00 0,00 0,00 0,00 0,00 0,00 0,00 31/07/2020
1159 323000 CLOTILDE DE PADUA VIEIRA OFICIAL DO MP BELO HORIZONTE - COMARCA; BH-19PJ SAUDE-SECRETARIA 129PJ 1.100,00 0,00 450,00 0,00 0,00 0,00 0,00 0,00 0,00 31/07/2020
1160 285200 CLOVIS ANDRE LUDTKE OFICIAL DO MP BELO HORIZONTE - COMARCA; DIVISAO DE MANUTENCAO PREDIAL 1.100,00 0,00 450,00 0,00 0,00 0,00 0,00 0,00 0,00 31/07/2020
1161 381100 CONCEICAO APARECIDA TEIXEIRA ARANTES ANALISTA DO MP BELO HORIZONTE - COMARCA; BH-23PJ INFRACIONAL-ASS JURIDICA 1.100,00 769,39 450,00 0,00 5.803,99 0,00 0,00 0,00 3.019,63 31/07/2020
1162 1031700 CONRADO FIGUEIREDO ALMEIDA ESTAGIARIO SAO FRANCISCO; SAO FRANCISCO-PJ-01PJ 0,00 0,00 0,00 9,00 0,00 0,00 0,00 0,00 0,00 31/07/2020
1163 249900 CONSTANTINO CEZAR GOMES MOTA OFICIAL DO MP MONTES CLAROS - COMARCA; COORD REG BACIA RIOS VERDE GRANDE E PARDO 1.100,00 769,39 450,00 0,00 0,00 0,00 0,00 0,00 0,00 31/07/2020
1164 594800 COSME COELHO TEIXEIRA 3O.SARGENTO BELO HORIZONTE - COMARCA; NUCLEO DE CONTRAINTELIGENCIA 1.100,00 0,00 0,00 0,00 0,00 0,00 0,00 0,00 0,00 31/07/2020
1165 481000 CRISHMA ANALIA LOMBELLO ANALISTA DO MP JUIZ DE FORA - COMARCA; JUIZ DE FORA-PJ-13PJ 1.100,00 0,00 450,00 0,00 0,00 0,00 0,00 0,00 0,00 31/07/2020
1166 977400 CRISLAINE MAGALHAES SOBRINHO ESTAGIARIO NOVA LIMA; NOVA LIMA-PJ-04PJ
1167 523900 CRISTHYANE BAZOLI COSTA GUEDES COUTO OFICIAL DO MP BELO HORIZONTE - COMARCA; BH-04PJ JUIZO REG PÚBLICOS-SECRETARIA 1.100,00 0,00 450,00 0,00 0,00 0,00 0,00 0,00 0,00 31/07/2020
1168 187000 CRISTIAN DAYVSON EVANGELISTA OFICIAL DO MP JUIZ DE FORA - COMARCA; JUIZ DE FORA-PJ-13PJ 1.100,00 0,00 450,00 0,00 0,00 0,00 0,00 0,00 0,00 31/07/2020
1169 245000 CRISTIAN LUCIO DA SILVA PROMOT.ENTRANC.ESPECIAL BELO HORIZONTE - COMARCA; BH-07PJ 03 TRIBUNAL DO JURI-GAB 064PJ 1.100,00 0,00 2.939,68 0,00 16.844,55 0,00 0,00 0,00 514,69 31/07/2020
1170 319800 CRISTIANA GONCALVES DOS SANTOS GUSMAO OFICIAL DO MP SETE LAGOAS - COMARCA; SETE LAGOAS-PJ-10PJ 1.100,00 0,00 450,00 0,00 0,00 0,00 0,00 0,00 0,00 31/07/2020
1171 520600 CRISTIANA JANAINA BARBOZA JUVENCIO DOS SANTOS ANALISTA DO MP BELO HORIZONTE - COMARCA; BH-02PJ FAMILIA-SECRETARIA 1.100,00 0,00 450,00 0,00 0,00 0,00 0,00 0,00 0,00 31/07/2020
1172 195600 CRISTIANA SOARES HALABI OFICIAL DO MP UBERABA - COMARCA; UBERABA-PJ-01PJ 1.100,00 0,00 450,00 0,00 0,00 0,00 0,00 0,00 0,00 31/07/2020
1173 218900 CRISTIANE ALVES BELLES OFICIAL DO MP JUIZ DE FORA - COMARCA; JUIZ DE FORA-PJ-10PJ 1.100,00 1.153,54 450,00 0,00 0,00 0,00 0,00 0,00 0,00 31/07/2020
1174 291600 CRISTIANE CAMPOS AMORIM BARONY PROMOTOR 2A ENTRANCIA CARANGOLA - COMARCA; CARANGOLA-PJ-03PJ 1.100,00 0,00 2.558,40 0,00 5.334,11 0,00 0,00 0,00 488,96 31/07/2020
1175 263600 CRISTIANE CARVALHO COUTINHO OFICIAL DO MP BELO HORIZONTE - COMARCA; BH-23PJ INFRACIONAL-SEC EXP 1.100,00 0,00 450,00 0,00 0,00 0,00 0,00 0,00 0,00 31/07/2020
1176 541000 CRISTIANE COELHO ALVES OFICIAL DO MP ITABIRA - COMARCA; ITABIRA-PJ-03PJ 1.100,00 0,00 450,00 0,00 0,00 0,00 0,00 0,00 0,00 31/07/2020
1177 441700 CRISTIANE CORRADO DE ANDRADE ANALISTA DO MP BELO HORIZONTE - COMARCA; DIRETORIA DE SISTEMAS DE INFORMACAO 1.100,00 0,00 450,00 0,00 0,00 0,00 0,00 0,00 0,00 31/07/2020
1178 375100 CRISTIANE DAS DORES ERCIO DE LIMA OFICIAL DO MP GOVERNADOR VALADARES - COMARCA; COOR REG APOIO COM INC MOB VALE DO RIO DOCE 1.100,00 0,00 450,00 0,00 0,00 0,00 0,00 0,00 0,00 31/07/2020
1179 178800 CRISTIANE DE LIMA HOSKEN OFICIAL DO MP BELO HORIZONTE - COMARCA; BH-14PJ DEFESA CONSUMIDOR-GAB 110PJ 1.100,00 0,00 450,00 0,00 0,00 0,00 0,00 0,00 0,00 31/07/2020
1180 494000 CRISTIANE DE MELO MARQUEZ OLIVEIRA ANALISTA DO MP UBERLÂNDIA - COMARCA; UBERLANDIA-PJ-06PJ 1.100,00 1.538,78 450,00 0,00 0,00 0,00 0,00 0,00 0,00 31/07/2020
1181 266100 CRISTIANE DE OLIVEIRA CASTRO OFICIAL DO MP BELO HORIZONTE - COMARCA; BH-14PJ DEFESA CONSUMIDOR-SECRETARIA 1.100,00 0,00 450,00 0,00 0,00 0,00 1.445,27 0,00 0,00 31/07/2020
1182 329500 CRISTIANE DOS REIS SILVA OFICIAL DO MP ARAXÁ - COMARCA; ARAXA-PJ-04PJ 1.100,00 0,00 450,00 0,00 0,00 0,00 0,00 0,00 0,00 31/07/2020
1183 301600 CRISTIANE GODINHO PIRES ANALISTA DO MP BETIM - COMARCA; BETIM-PJ-07PJ 1.100,00 0,00 450,00 0,00 0,00 0,00 0,00 0,00 0,00 31/07/2020
1184 406100 CRISTIANE GONCALVES CHAVES ANALISTA DO MP BELO HORIZONTE - COMARCA; BH-14PJ DEFESA CONSUMIDOR-GAB 112PJ 1.100,00 0,00 450,00 0,00 0,00 0,00 0,00 0,00 0,00 31/07/2020
1185 487600 CRISTIANE LOPES DE OLIVEIRA OFICIAL DO MP DIVINÓPOLIS - COMARCA; DIVINOPOLIS-PJ-03PJ 1.100,00 0,00 450,00 0,00 0,00 0,00 0,00 0,00 0,00 31/07/2020
1186 502500 CRISTIANE MACIEL DE OLIVEIRA GOMES ANALISTA DO MP JUIZ DE FORA - COMARCA; JUIZ DE FORA-PJ-05PJ 1.100,00 769,39 450,00 0,00 0,00 0,00 0,00 0,00 0,00 31/07/2020
1187 285500 CRISTIANE MAGALHAES LOURENCO ANALISTA DO MP BELO HORIZONTE - COMARCA; CENTRAL DE APOIO TECNICO-SETOR CONTABIL 1.100,00 0,00 450,00 0,00 0,00 0,00 0,00 0,00 0,00 31/07/2020
1188 536500 CRISTIANE MICHELE DE SOUZA ANALISTA DO MP BARÃO DE COCAIS - COMARCA; BARAO DE COCAIS-PJ-UNPJ 1.100,00 769,39 450,00 0,00 0,00 0,00 0,00 0,00 0,00 31/07/2020
1189 346600 CRISTIANE NOGUEIRA ANDRADE ANALISTA DO MP BELO HORIZONTE - COMARCA; CENTRAL DE APOIO TECNICO-SETOR CONTABIL 1.100,00 0,00 450,00 0,00 0,00 0,00 0,00 0,00 0,00 31/07/2020
1190 234000 CRISTIANE OLIVEIRA TOSTES OFICIAL DO MP JUIZ DE FORA - COMARCA; JUIZ DE FORA-PJ-08PJ 1.100,00 769,39 450,00 0,00 0,00 0,00 0,00 0,00 0,00 31/07/2020
1191 445800 CRISTIANE ORZIL COSTA OFICIAL DO MP SANTA LUZIA - COMARCA; SANTA LUZIA-PJ-05PJ 1.100,00 769,39 450,00 0,00 0,00 0,00 0,00 0,00 0,00 31/07/2020
1192 616100 CRISTIANE PAES RODRIGUES MARCICANO ANALISTA DO MP CATAGUASES - COMARCA; CATAGUASES-PJ-05PJ 1.100,00 1.538,78 450,00 0,00 0,00 0,00 0,00 0,00 0,00 31/07/2020
1193 1110700 CRISTIANE PIRES DAMASCENO ESTAGIARIO ITURAMA; ITURAMA-PJ-02PJ 0,00 0,00 0,00 189,00 0,00 0,00 0,00 0,00 0,00 31/07/2020
1194 612300 CRISTIANE RIBEIRO DOS REIS ARCANJO OFICIAL DO MP BELO HORIZONTE - COMARCA; DIRETORIA DE PAGAMENTO DE PESSOAL-DPAG
1195 257700 CRISTIANE RODRIGUES PAES NUNES ANALISTA DO MP BELO HORIZONTE - COMARCA; BH-22PJ PES COM DEF E IDOSOS-ORIENTACAO PSIC 1.100,00 769,39 450,00 0,00 0,00 0,00 0,00 0,00 0,00 31/07/2020
1196 510800 CRISTIANE SANTOS FERNANDES ORNELES ANALISTA DO MP BELO HORIZONTE - COMARCA; COORD ESTADUAL DAS PJS DE HAB. E URBANISMO 1.100,00 0,00 450,00 0,00 0,00 0,00 0,00 0,00 0,00 31/07/2020
1197 535701 CRISTIANE SANTOS MIRANDA ANALISTA DO MP BETIM - COMARCA; BETIM-PJ-12PJ 1.100,00 0,00 450,00 0,00 0,00 0,00 0,00 0,00 0,00 31/07/2020
1198 163400 CRISTIANO CASSIOLATO PROMOTOR 1A ENTRANCIA CARMO DO RIO CLARO - COMARCA; CARMO DO RIO CLARO-PJ-UNPJ 1.100,00 0,00 3.040,44 0,00 11.148,28 0,00 0,00 0,00 464,51 31/07/2020
1199 484000 CRISTIANO CESAR PIMENTA DAYRELL DA CUNHA PROMOT.ENTRANC.ESPECIAL SETE LAGOAS - COMARCA; SETE LAGOAS-PJ-01PJ 1.100,00 0,00 2.558,40 0,00 5.614,85 0,00 0,00 0,00 514,69 31/07/2020
1200 299901 CRISTIANO DA COSTA MATA PROMOT.ENTRANC.ESPECIAL CORONEL FABRICIANO - COMARCA; CORONEL FABRICIANO-PJ-03PJ 1.100,00 0,00 2.451,80 0,00 5.614,85 0,00 0,00 0,00 514,69 31/07/2020
1201 536200 CRISTIANO DE OLIVEIRA ANALISTA DO MP CONCEIÇÃO DO MATO DENTRO - COMARCA; CONCEICAO DO MATO DENTRO-PJ-UNPJ 1.100,00 897,63 450,00 0,00 0,00 0,00 0,00 0,00 0,00 31/07/2020
1202 440000 CRISTIANO MOREIRA SILVA PROMOTOR 2A ENTRANCIA CAPELINHA - COMARCA; CAPELINHA-PJ-02PJ 1.100,00 0,00 2.285,40 0,00 11.735,04 0,00 0,00 0,00 488,96 31/07/2020
1203 167400 CRISTIANO ROCHA GAZAL PROMOTOR 1A ENTRANCIA CAMBUQUIRA - COMARCA; CAMBUQUIRA-PJ-UNPJ 1.100,00 0,00 1.492,40 0,00 11.148,28 0,00 0,00 0,00 464,51 31/07/2020
1204 477400 CRISTIANO SOARES ELEUTERIO ANALISTA DO MP BELO HORIZONTE - COMARCA; BH-17PJ PATRIMONIO PUBLICO-SECRETARIA 1.100,00 0,00 450,00 0,00 0,00 0,00 0,00 0,00 0,00 31/07/2020
1205 449400 CRISTIANO TEIXEIRA RODRIGUES LANA ANALISTA DO MP BELO HORIZONTE - COMARCA; ASSESS TECNICO-JUR JUNTO AS PROC. DE JUST 1.100,00 0,00 450,00 0,00 0,00 0,00 0,00 0,00 0,00 31/07/2020
1206 106600 CRISTINA BECHARA KALLAS PROMOTOR 2A ENTRANCIA PASSOS - COMARCA; PASSOS-PJ-03PJ 1.100,00 0,00 2.153,31 0,00 5.334,11 0,00 0,00 0,00 488,96 31/07/2020
1207 239400 CRISTINA DE FATIMA CRUZ E SILVA OFICIAL DO MP MONTE SANTO DE MINAS - COMARCA; MONTE SANTO DE MINAS-PJ-SECRETARIA 1.100,00 0,00 450,00 0,00 0,00 0,00 0,00 0,00 0,00 31/07/2020
1208 544000 CRISTINA DE OLIVEIRA TERRA ANALISTA DO MP MATOZINHOS - COMARCA; MATOZINHOS-PJ-01PJ 1.100,00 0,00 450,00 0,00 0,00 0,00 0,00 0,00 0,00 31/07/2020
1209 356800 CRISTINA DE PINHO BARROSO OFICIAL DO MP SABINÓPOLIS - COMARCA; SABINOPOLIS-PJ-UNPJ 1.100,00 769,39 450,00 0,00 0,00 0,00 0,00 0,00 0,00 31/07/2020
1210 649500 CRISTINA DO DIVINO ESPIRITO SANTOS OFICIAL DO MP DIVINÓPOLIS - COMARCA; DIVINOPOLIS-PJ-12PJ 1.100,00 0,00 450,00 0,00 0,00 0,00 0,00 0,00 0,00 31/07/2020
1211 218500 CRISTINA FAGUNDES SIQUEIRA PROMOTOR 2A ENTRANCIA ARAGUARI - COMARCA; ARAGUARI-PJ-04PJ 1.100,00 0,00 3.144,04 0,00 11.735,04 0,00 0,00 0,00 488,96 31/07/2020
1212 484500 CRISTINA FERREIRA LABARRERE NASCIMENTO PROMOTOR SUBSTITUTO CONTAGEM - COMARCA; CONTAGEM-PJ-11PJ 1.100,00 0,00 1.748,24 0,00 5.067,40 0,00 0,00 0,00 464,51 31/07/2020
1213 348201 CRISTINA MARIA DA SILVA ANALISTA DO MP PATOS DE MINAS - COMARCA; PATOS DE MINAS-PJ-07PJ 1.100,00 769,39 450,00 0,00 0,00 0,00 0,00 0,00 0,00 31/07/2020
1214 434900 CRISTINA MELO DE MADUREIRA ANALISTA DO MP BELO HORIZONTE - COMARCA; BH-07PJ 01 TRIBUNAL JURI-SECRETARIA 1.100,00 0,00 450,00 0,00 0,00 0,00 0,00 0,00 0,00 31/07/2020
1215 307700 CRISTINA TEIXEIRA MARQUES OFICIAL DO MP BELO HORIZONTE - COMARCA; CENTRAL DE APOIO TECNICO-SETOR CONTABIL 1.100,00 0,00 450,00 0,00 0,00 0,00 0,00 0,00 0,00 31/07/2020
1216 58700 CRISTOVAM JOAQUIM FERNANDES RAMOS FILHO PROCURADOR DE JUSTICA BELO HORIZONTE - COMARCA; PROC JUST ESP ACOES COMP ORIG CRIMINAL 0,00 0,00 1.279,19 0,00 0,00 0,00 0,00 0,00 0,00 31/07/2020
1217 265300 CRISTOVAO SANCHES DE MEDEIROS ANALISTA DO MP BELO HORIZONTE - COMARCA; DIRETORIA DE CONTABILIDADE 1.100,00 0,00 450,00 0,00 0,00 0,00 0,00 0,00 0,00 31/07/2020
1218 349800 CROZEIR LUIZ DA SILVA OFICIAL DO MP UNAÍ - COMARCA; UNAI-PJ-SECRETARIA 1.100,00 0,00 450,00 0,00 0,00 1.505,62 0,00 0,00 0,00 31/07/2020
1219 490500 CYNTHIA CRISTINA DE SOUZA OLIVEIRA VALENTE ANALISTA DO MP BELO HORIZONTE - COMARCA; BH-09PJ AUDITORIA MILITAR-SECRETARIA 1.100,00 0,00 450,00 0,00 0,00 0,00 0,00 0,00 0,00 31/07/2020
1220 344200 CYNTHIA DUARTE VILELA PROMOTOR 2A ENTRANCIA SABARÁ - COMARCA; SABARA-PJ-03PJ 1.100,00 0,00 1.748,24 0,00 5.334,11 0,00 0,00 0,00 488,96 31/07/2020
1221 389800 CYNTHIA GARIGLIO DOS SANTOS OFICIAL DO MP PERDIZES - COMARCA; PERDIZES-PJ-SECRETARIA 1.100,00 769,39 450,00 0,00 0,00 0,00 0,00 0,00 0,00 31/07/2020
1222 335101 CYNTHIA GONTIJO D ASSUNCAO ANALISTA DO MP BELO HORIZONTE - COMARCA; PROC. JUSTICA DIR. DIFUSOS E COLETIVOS-SEC 1.100,00 769,39 450,00 0,00 0,00 0,00 0,00 0,00 0,00 31/07/2020
1223 154000 CYNTHIA LOPES DOS SANTOS LAGES ASSESSOR BELO HORIZONTE - COMARCA; PROCURADOR-GERAL DE JUSTICA- GABINETE 1.100,00 0,00 450,00 0,00 0,00 0,00 0,00 0,00 0,00 31/07/2020
1224 223600 CYNTHIA MARIA DOS SANTOS SILVA JORGE PROMOT.ENTRANC.ESPECIAL BELO HORIZONTE - COMARCA; BH-13PJ JUIZO DE TOXICOS-GAB 011PJ 1.100,00 0,00 2.494,43 0,00 12.352,67 0,00 0,00 0,00 514,69 31/07/2020
1225 1029100 CYNTHIA SOUZA RAMOS ESTAGIARIO BELO HORIZONTE; DIRET DE FORMACAO, APERFEIC. E POS-GRADUACAO
1226 531200 CYNTIA CAMPOS GIRO PROMOTOR 2A ENTRANCIA PONTE NOVA - COMARCA; PONTE NOVA-PJ-05PJ 1.100,00 0,00 0,00 0,00 0,00 0,00 0,00 0,00 0,00 31/07/2020
1227 269700 CYNTIA ROCHA CAVALCANTI OFICIAL DO MP UBERLÂNDIA - COMARCA; UBERLANDIA-PJ-06PJ 1.100,00 769,39 450,00 0,00 0,00 0,00 0,00 0,00 0,00 31/07/2020
1228 1092800 DAIANA LUCIA DE ALMEIDA ESTAGIARIO JUIZ DE FORA; JUIZ DE FORA-PJ-10PJ
1229 1149200 DAIANA MACHADO DA SILVA ESTAGIARIO
1230 1025100 DAIANE GONCALVES BORGES ESTAGIARIO ITUIUTABA; ITUIUTABA-PJ-05PJ 0,00 0,00 0,00 63,00 0,00 0,00 0,00 0,00 0,00 31/07/2020
1231 1044300 DAIANE ILMA FERREIRA ESTAGIARIO ITABIRA; ITABIRA-PJ-03PJ 0,00 0,00 0,00 126,00 0,00 0,00 0,00 0,00 0,00 31/07/2020
1232 278000 DAIRTON LOPES MARTINS FILHO COORDENADOR/ANALISTA BELO HORIZONTE - COMARCA; DIRETORIA DE SISTEMAS DE INFORMACAO 1.100,00 0,00 450,00 0,00 0,00 0,00 0,00 0,00 0,00 31/07/2020
1233 392700 DALIANA CHAVES IBRAIM MARINHO OFICIAL DO MP ITAÚNA - COMARCA; ITAUNA-PJ-04PJ 1.100,00 0,00 450,00 0,00 0,00 0,00 0,00 0,00 0,00 31/07/2020
1234 1107100 DALILA MAGALHAES CABRAL ESTAGIARIO CONTAGEM; CONTAGEM-PJ-06PJ 0,00 0,00 0,00 45,00 0,00 0,00 0,00 0,00 0,00 31/07/2020
1235 558101 DALLEY TASSIA SILVA ANALISTA DO MP MORADA NOVA DE MINAS - COMARCA; MORADA NOVA DE MINAS-PJ-UNPJ 1.100,00 1.538,78 450,00 0,00 0,00 0,00 0,00 0,00 0,00 31/07/2020
1236 476700 DALTON DAUD ANALISTA DO MP ARAGUARI - COMARCA; ARAGUARI-PJ-05PJ 1.100,00 0,00 450,00 0,00 0,00 0,00 0,00 0,00 0,00 31/07/2020
1237 1013200 DAMARIS DE ARAUJO NASCIMENTO ESTAGIARIO TRES CORACOES; TRES CORACOES-PJ-02PJ
1238 426900 DANIEL ALVES DA SILVA OFICIAL DO MP BELO HORIZONTE - COMARCA; DIVISAO TRANSPORTES 1.100,00 0,00 450,00 0,00 0,00 0,00 0,00 0,00 0,00 31/07/2020
1239 343900 DANIEL ANGELO DE OLIVEIRA RANGEL PROMOTOR 1A ENTRANCIA RIO PRETO - COMARCA; RIO PRETO-PJ-UNPJ 1.100,00 0,00 2.174,64 0,00 5.067,40 0,00 0,00 0,00 464,51 31/07/2020
1240 122000 DANIEL ANTONIO VIEIRA OFICIAL DO MP ENTRE-RIOS DE MINAS - COMARCA; ENTRE RIOS DE MINAS-PJ-SECRETARIA 1.100,00 0,00 450,00 0,00 0,00 0,00 0,00 0,00 0,00 31/07/2020
1241 311501 DANIEL BATISTA MENDES PROMOT.ENTRANC.ESPECIAL BELO HORIZONTE - COMARCA; BH-CENTRAL DE RECEPÇÃO DE FLAGRANTES 1.100,00 0,00 2.451,80 0,00 5.895,59 0,00 0,00 0,00 1.382,65 31/07/2020
1242 437801 DANIEL CASTRO E MELO PROMOTOR 2A ENTRANCIA JANAÚBA - COMARCA; JANAUBA-PJ-03PJ 1.100,00 0,00 0,00 0,00 6.400,93 0,00 0,00 0,00 0,00 31/07/2020
1243 313800 DANIEL DE OLIVEIRA MALARD PROMOT.ENTRANC.ESPECIAL BELO HORIZONTE - COMARCA; CAO-CRIMINAL 1.100,00 0,00 2.217,28 0,00 12.352,67 0,00 0,00 0,00 514,69 31/07/2020
1244 170200 DANIEL DE SA RODRIGUES PROMOT.ENTRANC.ESPECIAL BELO HORIZONTE - COMARCA; BH-11PJ COMB CRIME ORGANIZ-GAB 082PJ 1.100,00 0,00 2.601,04 0,00 39.303,96 0,00 0,00 0,00 514,69 31/07/2020
1245 456600 DANIEL DOS SANTOS RODRIGUES PROMOTOR 2A ENTRANCIA ITUIUTABA - COMARCA; ITUIUTABA-PJ-06PJ 1.100,00 0,00 0,00 0,00 0,00 0,00 0,00 0,00 0,00 31/07/2020
1246 996600 DANIEL FERREIRA CAMARA ESTAGIARIO BELO HORIZONTE; CAO-CRIMINAL-GABINETES
1247 411000 DANIEL FERREIRA DA SILVA ANALISTA DO MP GOVERNADOR VALADARES - COMARCA; GOVERNADOR VALADARES-PJ-15PJ 1.100,00 769,39 450,00 0,00 5.711,48 0,00 0,00 0,00 523,55 31/07/2020
1248 309000 DANIEL GOMES DOS SANTOS ANALISTA DO MP POÇOS DE CALDAS - COMARCA; POCOS DE CALDAS-PJ-03PJ 1.100,00 0,00 450,00 0,00 0,00 0,00 0,00 0,00 0,00 31/07/2020
1249 554500 DANIEL GOMES PEREIRA OFICIAL DO MP NANUQUE - COMARCA; NANUQUE-PJ-02PJ 1.100,00 0,00 450,00 0,00 0,00 0,00 0,00 0,00 0,00 31/07/2020
1250 453000 DANIEL GONCALVES PEREIRA ANALISTA DO MP UNAÍ - COMARCA; UNAI-PJ-02PJ 1.100,00 1.153,54 450,00 0,00 0,00 0,00 0,00 0,00 0,00 31/07/2020
1251 495500 DANIEL GUIMARAES CABRAL OFICIAL DO MP BELO HORIZONTE - COMARCA; BH-17PJ PATRIMONIO PUBLICO-SECRETARIA 1.100,00 0,00 450,00 0,00 0,00 0,00 0,00 0,00 0,00 31/07/2020
1252 442900 DANIEL GUIMARAES GONCALVES ANALISTA DO MP UBERLÂNDIA - COMARCA; UBERLANDIA-PJ-03PJ 1.100,00 0,00 450,00 0,00 0,00 0,00 0,00 0,00 0,00 31/07/2020
1253 634800 DANIEL LESSA COSTA PROMOT.ENTRANC.ESPECIAL CARATINGA - COMARCA; CARATINGA-PJ-02PJ 1.100,00 0,00 1.918,80 0,00 5.614,85 0,00 0,00 0,00 514,69 31/07/2020
1254 655900 DANIEL LUIZ DA SILVA ASSESSOR BELO HORIZONTE - COMARCA; DIV FISCAL ADM CONT TERCEIRIZACAO 1.100,00 0,00 450,00 0,00 0,00 0,00 0,00 0,00 0,00 31/07/2020
1255 209600 DANIEL MAROTTA MARTINEZ PROMOT.ENTRANC.ESPECIAL UBERLÂNDIA - COMARCA; UBERLANDIA-PJ-17PJ 1.100,00 0,00 1.631,20 0,00 5.614,85 0,00 0,00 0,00 514,69 31/07/2020
1256 440300 DANIEL OLIVEIRA DE ORNELAS PROMOT.ENTRANC.ESPECIAL MONTES CLAROS - COMARCA; MONTES CLAROS-PJ-12PJ 1.100,00 0,00 2.558,40 0,00 5.614,85 0,00 0,00 0,00 514,69 31/07/2020
1257 464600 DANIEL PIACENTINI STIVANIN ANALISTA DO MP ANDRADAS - COMARCA; ANDRADAS-PJ-02PJ 1.100,00 0,00 450,00 0,00 0,00 0,00 0,00 0,00 0,00 31/07/2020
1258 533600 DANIEL PIOVANELLI ARDISSON PROMOTOR 2A ENTRANCIA MONTES CLAROS - COMARCA; COORD REG BACIA RIOS VERDE GRANDE E PARDO 1.100,00 0,00 1.492,40 0,00 37.338,76 0,00 0,00 0,00 488,96 31/07/2020
1259 417000 DANIEL QUEIROZ FERREIRA ANALISTA DO MP SÃO SEBASTIÃO DO PARAÍSO - COMARCA; SAO SEBASTIAO DO PARAISO-PJ-05PJ 1.100,00 0,00 450,00 0,00 0,00 0,00 0,00 0,00 0,00 31/07/2020
1260 483400 DANIEL RIBEIRO COSTA PROMOTOR 1A ENTRANCIA ELOI MENDES - COMARCA; ELOI MENDES-PJ-UNPJ 1.100,00 0,00 1.918,80 0,00 5.067,40 0,00 0,00 0,00 464,51 31/07/2020
1261 457600 DANIEL SALIBA DE FREITAS PROMOTOR 2A ENTRANCIA NOVA SERRANA - COMARCA; NOVA SERRANA-PJ-02PJ 1.100,00 0,00 2.558,40 0,00 5.334,11 0,00 0,00 0,00 488,96 31/07/2020
1262 396700 DANIEL SILVA CARNEVALLI DIRETOR/ANALISTA BELO HORIZONTE - COMARCA; SUPERINTENDENCIA DE TECNOLOGIA DA INFORMACAO 1.100,00 769,39 450,00 0,00 0,00 0,00 0,00 0,00 0,00 31/07/2020
1263 489300 DANIEL TABOZA ROCHA ANALISTA DO MP IPATINGA - COMARCA; IPATINGA-PJ-08PJ 1.100,00 769,39 450,00 0,00 0,00 0,00 0,00 0,00 0,00 31/07/2020
1264 414100 DANIEL TARDELI VALADAO ANALISTA DO MP TRÊS CORACOES - COMARCA; TRES CORACOES-PJ-02PJ 1.100,00 1.538,78 450,00 0,00 0,00 0,00 0,00 0,00 0,00 31/07/2020
1265 446601 DANIEL VIEIRA BUENO ANALISTA DO MP SÃO DOMINGOS DO PRATA - COMARCA; SAO DOMINGOS DO PRATA-PJ-UNPJ 1.100,00 769,39 450,00 0,00 0,00 0,00 0,00 0,00 0,00 31/07/2020
1266 1118300 DANIELA BARROS GOMES ESTAGIARIO IBIRITE; IBIRITE-PJ-05PJ
1267 253200 DANIELA BATISTA LIMA BARBOSA ASSESSOR BELO HORIZONTE - COMARCA; CENTRAL DE APOIO TECN-SETOR DE MEIO AMBIENTE 1.100,00 0,00 450,00 0,00 0,00 0,00 0,00 0,00 0,00 31/07/2020
1268 505800 DANIELA BORGES DE MATTOS RESENDE ANALISTA DO MP JUIZ DE FORA - COMARCA; JUIZ DE FORA-PJ-20PJ 1.100,00 769,39 450,00 0,00 0,00 0,00 0,00 0,00 0,00 31/07/2020
1269 533700 DANIELA CAMPOS DE ABREU SERRA PROMOTOR 2A ENTRANCIA FRUTAL - COMARCA; FRUTAL-PJ-03PJ 1.100,00 0,00 1.748,24 0,00 6.400,93 0,00 0,00 0,00 0,00 31/07/2020
1270 478000 DANIELA CARVALHO SOARES ANALISTA DO MP SÃO JOÃO DEL REI - COMARCA; SAO JOAO DEL REI-PJ-01PJ 1.100,00 0,00 450,00 0,00 0,00 0,00 0,00 0,00 0,00 31/07/2020
1271 275900 DANIELA CHAGAS SODRE ANALISTA DO MP BELO HORIZONTE - COMARCA; CENTRAL DE APOIO TECNICO-SETOR CONTABIL 1.100,00 0,00 450,00 0,00 0,00 0,00 0,00 0,00 0,00 31/07/2020
1272 1057200 DANIELA CONCEICAO CAMPOS ESTAGIARIO BELO HORIZONTE; BH-08PJ JUIZADO ESPECIAL-GAB 051PJ
1273 210100 DANIELA CRISTINA PEDROSA BITTENCOURT MARTINEZ PROMOT.ENTRANC.ESPECIAL UBERLÂNDIA - COMARCA; UBERLANDIA-PJ-15PJ 1.100,00 0,00 1.321,84 0,00 5.614,85 0,00 0,00 0,00 514,69 31/07/2020
1274 234301 DANIELA CRUZ SOARES ANALISTA DO MP BELO HORIZONTE - COMARCA; LABORATORIO TECNOLOGIA INTELIGENCIA 1.100,00 0,00 450,00 0,00 0,00 0,00 0,00 0,00 0,00 31/07/2020
1275 638000 DANIELA DE ALMEIDA BATISTA ANALISTA DO MP ANDRELÂNDIA - COMARCA; ANDRELANDIA-PJ-UNPJ 1.100,00 769,39 450,00 0,00 0,00 0,00 0,00 0,00 0,00 31/07/2020
1276 301000 DANIELA DE ALMEIDA E OLIVEIRA ANALISTA DO MP BELO HORIZONTE - COMARCA; DIRETORIA DE SISTEMAS DE INFORMACAO 1.100,00 0,00 450,00 0,00 0,00 0,00 0,00 0,00 0,00 31/07/2020
1277 296000 DANIELA DE AZEVEDO SILVA ANALISTA DO MP BRASÓPOLIS - COMARCA; BRASOPOLIS-PJ-UNPJ 1.100,00 0,00 450,00 0,00 0,00 0,00 0,00 0,00 0,00 31/07/2020
1278 453500 DANIELA DE CASTRO SOUSA BARBOSA ANALISTA DO MP BELO HORIZONTE - COMARCA; BH-08PJ JUIZADO ESPECIAL-SECRETARIA 1.100,00 0,00 450,00 0,00 0,00 0,00 0,00 0,00 0,00 31/07/2020
1279 506000 DANIELA DE OLIVEIRA CAVALIERI ANALISTA DO MP BELO HORIZONTE - COMARCA; BH-14PJ DEFESA CONSUMIDOR-GAB 005PJ 1.100,00 0,00 450,00 0,00 0,00 0,00 0,00 0,00 0,00 31/07/2020
1280 546200 DANIELA DE VILHENA LEMES GONCALVES OFICIAL DO MP TRÊS CORACOES - COMARCA; TRES CORACOES-PJ-05PJ 1.100,00 0,00 450,00 0,00 0,00 0,00 0,00 0,00 0,00 31/07/2020
1281 876100 DANIELA FERNANDES BARROS ESTAGIARIO SENADOR FIRMINO; SENADOR FIRMINO-PJ-UNPJ
1282 356400 DANIELA LEAL FERRAZ ANALISTA DO MP MONTES CLAROS - COMARCA; COORD REG PJ DEF EDUC DIR CRIANCA ADOL NORTE 1.100,00 0,00 450,00 0,00 0,00 0,00 0,00 0,00 0,00 31/07/2020
1283 1114900 DANIELA LOPES FERREIRA DA SILVA ESTAGIARIO SETE LAGOAS; SETE LAGOAS-PJ-03PJ 0,00 0,00 0,00 153,00 0,00 0,00 0,00 0,00 0,00 31/07/2020
1284 501000 DANIELA LOURENCO SANTOS DA SILVA GUIMARAES ANALISTA DO MP BELO HORIZONTE - COMARCA; BH-12PJ JUIZO CRIMINAL-GAB 095PJ 1.100,00 769,39 450,00 0,00 0,00 0,00 0,00 0,00 0,00 31/07/2020
1285 1120200 DANIELA MARIA ALTIERI PEREIRA ESTAGIARIO BELO HORIZONTE; GRUPO ESP PROM JUST DEF PROB ADM PAT PUB 0,00 0,00 0,00 18,00 0,00 0,00 0,00 0,00 0,00 31/07/2020
1286 195801 DANIELA MARIA DE OLIVEIRA QUEIROZ ANALISTA DO MP ARAGUARI - COMARCA; ARAGUARI-PJ-06PJ 1.100,00 0,00 450,00 0,00 0,00 0,00 0,00 0,00 0,00 31/07/2020
1287 511400 DANIELA MARIA LARA DE OLIVEIRA ANALISTA DO MP BOA ESPERANÇA - COMARCA; BOA ESPERANCA-PJ-02PJ 1.100,00 769,39 450,00 0,00 0,00 0,00 0,00 0,00 0,00 31/07/2020
1288 1090900 DANIELA MARTINS MURITIBA ESTAGIARIO BELO HORIZONTE; BH-08PJ JUIZADO ESPECIAL-GAB 068PJ
1289 1072100 DANIELA MATTAR CARVALHO ROMANO ESTAGIARIO SAO GONCALO DO SAPUCAI; SAO GONCALO DO SAPUCAI-PJ-02PJ 0,00 0,00 0,00 81,00 0,00 0,00 0,00 0,00 0,00 31/07/2020
1290 252101 DANIELA PAULA ALVES PENA ANALISTA DO MP CONTAGEM - COMARCA; CONTAGEM-PJ-APO TECNICO 1.100,00 0,00 450,00 0,00 0,00 0,00 0,00 0,00 0,00 31/07/2020
1291 604700 DANIELA PEIXOTO NOGUEIRA COORDENADOR/OFICIAL BELO HORIZONTE - COMARCA; DIRET DE FORMACAO, APERFEIC. E POS-GRADUACAO 1.100,00 769,39 450,00 0,00 0,00 0,00 0,00 0,00 0,00 31/07/2020
1292 429600 DANIELA PIMENTA NUNES MACHADO ANALISTA DO MP BELO HORIZONTE - COMARCA; BH-05PJ-JUÍZO SUCESSÕES-SEC 1.100,00 769,39 450,00 0,00 0,00 0,00 0,00 0,00 0,00 31/07/2020
1293 662000 DANIELA RIBAS DE AVILA ASSESSOR I BELO HORIZONTE - COMARCA; DIRETORIA DE SEGURANCA 1.100,00 0,00 450,00 0,00 0,00 0,00 0,00 0,00 0,00 31/07/2020
1294 1035600 DANIELA SANTOS ALKIMIM ESTAGIARIO BELO HORIZONTE; DIVISAO FROTA
1295 223800 DANIELA SIQUEIRA MENDES PIRES AMARAL VIEIRA PROMOT.ENTRANC.ESPECIAL BELO HORIZONTE - COMARCA; BH-02PJ FAMILIA-GAB 021PJ 1.100,00 0,00 2.643,68 0,00 0,00 0,00 0,00 0,00 0,00 31/07/2020
1296 462000 DANIELA SOUSA GOMES DO AMARAL ANALISTA DO MP BETIM - COMARCA; BETIM-PJ-04PJ 1.100,00 0,00 450,00 0,00 0,00 0,00 0,00 0,00 0,00 31/07/2020
1297 427000 DANIELA TEIXEIRA DINIZ ANDRADE ANALISTA DO MP BELO HORIZONTE - COMARCA; DIRETORIA DE PROJETOS DE EDIFICACOES 1.100,00 0,00 450,00 0,00 0,00 0,00 0,00 0,00 0,00 31/07/2020
1298 211300 DANIELA TOLEDO GOUVEIA MARTINS PROMOTOR 2A ENTRANCIA ITUIUTABA - COMARCA; ITUIUTABA-PJ-05PJ 1.100,00 0,00 3.155,36 0,00 5.334,11 0,00 0,00 0,00 488,96 31/07/2020
1299 337200 DANIELA TOLEDO SENIUK ANALISTA DO MP BELO HORIZONTE - COMARCA; GABINETE DE PROCURADOR DE JUSTIÇA - SALA 412 1.100,00 0,00 450,00 0,00 0,00 0,00 0,00 0,00 0,00 31/07/2020
1300 887300 DANIELA VIANA SALOMAO PUNGIRUM ESTAGIARIO AGUAS FORMOSAS; AGUAS FORMOSAS-PJ-UNPJ 0,00 0,00 0,00 72,00 0,00 0,00 0,00 0,00 0,00 31/07/2020
1301 246300 DANIELA VIEIRA DE ALMEIDA TREVISAN PROMOT.ENTRANC.ESPECIAL POÇOS DE CALDAS - COMARCA; POCOS DE CALDAS-PJ-04PJ 1.100,00 0,00 3.155,36 0,00 0,00 0,00 0,00 0,00 0,00 31/07/2020
1302 362100 DANIELA YOKOYAMA PROMOT.ENTRANC.ESPECIAL BELO HORIZONTE - COMARCA; COORD ESTADUAL DE DEFESA DA EDUCACAO 1.100,00 0,00 852,80 0,00 0,00 0,00 0,00 0,00 0,00 31/07/2020
1303 605600 DANIELE ALZIRA SILVA CABRAL MOREIRA OFICIAL DO MP BELO HORIZONTE - COMARCA; BH-10PJ EXECUÇÃO PENAL-SECRETARIA 1.100,00 769,39 450,00 0,00 0,00 0,00 0,00 0,00 0,00 31/07/2020
1304 195500 DANIELE CHAVES FONSECA OFICIAL DO MP BELO HORIZONTE - COMARCA; ASSESSORIA ESPECIAL DO PGJ 1.100,00 0,00 450,00 0,00 0,00 0,00 0,00 0,00 0,00 31/07/2020
1305 323400 DANIELE MEGALE SANTINI OFICIAL DO MP BELO HORIZONTE - COMARCA; ASSESS TECNICO-JUR JUNTO AS PROC. DE JUST 1.100,00 0,00 450,00 0,00 0,00 0,00 0,00 0,00 0,00 31/07/2020
1306 293300 DANIELE NACONESKI PROMOT.ENTRANC.ESPECIAL SANTA LUZIA - COMARCA; SANTA LUZIA-PJ-04PJ 1.100,00 0,00 852,80 0,00 5.614,85 0,00 0,00 0,00 514,69 31/07/2020
1307 357900 DANIELE REJANE PINTO VERSIEUX OFICIAL DO MP PEDRO LEOPOLDO - COMARCA; PEDRO LEOPOLDO-PJ-03PJ 1.100,00 0,00 450,00 0,00 0,00 0,00 0,00 0,00 0,00 31/07/2020
1308 389500 DANIELE VASCONCELOS AMORIM PRADO OFICIAL DO MP SÃO SEBASTIÃO DO PARAÍSO - COMARCA; SAO SEBASTIAO DO PARAISO-PJ-04PJ 1.100,00 0,00 450,00 0,00 0,00 0,00 0,00 0,00 0,00 31/07/2020
1309 629700 DANIELLA BASTOS MARTINS BICALHO OFICIAL DO MP GOVERNADOR VALADARES - COMARCA; GOVERNADOR VALADARES-PJ-16PJ 1.100,00 0,00 450,00 0,00 0,00 0,00 0,00 0,00 0,00 31/07/2020
1310 944500 DANIELLE ANDRADE FERREIRA ESTAGIARIO UBERLANDIA; UBERLANDIA-PJ-01PJ 0,00 0,00 0,00 81,00 0,00 0,00 0,00 0,00 0,00 31/07/2020
1311 439600 DANIELLE ANGELICA POLASTRI DE MENDONCA PROMOT.ENTRANC.ESPECIAL SANTA LUZIA - COMARCA; SANTA LUZIA-PJ-03PJ 1.100,00 0,00 1.856,60 0,00 16.844,55 0,00 0,00 0,00 514,69 31/07/2020
1312 899100 DANIELLE APARECIDA MARTINS COSTA ESTAGIARIO CARATINGA; CARATINGA-PJ-06PJ 0,00 0,00 0,00 144,00 0,00 0,00 0,00 0,00 0,00 31/07/2020
1313 989600 DANIELLE CAMILE OLIVEIRA FONSECA ESTAGIARIO BELO HORIZONTE; PROC. JUSTICA DE HABEAS CORPUS
1314 265000 DANIELLE CASTANHEIRA SCALABRINI OFICIAL DO MP BELO HORIZONTE - COMARCA; JUNTA RECURSAL DO PROCON ESTADUAL 1.100,00 0,00 450,00 0,00 0,00 0,00 0,00 0,00 0,00 31/07/2020
1315 485200 DANIELLE CRISTINA BARRAL DE QUEIROZ PROMOT.ENTRANC.ESPECIAL MONTES CLAROS - COMARCA; MONTES CLAROS-PJ-11PJ 1.100,00 0,00 852,80 0,00 5.614,85 0,00 0,00 0,00 514,69 31/07/2020
1316 1087700 DANIELLE DE ASSIS SILVA ESTAGIARIO BARBACENA; BARBACENA-PJ-01PJ
1317 490100 DANIELLE DE AVILA SILVA LOPES ANALISTA DO MP BELO HORIZONTE - COMARCA; PROC. JUSTICA DIR. DIFUSOS E COLETIVOS-SEC 1.100,00 1.538,78 450,00 0,00 0,00 0,00 0,00 0,00 0,00 31/07/2020
1318 106700 DANIELLE DE GUIMARAES GERMANO ARLE PROMOT.ENTRANC.ESPECIAL BELO HORIZONTE - COMARCA; BH-23PJ INFRACIONAL-GAB 039PJ 1.100,00 0,00 1.492,40 0,00 5.614,85 0,00 0,00 0,00 514,69 31/07/2020
1319 933000 DANIELLE DOMINGOS LOPES DE MELO ESTAGIARIO BELO HORIZONTE; PROC. JUSTICA CRIMINAL 0,00 0,00 0,00 99,00 0,00 0,00 0,00 0,00 40,17 31/07/2020
1320 1046600 DANIELLE GOMES DA SILVA ESTAGIARIO 0,00 0,00 0,00 45,00 0,00 0,00 0,00 0,00 0,00 31/07/2020
1321 549600 DANIELLE GOMES LOPES RODRIGUES OFICIAL DO MP VESPASIANO - COMARCA; VESPASIANO-PJ-02PJ 1.100,00 0,00 450,00 0,00 0,00 0,00 0,00 0,00 0,00 31/07/2020
1322 991700 DANIELLE SILVA ALBERGARIA ESTAGIARIO PONTE NOVA; PONTE NOVA-PJ-04PJ
1323 613000 DANIELLE SILVA OLIVEIRA FRANKLIN ASSESSOR/OFICIAL BELO HORIZONTE - COMARCA; DIRETORIA DE ORCAMENTO-DIOR/SPC 1.100,00 1.538,78 450,00 0,00 0,00 0,00 0,00 0,00 0,00 31/07/2020
1324 921800 DANIELLE VALENTIM SOUZA ESTAGIARIO BELO HORIZONTE; BH-12PJ JUIZO CRIMINAL-GAB 094PJ 0,00 0,00 0,00 9,00 0,00 0,00 0,00 0,00 0,00 31/07/2020
1325 175300 DANIELLE VIGNOLI GUZELLA LEITE PROMOT.ENTRANC.ESPECIAL JUIZ DE FORA - COMARCA; JUIZ DE FORA-PJ-22PJ 1.100,00 0,00 2.302,56 0,00 5.614,85 0,00 0,00 0,00 514,69 31/07/2020
1326 1041800 DANILA VIEIRA FERNANDES ESTAGIARIO CONTAGEM; CONTAGEM-PJ-11PJ 0,00 0,00 0,00 45,00 0,00 0,00 0,00 0,00 0,00 31/07/2020
1327 380800 DANILLO RIBEIRO ANTUNES ANALISTA DO MP MONTES CLAROS - COMARCA; MONTES CLAROS-PJ-SECRETARIA 1.100,00 0,00 450,00 0,00 0,00 0,00 0,00 0,00 0,00 31/07/2020
1328 453700 DANILO BOTELHO DE CARVALHO ASSESSOR/ANALISTA BELO HORIZONTE - COMARCA; SUPERINTENDENCIA DE FINANCAS 1.100,00 769,39 450,00 0,00 0,00 0,00 0,00 0,00 0,00 31/07/2020
1329 391200 DANILO D'AVILA MENDES ANALISTA DO MP SÃO ROMÃO - COMARCA; SAO ROMAO-PJ-UNPJ 1.100,00 769,39 450,00 0,00 0,00 0,00 0,00 0,00 0,00 31/07/2020
1330 939800 DANILO DE SOUZA RODRIGUES ESTAGIARIO MANHUACU; MANHUACU-PJ-01PJ
1331 494900 DANILO GAVIAO AVELINO DE MELLO ANALISTA DO MP POUSO ALEGRE - COMARCA; GAECO REGIONAL DE POUSO ALEGRE 1.100,00 769,39 450,00 0,00 0,00 0,00 0,00 0,00 0,00 31/07/2020
1332 604300 DANILO NASCIMENTO SALGADO ANALISTA DO MP JANAÚBA - COMARCA; JANAUBA-PJ-01PJ 1.100,00 0,00 450,00 0,00 0,00 0,00 0,00 0,00 0,00 31/07/2020
1333 440600 DANILO TARTARINI SANCHES PROMOTOR 1A ENTRANCIA CAMPESTRE - COMARCA; CAMPESTRE-PJ-UNPJ 1.100,00 0,00 2.666,80 0,00 5.067,40 0,00 0,00 0,00 464,51 31/07/2020
1334 341000